<?xml version="1.0" encoding="UTF-8" standalone="no" ?>
<gpx xmlns="http://www.topografix.com/GPX/1/1" xmlns:xsi="http://www.w3.org/2001/XMLSchema-instance" xsi:schemaLocation="http://www.topografix.com/GPX/1/1 http://www.topografix.com/GPX/1/1/gpx.xsd" version="1.1" creator="VisuGPX - https://www.visugpx.com">
  <metadata>
    <name>Facteur</name>
    <desc><![CDATA[
]]></desc>
  </metadata>
  <trk>
    <name><![CDATA[Facteur_1]]></name>
    <extensions>
      <line xmlns="http://www.topografix.com/GPX/gpx_style/0/2">
        <color>0000FF</color>
        <width>4</width>
      </line>
    </extensions>
    <trkseg>
      <trkpt lat="45.2809" lon="5.88691">
        <ele>239.44099426269</ele>
        <time>2017-09-17T06:04:18Z</time>
      </trkpt>
      <trkpt lat="45.28093" lon="5.88686">
        <ele>235.44099426269</ele>
        <time>2017-09-17T06:04:25Z</time>
      </trkpt>
      <trkpt lat="45.28094" lon="5.88678">
        <ele>234.44099426269</ele>
        <time>2017-09-17T06:04:30Z</time>
      </trkpt>
      <trkpt lat="45.28098" lon="5.88673">
        <ele>236.44099426269</ele>
        <time>2017-09-17T06:04:33Z</time>
      </trkpt>
      <trkpt lat="45.28102" lon="5.88668">
        <ele>235.44099426269</ele>
        <time>2017-09-17T06:04:37Z</time>
      </trkpt>
      <trkpt lat="45.28105" lon="5.88662">
        <ele>237.44099426269</ele>
        <time>2017-09-17T06:04:40Z</time>
      </trkpt>
      <trkpt lat="45.28109" lon="5.88655">
        <ele>237.44099426269</ele>
        <time>2017-09-17T06:04:43Z</time>
      </trkpt>
      <trkpt lat="45.28114" lon="5.8865">
        <ele>238.44099426269</ele>
        <time>2017-09-17T06:04:45Z</time>
      </trkpt>
      <trkpt lat="45.28118" lon="5.88644">
        <ele>238.44099426269</ele>
        <time>2017-09-17T06:04:47Z</time>
      </trkpt>
      <trkpt lat="45.28122" lon="5.88638">
        <ele>238.44099426269</ele>
        <time>2017-09-17T06:04:49Z</time>
      </trkpt>
      <trkpt lat="45.28127" lon="5.88625">
        <ele>236.44099426269</ele>
        <time>2017-09-17T06:04:54Z</time>
      </trkpt>
      <trkpt lat="45.28136" lon="5.88619">
        <ele>239.44099426269</ele>
        <time>2017-09-17T06:04:57Z</time>
      </trkpt>
      <trkpt lat="45.28142" lon="5.88616">
        <ele>239.44099426269</ele>
        <time>2017-09-17T06:04:59Z</time>
      </trkpt>
      <trkpt lat="45.28146" lon="5.88613">
        <ele>239.44099426269</ele>
        <time>2017-09-17T06:05:01Z</time>
      </trkpt>
      <trkpt lat="45.2815" lon="5.88608">
        <ele>240.44099426269</ele>
        <time>2017-09-17T06:05:03Z</time>
      </trkpt>
      <trkpt lat="45.28155" lon="5.88602">
        <ele>240.44099426269</ele>
        <time>2017-09-17T06:05:05Z</time>
      </trkpt>
      <trkpt lat="45.28159" lon="5.88597">
        <ele>240.44099426269</ele>
        <time>2017-09-17T06:05:07Z</time>
      </trkpt>
      <trkpt lat="45.28163" lon="5.88591">
        <ele>241.44099426269</ele>
        <time>2017-09-17T06:05:09Z</time>
      </trkpt>
      <trkpt lat="45.28168" lon="5.88586">
        <ele>241.44099426269</ele>
        <time>2017-09-17T06:05:11Z</time>
      </trkpt>
      <trkpt lat="45.28171" lon="5.88581">
        <ele>241.44099426269</ele>
        <time>2017-09-17T06:05:13Z</time>
      </trkpt>
      <trkpt lat="45.28174" lon="5.88574">
        <ele>242.44099426269</ele>
        <time>2017-09-17T06:05:15Z</time>
      </trkpt>
      <trkpt lat="45.28176" lon="5.88568">
        <ele>243.44099426269</ele>
        <time>2017-09-17T06:05:18Z</time>
      </trkpt>
      <trkpt lat="45.28183" lon="5.88563">
        <ele>242.44099426269</ele>
        <time>2017-09-17T06:05:21Z</time>
      </trkpt>
      <trkpt lat="45.28186" lon="5.88555">
        <ele>241.44099426269</ele>
        <time>2017-09-17T06:05:24Z</time>
      </trkpt>
      <trkpt lat="45.2819" lon="5.88549">
        <ele>241.44099426269</ele>
        <time>2017-09-17T06:05:26Z</time>
      </trkpt>
      <trkpt lat="45.28194" lon="5.88544">
        <ele>240.44099426269</ele>
        <time>2017-09-17T06:05:28Z</time>
      </trkpt>
      <trkpt lat="45.28198" lon="5.88539">
        <ele>240.44099426269</ele>
        <time>2017-09-17T06:05:30Z</time>
      </trkpt>
      <trkpt lat="45.28202" lon="5.88535">
        <ele>241.44099426269</ele>
        <time>2017-09-17T06:05:32Z</time>
      </trkpt>
      <trkpt lat="45.28206" lon="5.8853">
        <ele>242.44099426269</ele>
        <time>2017-09-17T06:05:34Z</time>
      </trkpt>
      <trkpt lat="45.28207" lon="5.88524">
        <ele>243.44099426269</ele>
        <time>2017-09-17T06:05:36Z</time>
      </trkpt>
      <trkpt lat="45.28211" lon="5.88518">
        <ele>243.44099426269</ele>
        <time>2017-09-17T06:05:38Z</time>
      </trkpt>
      <trkpt lat="45.28213" lon="5.88513">
        <ele>243.44099426269</ele>
        <time>2017-09-17T06:05:40Z</time>
      </trkpt>
      <trkpt lat="45.28217" lon="5.88505">
        <ele>244.44099426269</ele>
        <time>2017-09-17T06:05:43Z</time>
      </trkpt>
      <trkpt lat="45.28219" lon="5.88496">
        <ele>244.44099426269</ele>
        <time>2017-09-17T06:05:46Z</time>
      </trkpt>
      <trkpt lat="45.28223" lon="5.88491">
        <ele>245.44099426269</ele>
        <time>2017-09-17T06:05:48Z</time>
      </trkpt>
      <trkpt lat="45.28224" lon="5.88484">
        <ele>245.44099426269</ele>
        <time>2017-09-17T06:05:50Z</time>
      </trkpt>
      <trkpt lat="45.28229" lon="5.88478">
        <ele>246.44099426269</ele>
        <time>2017-09-17T06:05:53Z</time>
      </trkpt>
      <trkpt lat="45.28233" lon="5.88472">
        <ele>246.44099426269</ele>
        <time>2017-09-17T06:05:55Z</time>
      </trkpt>
      <trkpt lat="45.28236" lon="5.88466">
        <ele>247.44099426269</ele>
        <time>2017-09-17T06:05:57Z</time>
      </trkpt>
      <trkpt lat="45.28239" lon="5.8846">
        <ele>249.44099426269</ele>
        <time>2017-09-17T06:05:59Z</time>
      </trkpt>
      <trkpt lat="45.28241" lon="5.88453">
        <ele>249.44099426269</ele>
        <time>2017-09-17T06:06:02Z</time>
      </trkpt>
      <trkpt lat="45.28242" lon="5.88447">
        <ele>249.44099426269</ele>
        <time>2017-09-17T06:06:04Z</time>
      </trkpt>
      <trkpt lat="45.28246" lon="5.88442">
        <ele>249.44099426269</ele>
        <time>2017-09-17T06:06:06Z</time>
      </trkpt>
      <trkpt lat="45.28249" lon="5.88437">
        <ele>249.44099426269</ele>
        <time>2017-09-17T06:06:08Z</time>
      </trkpt>
      <trkpt lat="45.28252" lon="5.88432">
        <ele>249.44099426269</ele>
        <time>2017-09-17T06:06:10Z</time>
      </trkpt>
      <trkpt lat="45.28255" lon="5.88427">
        <ele>248.44099426269</ele>
        <time>2017-09-17T06:06:13Z</time>
      </trkpt>
      <trkpt lat="45.28258" lon="5.88421">
        <ele>251.44099426269</ele>
        <time>2017-09-17T06:06:16Z</time>
      </trkpt>
      <trkpt lat="45.28263" lon="5.88423">
        <ele>252.44099426269</ele>
        <time>2017-09-17T06:06:18Z</time>
      </trkpt>
      <trkpt lat="45.28269" lon="5.88426">
        <ele>253.44099426269</ele>
        <time>2017-09-17T06:06:20Z</time>
      </trkpt>
      <trkpt lat="45.28274" lon="5.88426">
        <ele>254.44099426269</ele>
        <time>2017-09-17T06:06:22Z</time>
      </trkpt>
      <trkpt lat="45.2828" lon="5.88424">
        <ele>254.44099426269</ele>
        <time>2017-09-17T06:06:24Z</time>
      </trkpt>
      <trkpt lat="45.28284" lon="5.88419">
        <ele>255.44099426269</ele>
        <time>2017-09-17T06:06:26Z</time>
      </trkpt>
      <trkpt lat="45.28287" lon="5.88412">
        <ele>254.44099426269</ele>
        <time>2017-09-17T06:06:28Z</time>
      </trkpt>
      <trkpt lat="45.28288" lon="5.88405">
        <ele>253.44099426269</ele>
        <time>2017-09-17T06:06:30Z</time>
      </trkpt>
      <trkpt lat="45.28284" lon="5.88392">
        <ele>253.44099426269</ele>
        <time>2017-09-17T06:06:34Z</time>
      </trkpt>
      <trkpt lat="45.28284" lon="5.88386">
        <ele>255.44099426269</ele>
        <time>2017-09-17T06:06:36Z</time>
      </trkpt>
      <trkpt lat="45.28285" lon="5.88376">
        <ele>254.44099426269</ele>
        <time>2017-09-17T06:06:39Z</time>
      </trkpt>
      <trkpt lat="45.28287" lon="5.8837">
        <ele>251.44099426269</ele>
        <time>2017-09-17T06:06:41Z</time>
      </trkpt>
      <trkpt lat="45.28288" lon="5.88363">
        <ele>249.44099426269</ele>
        <time>2017-09-17T06:06:44Z</time>
      </trkpt>
      <trkpt lat="45.28292" lon="5.88358">
        <ele>249.44099426269</ele>
        <time>2017-09-17T06:06:46Z</time>
      </trkpt>
      <trkpt lat="45.28295" lon="5.88353">
        <ele>249.44099426269</ele>
        <time>2017-09-17T06:06:48Z</time>
      </trkpt>
      <trkpt lat="45.283" lon="5.88348">
        <ele>249.44099426269</ele>
        <time>2017-09-17T06:06:50Z</time>
      </trkpt>
      <trkpt lat="45.28303" lon="5.88343">
        <ele>250.44099426269</ele>
        <time>2017-09-17T06:06:52Z</time>
      </trkpt>
      <trkpt lat="45.28306" lon="5.88339">
        <ele>250.44099426269</ele>
        <time>2017-09-17T06:06:54Z</time>
      </trkpt>
      <trkpt lat="45.2831" lon="5.88331">
        <ele>250.44099426269</ele>
        <time>2017-09-17T06:06:57Z</time>
      </trkpt>
      <trkpt lat="45.28314" lon="5.88327">
        <ele>251.44099426269</ele>
        <time>2017-09-17T06:06:59Z</time>
      </trkpt>
      <trkpt lat="45.28317" lon="5.88322">
        <ele>250.44099426269</ele>
        <time>2017-09-17T06:07:01Z</time>
      </trkpt>
      <trkpt lat="45.28321" lon="5.88315">
        <ele>250.44099426269</ele>
        <time>2017-09-17T06:07:04Z</time>
      </trkpt>
      <trkpt lat="45.28324" lon="5.8831">
        <ele>251.44099426269</ele>
        <time>2017-09-17T06:07:06Z</time>
      </trkpt>
      <trkpt lat="45.28328" lon="5.88306">
        <ele>251.44099426269</ele>
        <time>2017-09-17T06:07:08Z</time>
      </trkpt>
      <trkpt lat="45.28332" lon="5.88302">
        <ele>252.44099426269</ele>
        <time>2017-09-17T06:07:10Z</time>
      </trkpt>
      <trkpt lat="45.28336" lon="5.88296">
        <ele>253.44099426269</ele>
        <time>2017-09-17T06:07:12Z</time>
      </trkpt>
      <trkpt lat="45.28339" lon="5.88289">
        <ele>252.44099426269</ele>
        <time>2017-09-17T06:07:15Z</time>
      </trkpt>
      <trkpt lat="45.28344" lon="5.88284">
        <ele>253.44099426269</ele>
        <time>2017-09-17T06:07:17Z</time>
      </trkpt>
      <trkpt lat="45.28349" lon="5.88279">
        <ele>255.44099426269</ele>
        <time>2017-09-17T06:07:19Z</time>
      </trkpt>
      <trkpt lat="45.28353" lon="5.88276">
        <ele>256.44100952148</ele>
        <time>2017-09-17T06:07:21Z</time>
      </trkpt>
      <trkpt lat="45.28358" lon="5.88273">
        <ele>257.44100952148</ele>
        <time>2017-09-17T06:07:23Z</time>
      </trkpt>
      <trkpt lat="45.28359" lon="5.88267">
        <ele>258.44100952148</ele>
        <time>2017-09-17T06:07:25Z</time>
      </trkpt>
      <trkpt lat="45.28363" lon="5.88261">
        <ele>259.44100952148</ele>
        <time>2017-09-17T06:07:27Z</time>
      </trkpt>
      <trkpt lat="45.28367" lon="5.88255">
        <ele>260.44100952148</ele>
        <time>2017-09-17T06:07:30Z</time>
      </trkpt>
      <trkpt lat="45.28371" lon="5.88249">
        <ele>260.44100952148</ele>
        <time>2017-09-17T06:07:33Z</time>
      </trkpt>
      <trkpt lat="45.28378" lon="5.88245">
        <ele>262.44100952148</ele>
        <time>2017-09-17T06:07:36Z</time>
      </trkpt>
      <trkpt lat="45.28383" lon="5.88241">
        <ele>263.44100952148</ele>
        <time>2017-09-17T06:07:39Z</time>
      </trkpt>
      <trkpt lat="45.28387" lon="5.88235">
        <ele>263.44100952148</ele>
        <time>2017-09-17T06:07:42Z</time>
      </trkpt>
      <trkpt lat="45.28384" lon="5.88228">
        <ele>263.44100952148</ele>
        <time>2017-09-17T06:07:44Z</time>
      </trkpt>
      <trkpt lat="45.28385" lon="5.8822">
        <ele>264.44100952148</ele>
        <time>2017-09-17T06:07:46Z</time>
      </trkpt>
      <trkpt lat="45.2839" lon="5.8822">
        <ele>263.44100952148</ele>
        <time>2017-09-17T06:07:48Z</time>
      </trkpt>
      <trkpt lat="45.28393" lon="5.88214">
        <ele>262.44100952148</ele>
        <time>2017-09-17T06:07:52Z</time>
      </trkpt>
      <trkpt lat="45.28392" lon="5.88206">
        <ele>263.44100952148</ele>
        <time>2017-09-17T06:07:54Z</time>
      </trkpt>
      <trkpt lat="45.28393" lon="5.882">
        <ele>264.44100952148</ele>
        <time>2017-09-17T06:07:56Z</time>
      </trkpt>
      <trkpt lat="45.28394" lon="5.88193">
        <ele>263.44100952148</ele>
        <time>2017-09-17T06:07:58Z</time>
      </trkpt>
      <trkpt lat="45.28394" lon="5.88186">
        <ele>261.44100952148</ele>
        <time>2017-09-17T06:08:00Z</time>
      </trkpt>
      <trkpt lat="45.28393" lon="5.88176">
        <ele>261.44100952148</ele>
        <time>2017-09-17T06:08:03Z</time>
      </trkpt>
      <trkpt lat="45.28395" lon="5.8817">
        <ele>262.44100952148</ele>
        <time>2017-09-17T06:08:06Z</time>
      </trkpt>
      <trkpt lat="45.28397" lon="5.88162">
        <ele>261.44100952148</ele>
        <time>2017-09-17T06:08:08Z</time>
      </trkpt>
      <trkpt lat="45.28392" lon="5.88156">
        <ele>260.44100952148</ele>
        <time>2017-09-17T06:08:11Z</time>
      </trkpt>
      <trkpt lat="45.28397" lon="5.88144">
        <ele>259.44100952148</ele>
        <time>2017-09-17T06:08:14Z</time>
      </trkpt>
      <trkpt lat="45.28396" lon="5.88138">
        <ele>260.44100952148</ele>
        <time>2017-09-17T06:08:16Z</time>
      </trkpt>
      <trkpt lat="45.28399" lon="5.8813">
        <ele>261.44100952148</ele>
        <time>2017-09-17T06:08:18Z</time>
      </trkpt>
      <trkpt lat="45.28403" lon="5.88122">
        <ele>265.44100952148</ele>
        <time>2017-09-17T06:08:21Z</time>
      </trkpt>
      <trkpt lat="45.28406" lon="5.88116">
        <ele>266.44100952148</ele>
        <time>2017-09-17T06:08:24Z</time>
      </trkpt>
      <trkpt lat="45.28409" lon="5.88108">
        <ele>266.44100952148</ele>
        <time>2017-09-17T06:08:27Z</time>
      </trkpt>
      <trkpt lat="45.28411" lon="5.88102">
        <ele>267.44100952148</ele>
        <time>2017-09-17T06:08:29Z</time>
      </trkpt>
      <trkpt lat="45.28416" lon="5.88096">
        <ele>267.44100952148</ele>
        <time>2017-09-17T06:08:32Z</time>
      </trkpt>
      <trkpt lat="45.28422" lon="5.88092">
        <ele>267.44100952148</ele>
        <time>2017-09-17T06:08:35Z</time>
      </trkpt>
      <trkpt lat="45.28427" lon="5.88087">
        <ele>269.44100952148</ele>
        <time>2017-09-17T06:08:38Z</time>
      </trkpt>
      <trkpt lat="45.28431" lon="5.88082">
        <ele>269.44100952148</ele>
        <time>2017-09-17T06:08:41Z</time>
      </trkpt>
      <trkpt lat="45.28436" lon="5.88076">
        <ele>269.44100952148</ele>
        <time>2017-09-17T06:08:44Z</time>
      </trkpt>
      <trkpt lat="45.2844" lon="5.88072">
        <ele>270.44100952148</ele>
        <time>2017-09-17T06:08:46Z</time>
      </trkpt>
      <trkpt lat="45.28444" lon="5.88067">
        <ele>272.44100952148</ele>
        <time>2017-09-17T06:08:49Z</time>
      </trkpt>
      <trkpt lat="45.28448" lon="5.88064">
        <ele>273.44100952148</ele>
        <time>2017-09-17T06:08:51Z</time>
      </trkpt>
      <trkpt lat="45.28453" lon="5.88058">
        <ele>273.44100952148</ele>
        <time>2017-09-17T06:08:54Z</time>
      </trkpt>
      <trkpt lat="45.28462" lon="5.88047">
        <ele>276.44100952148</ele>
        <time>2017-09-17T06:09:00Z</time>
      </trkpt>
      <trkpt lat="45.28466" lon="5.88041">
        <ele>276.44100952148</ele>
        <time>2017-09-17T06:09:03Z</time>
      </trkpt>
      <trkpt lat="45.2847" lon="5.88037">
        <ele>275.44100952148</ele>
        <time>2017-09-17T06:09:05Z</time>
      </trkpt>
      <trkpt lat="45.28476" lon="5.88028">
        <ele>275.44100952148</ele>
        <time>2017-09-17T06:09:09Z</time>
      </trkpt>
      <trkpt lat="45.28481" lon="5.88021">
        <ele>275.44100952148</ele>
        <time>2017-09-17T06:09:12Z</time>
      </trkpt>
      <trkpt lat="45.28486" lon="5.88018">
        <ele>274.44100952148</ele>
        <time>2017-09-17T06:09:14Z</time>
      </trkpt>
      <trkpt lat="45.28489" lon="5.88013">
        <ele>275.44100952148</ele>
        <time>2017-09-17T06:09:16Z</time>
      </trkpt>
      <trkpt lat="45.28494" lon="5.88008">
        <ele>276.44100952148</ele>
        <time>2017-09-17T06:09:19Z</time>
      </trkpt>
      <trkpt lat="45.28496" lon="5.88001">
        <ele>272.44100952148</ele>
        <time>2017-09-17T06:09:22Z</time>
      </trkpt>
      <trkpt lat="45.28499" lon="5.87993">
        <ele>271.44100952148</ele>
        <time>2017-09-17T06:09:25Z</time>
      </trkpt>
      <trkpt lat="45.28503" lon="5.87989">
        <ele>273.44100952148</ele>
        <time>2017-09-17T06:09:28Z</time>
      </trkpt>
      <trkpt lat="45.28507" lon="5.87984">
        <ele>273.44100952148</ele>
        <time>2017-09-17T06:09:31Z</time>
      </trkpt>
      <trkpt lat="45.2851" lon="5.87978">
        <ele>273.44100952148</ele>
        <time>2017-09-17T06:09:34Z</time>
      </trkpt>
      <trkpt lat="45.28516" lon="5.87973">
        <ele>274.44100952148</ele>
        <time>2017-09-17T06:09:37Z</time>
      </trkpt>
      <trkpt lat="45.28523" lon="5.8797">
        <ele>278.44100952148</ele>
        <time>2017-09-17T06:09:40Z</time>
      </trkpt>
      <trkpt lat="45.28527" lon="5.87966">
        <ele>280.44100952148</ele>
        <time>2017-09-17T06:09:43Z</time>
      </trkpt>
      <trkpt lat="45.2853" lon="5.87958">
        <ele>279.44100952148</ele>
        <time>2017-09-17T06:09:46Z</time>
      </trkpt>
      <trkpt lat="45.28535" lon="5.87954">
        <ele>281.44100952148</ele>
        <time>2017-09-17T06:09:49Z</time>
      </trkpt>
      <trkpt lat="45.2854" lon="5.87947">
        <ele>280.44100952148</ele>
        <time>2017-09-17T06:09:53Z</time>
      </trkpt>
      <trkpt lat="45.28546" lon="5.87938">
        <ele>278.44100952148</ele>
        <time>2017-09-17T06:09:57Z</time>
      </trkpt>
      <trkpt lat="45.28551" lon="5.87932">
        <ele>278.44100952148</ele>
        <time>2017-09-17T06:10:00Z</time>
      </trkpt>
      <trkpt lat="45.28555" lon="5.87925">
        <ele>280.44100952148</ele>
        <time>2017-09-17T06:10:04Z</time>
      </trkpt>
      <trkpt lat="45.28559" lon="5.8792">
        <ele>279.44100952148</ele>
        <time>2017-09-17T06:10:06Z</time>
      </trkpt>
      <trkpt lat="45.28565" lon="5.87918">
        <ele>280.44100952148</ele>
        <time>2017-09-17T06:10:08Z</time>
      </trkpt>
      <trkpt lat="45.2857" lon="5.87913">
        <ele>280.44100952148</ele>
        <time>2017-09-17T06:10:11Z</time>
      </trkpt>
      <trkpt lat="45.28574" lon="5.87908">
        <ele>280.44100952148</ele>
        <time>2017-09-17T06:10:13Z</time>
      </trkpt>
      <trkpt lat="45.28577" lon="5.87903">
        <ele>281.44100952148</ele>
        <time>2017-09-17T06:10:16Z</time>
      </trkpt>
      <trkpt lat="45.28583" lon="5.87899">
        <ele>281.44100952148</ele>
        <time>2017-09-17T06:10:18Z</time>
      </trkpt>
      <trkpt lat="45.2859" lon="5.87899">
        <ele>284.44100952148</ele>
        <time>2017-09-17T06:10:21Z</time>
      </trkpt>
      <trkpt lat="45.28594" lon="5.87893">
        <ele>283.44100952148</ele>
        <time>2017-09-17T06:10:24Z</time>
      </trkpt>
      <trkpt lat="45.28596" lon="5.87886">
        <ele>281.44100952148</ele>
        <time>2017-09-17T06:10:27Z</time>
      </trkpt>
      <trkpt lat="45.28597" lon="5.87878">
        <ele>282.44100952148</ele>
        <time>2017-09-17T06:10:30Z</time>
      </trkpt>
      <trkpt lat="45.28598" lon="5.87872">
        <ele>281.44100952148</ele>
        <time>2017-09-17T06:10:32Z</time>
      </trkpt>
      <trkpt lat="45.28598" lon="5.87864">
        <ele>282.44100952148</ele>
        <time>2017-09-17T06:10:35Z</time>
      </trkpt>
      <trkpt lat="45.286" lon="5.87854">
        <ele>282.44100952148</ele>
        <time>2017-09-17T06:10:38Z</time>
      </trkpt>
      <trkpt lat="45.28598" lon="5.87839">
        <ele>278.44100952148</ele>
        <time>2017-09-17T06:10:43Z</time>
      </trkpt>
      <trkpt lat="45.28602" lon="5.87834">
        <ele>279.44100952148</ele>
        <time>2017-09-17T06:10:45Z</time>
      </trkpt>
      <trkpt lat="45.28602" lon="5.87825">
        <ele>277.44100952148</ele>
        <time>2017-09-17T06:10:48Z</time>
      </trkpt>
      <trkpt lat="45.28599" lon="5.8782">
        <ele>279.44100952148</ele>
        <time>2017-09-17T06:10:50Z</time>
      </trkpt>
      <trkpt lat="45.28598" lon="5.87811">
        <ele>281.44100952148</ele>
        <time>2017-09-17T06:10:53Z</time>
      </trkpt>
      <trkpt lat="45.28599" lon="5.87802">
        <ele>281.44100952148</ele>
        <time>2017-09-17T06:10:56Z</time>
      </trkpt>
      <trkpt lat="45.286" lon="5.87796">
        <ele>281.44100952148</ele>
        <time>2017-09-17T06:10:58Z</time>
      </trkpt>
      <trkpt lat="45.28598" lon="5.8779">
        <ele>282.44100952148</ele>
        <time>2017-09-17T06:11:01Z</time>
      </trkpt>
      <trkpt lat="45.28598" lon="5.87782">
        <ele>285.44100952148</ele>
        <time>2017-09-17T06:11:04Z</time>
      </trkpt>
      <trkpt lat="45.286" lon="5.87773">
        <ele>286.44100952148</ele>
        <time>2017-09-17T06:11:07Z</time>
      </trkpt>
      <trkpt lat="45.28603" lon="5.87765">
        <ele>287.44100952148</ele>
        <time>2017-09-17T06:11:09Z</time>
      </trkpt>
      <trkpt lat="45.28605" lon="5.87756">
        <ele>289.44100952148</ele>
        <time>2017-09-17T06:11:12Z</time>
      </trkpt>
      <trkpt lat="45.28607" lon="5.8775">
        <ele>289.44100952148</ele>
        <time>2017-09-17T06:11:14Z</time>
      </trkpt>
      <trkpt lat="45.28609" lon="5.87742">
        <ele>289.44100952148</ele>
        <time>2017-09-17T06:11:16Z</time>
      </trkpt>
      <trkpt lat="45.2861" lon="5.87734">
        <ele>292.44100952148</ele>
        <time>2017-09-17T06:11:19Z</time>
      </trkpt>
      <trkpt lat="45.28613" lon="5.87727">
        <ele>291.44100952148</ele>
        <time>2017-09-17T06:11:21Z</time>
      </trkpt>
      <trkpt lat="45.28613" lon="5.87721">
        <ele>292.44100952148</ele>
        <time>2017-09-17T06:11:24Z</time>
      </trkpt>
      <trkpt lat="45.28612" lon="5.87713">
        <ele>295.44100952148</ele>
        <time>2017-09-17T06:11:27Z</time>
      </trkpt>
      <trkpt lat="45.28614" lon="5.87706">
        <ele>294.44100952148</ele>
        <time>2017-09-17T06:11:30Z</time>
      </trkpt>
      <trkpt lat="45.28616" lon="5.87699">
        <ele>295.44100952148</ele>
        <time>2017-09-17T06:11:33Z</time>
      </trkpt>
      <trkpt lat="45.2862" lon="5.87693">
        <ele>296.44100952148</ele>
        <time>2017-09-17T06:11:36Z</time>
      </trkpt>
      <trkpt lat="45.28625" lon="5.87689">
        <ele>296.44100952148</ele>
        <time>2017-09-17T06:11:39Z</time>
      </trkpt>
      <trkpt lat="45.2863" lon="5.87688">
        <ele>296.44100952148</ele>
        <time>2017-09-17T06:11:42Z</time>
      </trkpt>
      <trkpt lat="45.28635" lon="5.87687">
        <ele>295.44100952148</ele>
        <time>2017-09-17T06:11:44Z</time>
      </trkpt>
      <trkpt lat="45.28641" lon="5.87684">
        <ele>292.44100952148</ele>
        <time>2017-09-17T06:11:47Z</time>
      </trkpt>
      <trkpt lat="45.28646" lon="5.87682">
        <ele>293.44100952148</ele>
        <time>2017-09-17T06:11:50Z</time>
      </trkpt>
      <trkpt lat="45.2865" lon="5.87678">
        <ele>292.44100952148</ele>
        <time>2017-09-17T06:11:52Z</time>
      </trkpt>
      <trkpt lat="45.28654" lon="5.8767">
        <ele>293.44100952148</ele>
        <time>2017-09-17T06:11:55Z</time>
      </trkpt>
      <trkpt lat="45.28657" lon="5.87663">
        <ele>293.44100952148</ele>
        <time>2017-09-17T06:11:58Z</time>
      </trkpt>
      <trkpt lat="45.2866" lon="5.87657">
        <ele>293.44100952148</ele>
        <time>2017-09-17T06:12:01Z</time>
      </trkpt>
      <trkpt lat="45.28664" lon="5.87653">
        <ele>293.44100952148</ele>
        <time>2017-09-17T06:12:03Z</time>
      </trkpt>
      <trkpt lat="45.28668" lon="5.87648">
        <ele>295.44100952148</ele>
        <time>2017-09-17T06:12:06Z</time>
      </trkpt>
      <trkpt lat="45.28671" lon="5.87642">
        <ele>297.44100952148</ele>
        <time>2017-09-17T06:12:09Z</time>
      </trkpt>
      <trkpt lat="45.28673" lon="5.87637">
        <ele>298.44100952148</ele>
        <time>2017-09-17T06:12:12Z</time>
      </trkpt>
      <trkpt lat="45.28678" lon="5.87631">
        <ele>297.44100952148</ele>
        <time>2017-09-17T06:12:14Z</time>
      </trkpt>
      <trkpt lat="45.28681" lon="5.87622">
        <ele>295.44100952148</ele>
        <time>2017-09-17T06:12:17Z</time>
      </trkpt>
      <trkpt lat="45.28685" lon="5.87617">
        <ele>296.44100952148</ele>
        <time>2017-09-17T06:12:20Z</time>
      </trkpt>
      <trkpt lat="45.28689" lon="5.87612">
        <ele>296.44100952148</ele>
        <time>2017-09-17T06:12:23Z</time>
      </trkpt>
      <trkpt lat="45.28693" lon="5.87607">
        <ele>300.44100952148</ele>
        <time>2017-09-17T06:12:27Z</time>
      </trkpt>
      <trkpt lat="45.28696" lon="5.87601">
        <ele>302.44100952148</ele>
        <time>2017-09-17T06:12:30Z</time>
      </trkpt>
      <trkpt lat="45.28698" lon="5.87596">
        <ele>302.44100952148</ele>
        <time>2017-09-17T06:12:33Z</time>
      </trkpt>
      <trkpt lat="45.28701" lon="5.87591">
        <ele>303.44100952148</ele>
        <time>2017-09-17T06:12:37Z</time>
      </trkpt>
      <trkpt lat="45.28705" lon="5.87586">
        <ele>305.44100952148</ele>
        <time>2017-09-17T06:12:40Z</time>
      </trkpt>
      <trkpt lat="45.28709" lon="5.87582">
        <ele>305.44100952148</ele>
        <time>2017-09-17T06:12:43Z</time>
      </trkpt>
      <trkpt lat="45.28713" lon="5.87578">
        <ele>307.44100952148</ele>
        <time>2017-09-17T06:12:46Z</time>
      </trkpt>
      <trkpt lat="45.28718" lon="5.87576">
        <ele>307.44100952148</ele>
        <time>2017-09-17T06:12:49Z</time>
      </trkpt>
      <trkpt lat="45.28722" lon="5.87572">
        <ele>308.44100952148</ele>
        <time>2017-09-17T06:12:52Z</time>
      </trkpt>
      <trkpt lat="45.28727" lon="5.87569">
        <ele>312.44100952148</ele>
        <time>2017-09-17T06:12:57Z</time>
      </trkpt>
      <trkpt lat="45.28733" lon="5.87565">
        <ele>313.44100952148</ele>
        <time>2017-09-17T06:13:00Z</time>
      </trkpt>
      <trkpt lat="45.28739" lon="5.87563">
        <ele>315.44100952148</ele>
        <time>2017-09-17T06:13:03Z</time>
      </trkpt>
      <trkpt lat="45.28746" lon="5.87561">
        <ele>317.44100952148</ele>
        <time>2017-09-17T06:13:07Z</time>
      </trkpt>
      <trkpt lat="45.28751" lon="5.87561">
        <ele>320.44100952148</ele>
        <time>2017-09-17T06:13:11Z</time>
      </trkpt>
      <trkpt lat="45.28758" lon="5.8756">
        <ele>321.44100952148</ele>
        <time>2017-09-17T06:13:16Z</time>
      </trkpt>
      <trkpt lat="45.28764" lon="5.8756">
        <ele>322.44100952148</ele>
        <time>2017-09-17T06:13:20Z</time>
      </trkpt>
      <trkpt lat="45.28774" lon="5.87555">
        <ele>322.44100952148</ele>
        <time>2017-09-17T06:13:24Z</time>
      </trkpt>
      <trkpt lat="45.28779" lon="5.87551">
        <ele>322.44100952148</ele>
        <time>2017-09-17T06:13:26Z</time>
      </trkpt>
      <trkpt lat="45.28783" lon="5.87545">
        <ele>323.44100952148</ele>
        <time>2017-09-17T06:13:29Z</time>
      </trkpt>
      <trkpt lat="45.28785" lon="5.87535">
        <ele>319.44100952148</ele>
        <time>2017-09-17T06:13:34Z</time>
      </trkpt>
      <trkpt lat="45.28786" lon="5.87528">
        <ele>320.44100952148</ele>
        <time>2017-09-17T06:13:38Z</time>
      </trkpt>
      <trkpt lat="45.28785" lon="5.87521">
        <ele>323.44100952148</ele>
        <time>2017-09-17T06:13:43Z</time>
      </trkpt>
      <trkpt lat="45.28785" lon="5.87513">
        <ele>326.44100952148</ele>
        <time>2017-09-17T06:13:47Z</time>
      </trkpt>
      <trkpt lat="45.2879" lon="5.8751">
        <ele>325.44100952148</ele>
        <time>2017-09-17T06:13:49Z</time>
      </trkpt>
      <trkpt lat="45.28794" lon="5.87503">
        <ele>326.44100952148</ele>
        <time>2017-09-17T06:13:53Z</time>
      </trkpt>
      <trkpt lat="45.288" lon="5.87501">
        <ele>328.44100952148</ele>
        <time>2017-09-17T06:13:56Z</time>
      </trkpt>
      <trkpt lat="45.28806" lon="5.87497">
        <ele>328.44100952148</ele>
        <time>2017-09-17T06:13:58Z</time>
      </trkpt>
      <trkpt lat="45.28811" lon="5.87493">
        <ele>333.44100952148</ele>
        <time>2017-09-17T06:14:05Z</time>
      </trkpt>
      <trkpt lat="45.28813" lon="5.87485">
        <ele>335.44100952148</ele>
        <time>2017-09-17T06:14:09Z</time>
      </trkpt>
      <trkpt lat="45.28811" lon="5.87479">
        <ele>338.44100952148</ele>
        <time>2017-09-17T06:14:14Z</time>
      </trkpt>
      <trkpt lat="45.28814" lon="5.87474">
        <ele>338.44100952148</ele>
        <time>2017-09-17T06:14:17Z</time>
      </trkpt>
      <trkpt lat="45.28818" lon="5.87469">
        <ele>339.44100952148</ele>
        <time>2017-09-17T06:14:20Z</time>
      </trkpt>
      <trkpt lat="45.2882" lon="5.87462">
        <ele>340.44100952148</ele>
        <time>2017-09-17T06:14:23Z</time>
      </trkpt>
      <trkpt lat="45.28822" lon="5.87455">
        <ele>343.44100952148</ele>
        <time>2017-09-17T06:14:27Z</time>
      </trkpt>
      <trkpt lat="45.28822" lon="5.87447">
        <ele>348.44100952148</ele>
        <time>2017-09-17T06:14:32Z</time>
      </trkpt>
      <trkpt lat="45.28823" lon="5.8744">
        <ele>348.44100952148</ele>
        <time>2017-09-17T06:14:38Z</time>
      </trkpt>
      <trkpt lat="45.28825" lon="5.87435">
        <ele>350.44100952148</ele>
        <time>2017-09-17T06:14:42Z</time>
      </trkpt>
      <trkpt lat="45.28823" lon="5.87428">
        <ele>347.44100952148</ele>
        <time>2017-09-17T06:14:46Z</time>
      </trkpt>
      <trkpt lat="45.28818" lon="5.87423">
        <ele>350.44100952148</ele>
        <time>2017-09-17T06:14:49Z</time>
      </trkpt>
      <trkpt lat="45.28811" lon="5.87421">
        <ele>352.44100952148</ele>
        <time>2017-09-17T06:14:52Z</time>
      </trkpt>
      <trkpt lat="45.28806" lon="5.87419">
        <ele>354.44100952148</ele>
        <time>2017-09-17T06:14:55Z</time>
      </trkpt>
      <trkpt lat="45.28801" lon="5.87419">
        <ele>356.44100952148</ele>
        <time>2017-09-17T06:14:57Z</time>
      </trkpt>
      <trkpt lat="45.28795" lon="5.87416">
        <ele>358.44100952148</ele>
        <time>2017-09-17T06:14:59Z</time>
      </trkpt>
      <trkpt lat="45.28791" lon="5.87415">
        <ele>356.44100952148</ele>
        <time>2017-09-17T06:15:01Z</time>
      </trkpt>
      <trkpt lat="45.28784" lon="5.87416">
        <ele>357.44100952148</ele>
        <time>2017-09-17T06:15:03Z</time>
      </trkpt>
      <trkpt lat="45.2878" lon="5.87413">
        <ele>356.44000244141</ele>
        <time>2017-09-17T06:15:06Z</time>
      </trkpt>
      <trkpt lat="45.28774" lon="5.87409">
        <ele>353.44000244141</ele>
        <time>2017-09-17T06:15:14Z</time>
      </trkpt>
      <trkpt lat="45.28767" lon="5.87409">
        <ele>353.44000244141</ele>
        <time>2017-09-17T06:15:17Z</time>
      </trkpt>
      <trkpt lat="45.28762" lon="5.87408">
        <ele>352.44000244141</ele>
        <time>2017-09-17T06:15:19Z</time>
      </trkpt>
      <trkpt lat="45.28755" lon="5.87409">
        <ele>353.44000244141</ele>
        <time>2017-09-17T06:15:21Z</time>
      </trkpt>
      <trkpt lat="45.28747" lon="5.87413">
        <ele>359.44000244141</ele>
        <time>2017-09-17T06:15:24Z</time>
      </trkpt>
      <trkpt lat="45.28736" lon="5.87416">
        <ele>357.44000244141</ele>
        <time>2017-09-17T06:15:28Z</time>
      </trkpt>
      <trkpt lat="45.28731" lon="5.87417">
        <ele>357.44000244141</ele>
        <time>2017-09-17T06:15:30Z</time>
      </trkpt>
      <trkpt lat="45.28723" lon="5.87414">
        <ele>356.44000244141</ele>
        <time>2017-09-17T06:15:32Z</time>
      </trkpt>
      <trkpt lat="45.28707" lon="5.87413">
        <ele>358.44000244141</ele>
        <time>2017-09-17T06:15:35Z</time>
      </trkpt>
      <trkpt lat="45.28701" lon="5.87415">
        <ele>357.44000244141</ele>
        <time>2017-09-17T06:15:37Z</time>
      </trkpt>
      <trkpt lat="45.28695" lon="5.87412">
        <ele>356.44000244141</ele>
        <time>2017-09-17T06:15:39Z</time>
      </trkpt>
      <trkpt lat="45.28691" lon="5.87409">
        <ele>353.44000244141</ele>
        <time>2017-09-17T06:15:41Z</time>
      </trkpt>
      <trkpt lat="45.28686" lon="5.87407">
        <ele>351.44000244141</ele>
        <time>2017-09-17T06:15:43Z</time>
      </trkpt>
      <trkpt lat="45.28679" lon="5.87408">
        <ele>351.44000244141</ele>
        <time>2017-09-17T06:15:45Z</time>
      </trkpt>
      <trkpt lat="45.28673" lon="5.87408">
        <ele>349.44000244141</ele>
        <time>2017-09-17T06:15:47Z</time>
      </trkpt>
      <trkpt lat="45.28668" lon="5.87409">
        <ele>347.44000244141</ele>
        <time>2017-09-17T06:15:49Z</time>
      </trkpt>
      <trkpt lat="45.28664" lon="5.87403">
        <ele>346.44000244141</ele>
        <time>2017-09-17T06:15:51Z</time>
      </trkpt>
      <trkpt lat="45.28661" lon="5.87399">
        <ele>345.44000244141</ele>
        <time>2017-09-17T06:15:53Z</time>
      </trkpt>
      <trkpt lat="45.28656" lon="5.87395">
        <ele>346.44000244141</ele>
        <time>2017-09-17T06:15:57Z</time>
      </trkpt>
      <trkpt lat="45.28654" lon="5.87389">
        <ele>347.44000244141</ele>
        <time>2017-09-17T06:16:00Z</time>
      </trkpt>
      <trkpt lat="45.28651" lon="5.87383">
        <ele>350.44000244141</ele>
        <time>2017-09-17T06:16:04Z</time>
      </trkpt>
      <trkpt lat="45.28648" lon="5.87376">
        <ele>350.44000244141</ele>
        <time>2017-09-17T06:16:09Z</time>
      </trkpt>
      <trkpt lat="45.28644" lon="5.87373">
        <ele>350.44000244141</ele>
        <time>2017-09-17T06:16:13Z</time>
      </trkpt>
      <trkpt lat="45.2864" lon="5.8737">
        <ele>352.44000244141</ele>
        <time>2017-09-17T06:16:16Z</time>
      </trkpt>
      <trkpt lat="45.28636" lon="5.87367">
        <ele>353.44000244141</ele>
        <time>2017-09-17T06:16:20Z</time>
      </trkpt>
      <trkpt lat="45.28631" lon="5.87362">
        <ele>353.44000244141</ele>
        <time>2017-09-17T06:16:24Z</time>
      </trkpt>
      <trkpt lat="45.28625" lon="5.87362">
        <ele>353.44000244141</ele>
        <time>2017-09-17T06:16:26Z</time>
      </trkpt>
      <trkpt lat="45.28595" lon="5.87351">
        <ele>351.44000244141</ele>
        <time>2017-09-17T06:16:38Z</time>
      </trkpt>
      <trkpt lat="45.28588" lon="5.87348">
        <ele>353.44000244141</ele>
        <time>2017-09-17T06:16:41Z</time>
      </trkpt>
      <trkpt lat="45.28582" lon="5.87347">
        <ele>352.44000244141</ele>
        <time>2017-09-17T06:16:43Z</time>
      </trkpt>
      <trkpt lat="45.28577" lon="5.87347">
        <ele>351.44000244141</ele>
        <time>2017-09-17T06:16:45Z</time>
      </trkpt>
      <trkpt lat="45.28572" lon="5.87347">
        <ele>348.44000244141</ele>
        <time>2017-09-17T06:16:47Z</time>
      </trkpt>
      <trkpt lat="45.28564" lon="5.87347">
        <ele>348.44000244141</ele>
        <time>2017-09-17T06:16:50Z</time>
      </trkpt>
      <trkpt lat="45.28558" lon="5.87347">
        <ele>346.44000244141</ele>
        <time>2017-09-17T06:16:51Z</time>
      </trkpt>
      <trkpt lat="45.2855" lon="5.87345">
        <ele>345.44000244141</ele>
        <time>2017-09-17T06:16:53Z</time>
      </trkpt>
      <trkpt lat="45.28545" lon="5.87344">
        <ele>344.44000244141</ele>
        <time>2017-09-17T06:16:54Z</time>
      </trkpt>
      <trkpt lat="45.28538" lon="5.87343">
        <ele>345.44000244141</ele>
        <time>2017-09-17T06:16:56Z</time>
      </trkpt>
      <trkpt lat="45.28533" lon="5.87342">
        <ele>344.44000244141</ele>
        <time>2017-09-17T06:16:58Z</time>
      </trkpt>
      <trkpt lat="45.28527" lon="5.87342">
        <ele>342.44000244141</ele>
        <time>2017-09-17T06:17:00Z</time>
      </trkpt>
      <trkpt lat="45.2852" lon="5.87339">
        <ele>344.44000244141</ele>
        <time>2017-09-17T06:17:02Z</time>
      </trkpt>
      <trkpt lat="45.28515" lon="5.87337">
        <ele>344.44000244141</ele>
        <time>2017-09-17T06:17:04Z</time>
      </trkpt>
      <trkpt lat="45.28509" lon="5.87333">
        <ele>344.44000244141</ele>
        <time>2017-09-17T06:17:06Z</time>
      </trkpt>
      <trkpt lat="45.28503" lon="5.87329">
        <ele>341.44000244141</ele>
        <time>2017-09-17T06:17:08Z</time>
      </trkpt>
      <trkpt lat="45.28497" lon="5.87324">
        <ele>346.44000244141</ele>
        <time>2017-09-17T06:17:10Z</time>
      </trkpt>
      <trkpt lat="45.28492" lon="5.87323">
        <ele>346.44000244141</ele>
        <time>2017-09-17T06:17:12Z</time>
      </trkpt>
      <trkpt lat="45.28489" lon="5.87318">
        <ele>344.44000244141</ele>
        <time>2017-09-17T06:17:14Z</time>
      </trkpt>
      <trkpt lat="45.28483" lon="5.87313">
        <ele>343.44000244141</ele>
        <time>2017-09-17T06:17:16Z</time>
      </trkpt>
      <trkpt lat="45.28479" lon="5.87309">
        <ele>343.44000244141</ele>
        <time>2017-09-17T06:17:18Z</time>
      </trkpt>
      <trkpt lat="45.28474" lon="5.87308">
        <ele>346.44000244141</ele>
        <time>2017-09-17T06:17:20Z</time>
      </trkpt>
      <trkpt lat="45.28469" lon="5.87304">
        <ele>346.44000244141</ele>
        <time>2017-09-17T06:17:22Z</time>
      </trkpt>
      <trkpt lat="45.28464" lon="5.87298">
        <ele>348.44000244141</ele>
        <time>2017-09-17T06:17:24Z</time>
      </trkpt>
      <trkpt lat="45.28457" lon="5.87293">
        <ele>347.44000244141</ele>
        <time>2017-09-17T06:17:26Z</time>
      </trkpt>
      <trkpt lat="45.28454" lon="5.87286">
        <ele>345.44000244141</ele>
        <time>2017-09-17T06:17:27Z</time>
      </trkpt>
      <trkpt lat="45.28448" lon="5.87278">
        <ele>346.44000244141</ele>
        <time>2017-09-17T06:17:29Z</time>
      </trkpt>
      <trkpt lat="45.28445" lon="5.87271">
        <ele>343.44000244141</ele>
        <time>2017-09-17T06:17:31Z</time>
      </trkpt>
      <trkpt lat="45.28441" lon="5.87268">
        <ele>345.44000244141</ele>
        <time>2017-09-17T06:17:33Z</time>
      </trkpt>
      <trkpt lat="45.28436" lon="5.87261">
        <ele>344.44000244141</ele>
        <time>2017-09-17T06:17:34Z</time>
      </trkpt>
      <trkpt lat="45.28432" lon="5.87258">
        <ele>344.44000244141</ele>
        <time>2017-09-17T06:17:35Z</time>
      </trkpt>
      <trkpt lat="45.28426" lon="5.87253">
        <ele>340.44000244141</ele>
        <time>2017-09-17T06:17:37Z</time>
      </trkpt>
      <trkpt lat="45.28418" lon="5.87249">
        <ele>337.44000244141</ele>
        <time>2017-09-17T06:17:39Z</time>
      </trkpt>
      <trkpt lat="45.28412" lon="5.87246">
        <ele>335.44000244141</ele>
        <time>2017-09-17T06:17:41Z</time>
      </trkpt>
      <trkpt lat="45.28406" lon="5.87238">
        <ele>337.43899536133</ele>
        <time>2017-09-17T06:17:43Z</time>
      </trkpt>
      <trkpt lat="45.28401" lon="5.87234">
        <ele>339.43899536133</ele>
        <time>2017-09-17T06:17:45Z</time>
      </trkpt>
      <trkpt lat="45.28395" lon="5.87233">
        <ele>341.43899536133</ele>
        <time>2017-09-17T06:17:47Z</time>
      </trkpt>
      <trkpt lat="45.28389" lon="5.87229">
        <ele>342.43899536133</ele>
        <time>2017-09-17T06:17:49Z</time>
      </trkpt>
      <trkpt lat="45.28385" lon="5.87224">
        <ele>343.43899536133</ele>
        <time>2017-09-17T06:17:51Z</time>
      </trkpt>
      <trkpt lat="45.2838" lon="5.8722">
        <ele>344.43899536133</ele>
        <time>2017-09-17T06:17:54Z</time>
      </trkpt>
      <trkpt lat="45.28374" lon="5.87222">
        <ele>345.43899536133</ele>
        <time>2017-09-17T06:17:56Z</time>
      </trkpt>
      <trkpt lat="45.28363" lon="5.87226">
        <ele>342.43899536133</ele>
        <time>2017-09-17T06:17:58Z</time>
      </trkpt>
      <trkpt lat="45.28357" lon="5.87224">
        <ele>343.43899536133</ele>
        <time>2017-09-17T06:18:00Z</time>
      </trkpt>
      <trkpt lat="45.28352" lon="5.87221">
        <ele>344.43899536133</ele>
        <time>2017-09-17T06:18:02Z</time>
      </trkpt>
      <trkpt lat="45.2835" lon="5.87215">
        <ele>340.43899536133</ele>
        <time>2017-09-17T06:18:05Z</time>
      </trkpt>
      <trkpt lat="45.28351" lon="5.87206">
        <ele>342.43899536133</ele>
        <time>2017-09-17T06:18:08Z</time>
      </trkpt>
      <trkpt lat="45.28349" lon="5.87199">
        <ele>343.43899536133</ele>
        <time>2017-09-17T06:18:11Z</time>
      </trkpt>
      <trkpt lat="45.28348" lon="5.87191">
        <ele>345.43899536133</ele>
        <time>2017-09-17T06:18:14Z</time>
      </trkpt>
      <trkpt lat="45.28349" lon="5.87184">
        <ele>343.43899536133</ele>
        <time>2017-09-17T06:18:17Z</time>
      </trkpt>
      <trkpt lat="45.28345" lon="5.87182">
        <ele>347.43899536133</ele>
        <time>2017-09-17T06:18:20Z</time>
      </trkpt>
      <trkpt lat="45.28342" lon="5.87175">
        <ele>347.43899536133</ele>
        <time>2017-09-17T06:18:23Z</time>
      </trkpt>
      <trkpt lat="45.28338" lon="5.87171">
        <ele>296.43899536133</ele>
        <time>2017-09-17T06:18:26Z</time>
      </trkpt>
      <trkpt lat="45.28336" lon="5.87165">
        <ele>310.43899536133</ele>
        <time>2017-09-17T06:18:28Z</time>
      </trkpt>
      <trkpt lat="45.28332" lon="5.87161">
        <ele>329.43899536133</ele>
        <time>2017-09-17T06:18:31Z</time>
      </trkpt>
      <trkpt lat="45.28328" lon="5.87156">
        <ele>335.43899536133</ele>
        <time>2017-09-17T06:18:33Z</time>
      </trkpt>
      <trkpt lat="45.28324" lon="5.87153">
        <ele>339.43899536133</ele>
        <time>2017-09-17T06:18:37Z</time>
      </trkpt>
      <trkpt lat="45.28321" lon="5.87145">
        <ele>339.43899536133</ele>
        <time>2017-09-17T06:18:40Z</time>
      </trkpt>
      <trkpt lat="45.28318" lon="5.87139">
        <ele>340.43899536133</ele>
        <time>2017-09-17T06:18:42Z</time>
      </trkpt>
      <trkpt lat="45.28316" lon="5.87132">
        <ele>344.43899536133</ele>
        <time>2017-09-17T06:18:45Z</time>
      </trkpt>
      <trkpt lat="45.28314" lon="5.87126">
        <ele>343.43899536133</ele>
        <time>2017-09-17T06:18:47Z</time>
      </trkpt>
      <trkpt lat="45.28309" lon="5.87122">
        <ele>347.43899536133</ele>
        <time>2017-09-17T06:18:50Z</time>
      </trkpt>
      <trkpt lat="45.28308" lon="5.87115">
        <ele>350.43899536133</ele>
        <time>2017-09-17T06:18:54Z</time>
      </trkpt>
      <trkpt lat="45.28306" lon="5.87106">
        <ele>351.43899536133</ele>
        <time>2017-09-17T06:18:57Z</time>
      </trkpt>
      <trkpt lat="45.28304" lon="5.87101">
        <ele>353.43899536133</ele>
        <time>2017-09-17T06:19:00Z</time>
      </trkpt>
      <trkpt lat="45.28303" lon="5.87093">
        <ele>351.43899536133</ele>
        <time>2017-09-17T06:19:02Z</time>
      </trkpt>
      <trkpt lat="45.28301" lon="5.87086">
        <ele>352.43899536133</ele>
        <time>2017-09-17T06:19:05Z</time>
      </trkpt>
      <trkpt lat="45.28298" lon="5.87069">
        <ele>357.43899536133</ele>
        <time>2017-09-17T06:19:11Z</time>
      </trkpt>
      <trkpt lat="45.28296" lon="5.87061">
        <ele>359.43899536133</ele>
        <time>2017-09-17T06:19:14Z</time>
      </trkpt>
      <trkpt lat="45.28293" lon="5.87056">
        <ele>360.43899536133</ele>
        <time>2017-09-17T06:19:17Z</time>
      </trkpt>
      <trkpt lat="45.28289" lon="5.87049">
        <ele>360.43899536133</ele>
        <time>2017-09-17T06:19:19Z</time>
      </trkpt>
      <trkpt lat="45.28286" lon="5.87041">
        <ele>361.43899536133</ele>
        <time>2017-09-17T06:19:22Z</time>
      </trkpt>
      <trkpt lat="45.28283" lon="5.87035">
        <ele>363.43899536133</ele>
        <time>2017-09-17T06:19:24Z</time>
      </trkpt>
      <trkpt lat="45.28281" lon="5.87028">
        <ele>360.43899536133</ele>
        <time>2017-09-17T06:19:26Z</time>
      </trkpt>
      <trkpt lat="45.28279" lon="5.87022">
        <ele>363.43899536133</ele>
        <time>2017-09-17T06:19:28Z</time>
      </trkpt>
      <trkpt lat="45.28276" lon="5.87017">
        <ele>360.43899536133</ele>
        <time>2017-09-17T06:19:31Z</time>
      </trkpt>
      <trkpt lat="45.28274" lon="5.8701">
        <ele>361.43899536133</ele>
        <time>2017-09-17T06:19:36Z</time>
      </trkpt>
      <trkpt lat="45.28271" lon="5.87004">
        <ele>363.43899536133</ele>
        <time>2017-09-17T06:19:39Z</time>
      </trkpt>
      <trkpt lat="45.2827" lon="5.86995">
        <ele>362.43899536133</ele>
        <time>2017-09-17T06:19:42Z</time>
      </trkpt>
      <trkpt lat="45.28269" lon="5.86987">
        <ele>362.43899536133</ele>
        <time>2017-09-17T06:19:44Z</time>
      </trkpt>
      <trkpt lat="45.28268" lon="5.8698">
        <ele>361.43899536133</ele>
        <time>2017-09-17T06:19:47Z</time>
      </trkpt>
      <trkpt lat="45.28265" lon="5.86975">
        <ele>362.43899536133</ele>
        <time>2017-09-17T06:19:49Z</time>
      </trkpt>
      <trkpt lat="45.28262" lon="5.8697">
        <ele>364.43899536133</ele>
        <time>2017-09-17T06:19:51Z</time>
      </trkpt>
      <trkpt lat="45.28257" lon="5.86959">
        <ele>364.43899536133</ele>
        <time>2017-09-17T06:19:54Z</time>
      </trkpt>
      <trkpt lat="45.28254" lon="5.86952">
        <ele>365.43899536133</ele>
        <time>2017-09-17T06:19:56Z</time>
      </trkpt>
      <trkpt lat="45.2825" lon="5.86946">
        <ele>364.43899536133</ele>
        <time>2017-09-17T06:19:58Z</time>
      </trkpt>
      <trkpt lat="45.28246" lon="5.8694">
        <ele>366.43899536133</ele>
        <time>2017-09-17T06:20:01Z</time>
      </trkpt>
      <trkpt lat="45.28243" lon="5.86932">
        <ele>367.43899536133</ele>
        <time>2017-09-17T06:20:03Z</time>
      </trkpt>
      <trkpt lat="45.28239" lon="5.86926">
        <ele>369.43899536133</ele>
        <time>2017-09-17T06:20:06Z</time>
      </trkpt>
      <trkpt lat="45.28237" lon="5.86919">
        <ele>368.43899536133</ele>
        <time>2017-09-17T06:20:08Z</time>
      </trkpt>
      <trkpt lat="45.28233" lon="5.86912">
        <ele>365.43899536133</ele>
        <time>2017-09-17T06:20:11Z</time>
      </trkpt>
      <trkpt lat="45.2823" lon="5.86906">
        <ele>365.43899536133</ele>
        <time>2017-09-17T06:20:15Z</time>
      </trkpt>
      <trkpt lat="45.28229" lon="5.86897">
        <ele>362.43899536133</ele>
        <time>2017-09-17T06:20:18Z</time>
      </trkpt>
      <trkpt lat="45.28224" lon="5.86884">
        <ele>359.43899536133</ele>
        <time>2017-09-17T06:20:25Z</time>
      </trkpt>
      <trkpt lat="45.28219" lon="5.86878">
        <ele>361.43899536133</ele>
        <time>2017-09-17T06:20:28Z</time>
      </trkpt>
      <trkpt lat="45.28215" lon="5.86872">
        <ele>359.43899536133</ele>
        <time>2017-09-17T06:20:31Z</time>
      </trkpt>
      <trkpt lat="45.28211" lon="5.86867">
        <ele>360.43899536133</ele>
        <time>2017-09-17T06:20:34Z</time>
      </trkpt>
      <trkpt lat="45.28207" lon="5.8686">
        <ele>360.43899536133</ele>
        <time>2017-09-17T06:20:37Z</time>
      </trkpt>
      <trkpt lat="45.28203" lon="5.86855">
        <ele>362.43899536133</ele>
        <time>2017-09-17T06:20:40Z</time>
      </trkpt>
      <trkpt lat="45.28198" lon="5.86849">
        <ele>365.43899536133</ele>
        <time>2017-09-17T06:20:43Z</time>
      </trkpt>
      <trkpt lat="45.28193" lon="5.86844">
        <ele>369.43899536133</ele>
        <time>2017-09-17T06:20:46Z</time>
      </trkpt>
      <trkpt lat="45.28189" lon="5.86837">
        <ele>371.43798828125</ele>
        <time>2017-09-17T06:20:49Z</time>
      </trkpt>
      <trkpt lat="45.28186" lon="5.86832">
        <ele>374.43798828125</ele>
        <time>2017-09-17T06:20:51Z</time>
      </trkpt>
      <trkpt lat="45.28182" lon="5.86824">
        <ele>375.43798828125</ele>
        <time>2017-09-17T06:20:54Z</time>
      </trkpt>
      <trkpt lat="45.28179" lon="5.86818">
        <ele>377.43798828125</ele>
        <time>2017-09-17T06:20:57Z</time>
      </trkpt>
      <trkpt lat="45.28176" lon="5.86811">
        <ele>376.43798828125</ele>
        <time>2017-09-17T06:21:00Z</time>
      </trkpt>
      <trkpt lat="45.28171" lon="5.86807">
        <ele>381.43798828125</ele>
        <time>2017-09-17T06:21:03Z</time>
      </trkpt>
      <trkpt lat="45.2817" lon="5.86801">
        <ele>381.43798828125</ele>
        <time>2017-09-17T06:21:06Z</time>
      </trkpt>
      <trkpt lat="45.28172" lon="5.86794">
        <ele>383.43798828125</ele>
        <time>2017-09-17T06:21:09Z</time>
      </trkpt>
      <trkpt lat="45.28177" lon="5.86794">
        <ele>379.43798828125</ele>
        <time>2017-09-17T06:21:13Z</time>
      </trkpt>
      <trkpt lat="45.28183" lon="5.86798">
        <ele>377.43798828125</ele>
        <time>2017-09-17T06:21:16Z</time>
      </trkpt>
      <trkpt lat="45.28188" lon="5.868">
        <ele>376.43798828125</ele>
        <time>2017-09-17T06:21:18Z</time>
      </trkpt>
      <trkpt lat="45.28193" lon="5.86803">
        <ele>372.43798828125</ele>
        <time>2017-09-17T06:21:21Z</time>
      </trkpt>
      <trkpt lat="45.28198" lon="5.86806">
        <ele>370.43798828125</ele>
        <time>2017-09-17T06:21:24Z</time>
      </trkpt>
      <trkpt lat="45.28203" lon="5.86804">
        <ele>371.43798828125</ele>
        <time>2017-09-17T06:21:28Z</time>
      </trkpt>
      <trkpt lat="45.28201" lon="5.86799">
        <ele>371.43798828125</ele>
        <time>2017-09-17T06:21:33Z</time>
      </trkpt>
      <trkpt lat="45.28197" lon="5.86795">
        <ele>374.43798828125</ele>
        <time>2017-09-17T06:21:37Z</time>
      </trkpt>
      <trkpt lat="45.28193" lon="5.86791">
        <ele>375.43798828125</ele>
        <time>2017-09-17T06:21:39Z</time>
      </trkpt>
      <trkpt lat="45.28188" lon="5.86785">
        <ele>378.43798828125</ele>
        <time>2017-09-17T06:21:42Z</time>
      </trkpt>
      <trkpt lat="45.28184" lon="5.8678">
        <ele>381.43798828125</ele>
        <time>2017-09-17T06:21:45Z</time>
      </trkpt>
      <trkpt lat="45.28181" lon="5.86772">
        <ele>374.43798828125</ele>
        <time>2017-09-17T06:21:49Z</time>
      </trkpt>
      <trkpt lat="45.28178" lon="5.86763">
        <ele>373.43798828125</ele>
        <time>2017-09-17T06:21:51Z</time>
      </trkpt>
      <trkpt lat="45.28175" lon="5.86757">
        <ele>373.43798828125</ele>
        <time>2017-09-17T06:21:55Z</time>
      </trkpt>
      <trkpt lat="45.28171" lon="5.8675">
        <ele>376.43798828125</ele>
        <time>2017-09-17T06:21:58Z</time>
      </trkpt>
      <trkpt lat="45.28168" lon="5.86744">
        <ele>376.43798828125</ele>
        <time>2017-09-17T06:22:01Z</time>
      </trkpt>
      <trkpt lat="45.28164" lon="5.86735">
        <ele>377.43798828125</ele>
        <time>2017-09-17T06:22:05Z</time>
      </trkpt>
      <trkpt lat="45.2816" lon="5.86728">
        <ele>378.43798828125</ele>
        <time>2017-09-17T06:22:07Z</time>
      </trkpt>
      <trkpt lat="45.28156" lon="5.86722">
        <ele>380.43798828125</ele>
        <time>2017-09-17T06:22:09Z</time>
      </trkpt>
      <trkpt lat="45.28153" lon="5.86715">
        <ele>382.43798828125</ele>
        <time>2017-09-17T06:22:11Z</time>
      </trkpt>
      <trkpt lat="45.2815" lon="5.86707">
        <ele>384.43798828125</ele>
        <time>2017-09-17T06:22:13Z</time>
      </trkpt>
      <trkpt lat="45.28145" lon="5.86701">
        <ele>382.43798828125</ele>
        <time>2017-09-17T06:22:16Z</time>
      </trkpt>
      <trkpt lat="45.28141" lon="5.86696">
        <ele>383.43798828125</ele>
        <time>2017-09-17T06:22:19Z</time>
      </trkpt>
      <trkpt lat="45.28132" lon="5.8669">
        <ele>387.43798828125</ele>
        <time>2017-09-17T06:22:23Z</time>
      </trkpt>
      <trkpt lat="45.28127" lon="5.86685">
        <ele>388.43798828125</ele>
        <time>2017-09-17T06:22:25Z</time>
      </trkpt>
      <trkpt lat="45.28122" lon="5.86679">
        <ele>389.43798828125</ele>
        <time>2017-09-17T06:22:27Z</time>
      </trkpt>
      <trkpt lat="45.28118" lon="5.86673">
        <ele>392.43798828125</ele>
        <time>2017-09-17T06:22:29Z</time>
      </trkpt>
      <trkpt lat="45.28115" lon="5.86667">
        <ele>395.43798828125</ele>
        <time>2017-09-17T06:22:32Z</time>
      </trkpt>
      <trkpt lat="45.28114" lon="5.86657">
        <ele>394.43798828125</ele>
        <time>2017-09-17T06:22:35Z</time>
      </trkpt>
      <trkpt lat="45.28112" lon="5.86651">
        <ele>396.43798828125</ele>
        <time>2017-09-17T06:22:38Z</time>
      </trkpt>
      <trkpt lat="45.28111" lon="5.86642">
        <ele>396.43798828125</ele>
        <time>2017-09-17T06:22:41Z</time>
      </trkpt>
      <trkpt lat="45.28111" lon="5.86635">
        <ele>391.43798828125</ele>
        <time>2017-09-17T06:22:44Z</time>
      </trkpt>
      <trkpt lat="45.28108" lon="5.86629">
        <ele>389.43798828125</ele>
        <time>2017-09-17T06:22:48Z</time>
      </trkpt>
      <trkpt lat="45.28106" lon="5.8662">
        <ele>386.43798828125</ele>
        <time>2017-09-17T06:22:51Z</time>
      </trkpt>
      <trkpt lat="45.28103" lon="5.86614">
        <ele>388.43798828125</ele>
        <time>2017-09-17T06:22:56Z</time>
      </trkpt>
      <trkpt lat="45.28098" lon="5.8661">
        <ele>388.43798828125</ele>
        <time>2017-09-17T06:23:00Z</time>
      </trkpt>
      <trkpt lat="45.2809" lon="5.86607">
        <ele>392.43798828125</ele>
        <time>2017-09-17T06:23:02Z</time>
      </trkpt>
      <trkpt lat="45.2808" lon="5.86597">
        <ele>390.43798828125</ele>
        <time>2017-09-17T06:23:04Z</time>
      </trkpt>
      <trkpt lat="45.28072" lon="5.86591">
        <ele>387.43798828125</ele>
        <time>2017-09-17T06:23:06Z</time>
      </trkpt>
      <trkpt lat="45.28064" lon="5.86574">
        <ele>387.43798828125</ele>
        <time>2017-09-17T06:23:09Z</time>
      </trkpt>
      <trkpt lat="45.28059" lon="5.86567">
        <ele>390.43798828125</ele>
        <time>2017-09-17T06:23:13Z</time>
      </trkpt>
      <trkpt lat="45.28058" lon="5.8656">
        <ele>388.43798828125</ele>
        <time>2017-09-17T06:23:14Z</time>
      </trkpt>
      <trkpt lat="45.28054" lon="5.86552">
        <ele>387.43798828125</ele>
        <time>2017-09-17T06:23:17Z</time>
      </trkpt>
      <trkpt lat="45.2805" lon="5.86547">
        <ele>388.43798828125</ele>
        <time>2017-09-17T06:23:19Z</time>
      </trkpt>
      <trkpt lat="45.28046" lon="5.8654">
        <ele>389.43798828125</ele>
        <time>2017-09-17T06:23:21Z</time>
      </trkpt>
      <trkpt lat="45.28045" lon="5.86532">
        <ele>386.43798828125</ele>
        <time>2017-09-17T06:23:22Z</time>
      </trkpt>
      <trkpt lat="45.28044" lon="5.86523">
        <ele>382.43798828125</ele>
        <time>2017-09-17T06:23:24Z</time>
      </trkpt>
      <trkpt lat="45.28038" lon="5.86514">
        <ele>382.43798828125</ele>
        <time>2017-09-17T06:23:26Z</time>
      </trkpt>
      <trkpt lat="45.28035" lon="5.86509">
        <ele>379.43798828125</ele>
        <time>2017-09-17T06:23:28Z</time>
      </trkpt>
      <trkpt lat="45.28032" lon="5.86501">
        <ele>378.43798828125</ele>
        <time>2017-09-17T06:23:30Z</time>
      </trkpt>
      <trkpt lat="45.28029" lon="5.86494">
        <ele>379.43798828125</ele>
        <time>2017-09-17T06:23:32Z</time>
      </trkpt>
      <trkpt lat="45.28027" lon="5.86484">
        <ele>378.43798828125</ele>
        <time>2017-09-17T06:23:34Z</time>
      </trkpt>
      <trkpt lat="45.28021" lon="5.86479">
        <ele>378.43798828125</ele>
        <time>2017-09-17T06:23:36Z</time>
      </trkpt>
      <trkpt lat="45.28018" lon="5.86473">
        <ele>377.43798828125</ele>
        <time>2017-09-17T06:23:38Z</time>
      </trkpt>
      <trkpt lat="45.28016" lon="5.86466">
        <ele>377.43798828125</ele>
        <time>2017-09-17T06:23:40Z</time>
      </trkpt>
      <trkpt lat="45.28012" lon="5.86459">
        <ele>379.43798828125</ele>
        <time>2017-09-17T06:23:42Z</time>
      </trkpt>
      <trkpt lat="45.2801" lon="5.86452">
        <ele>380.43798828125</ele>
        <time>2017-09-17T06:23:44Z</time>
      </trkpt>
      <trkpt lat="45.28006" lon="5.86445">
        <ele>378.43798828125</ele>
        <time>2017-09-17T06:23:47Z</time>
      </trkpt>
      <trkpt lat="45.28003" lon="5.86437">
        <ele>380.43798828125</ele>
        <time>2017-09-17T06:23:50Z</time>
      </trkpt>
      <trkpt lat="45.28" lon="5.86428">
        <ele>382.43798828125</ele>
        <time>2017-09-17T06:23:53Z</time>
      </trkpt>
      <trkpt lat="45.27998" lon="5.86422">
        <ele>381.43798828125</ele>
        <time>2017-09-17T06:23:55Z</time>
      </trkpt>
      <trkpt lat="45.27996" lon="5.86414">
        <ele>381.43798828125</ele>
        <time>2017-09-17T06:23:57Z</time>
      </trkpt>
      <trkpt lat="45.27994" lon="5.86407">
        <ele>382.43798828125</ele>
        <time>2017-09-17T06:23:59Z</time>
      </trkpt>
      <trkpt lat="45.27992" lon="5.86399">
        <ele>383.43701171875</ele>
        <time>2017-09-17T06:24:02Z</time>
      </trkpt>
      <trkpt lat="45.27987" lon="5.86392">
        <ele>384.43701171875</ele>
        <time>2017-09-17T06:24:05Z</time>
      </trkpt>
      <trkpt lat="45.27984" lon="5.86387">
        <ele>386.43701171875</ele>
        <time>2017-09-17T06:24:07Z</time>
      </trkpt>
      <trkpt lat="45.27965" lon="5.86355">
        <ele>386.43701171875</ele>
        <time>2017-09-17T06:24:20Z</time>
      </trkpt>
      <trkpt lat="45.27965" lon="5.86348">
        <ele>378.43701171875</ele>
        <time>2017-09-17T06:24:24Z</time>
      </trkpt>
      <trkpt lat="45.27965" lon="5.86341">
        <ele>377.43701171875</ele>
        <time>2017-09-17T06:24:27Z</time>
      </trkpt>
      <trkpt lat="45.27962" lon="5.86334">
        <ele>377.43701171875</ele>
        <time>2017-09-17T06:24:30Z</time>
      </trkpt>
      <trkpt lat="45.27959" lon="5.86326">
        <ele>379.43701171875</ele>
        <time>2017-09-17T06:24:33Z</time>
      </trkpt>
      <trkpt lat="45.27955" lon="5.86319">
        <ele>381.43701171875</ele>
        <time>2017-09-17T06:24:36Z</time>
      </trkpt>
      <trkpt lat="45.27952" lon="5.86311">
        <ele>382.43701171875</ele>
        <time>2017-09-17T06:24:39Z</time>
      </trkpt>
      <trkpt lat="45.2795" lon="5.86305">
        <ele>383.43701171875</ele>
        <time>2017-09-17T06:24:41Z</time>
      </trkpt>
      <trkpt lat="45.27947" lon="5.86299">
        <ele>383.43701171875</ele>
        <time>2017-09-17T06:24:43Z</time>
      </trkpt>
      <trkpt lat="45.27946" lon="5.86291">
        <ele>385.43701171875</ele>
        <time>2017-09-17T06:24:46Z</time>
      </trkpt>
      <trkpt lat="45.27943" lon="5.86284">
        <ele>386.43701171875</ele>
        <time>2017-09-17T06:24:49Z</time>
      </trkpt>
      <trkpt lat="45.2794" lon="5.86277">
        <ele>388.43701171875</ele>
        <time>2017-09-17T06:24:52Z</time>
      </trkpt>
      <trkpt lat="45.27938" lon="5.86268">
        <ele>390.43701171875</ele>
        <time>2017-09-17T06:24:55Z</time>
      </trkpt>
      <trkpt lat="45.27934" lon="5.86261">
        <ele>392.43701171875</ele>
        <time>2017-09-17T06:24:58Z</time>
      </trkpt>
      <trkpt lat="45.27931" lon="5.86252">
        <ele>393.43701171875</ele>
        <time>2017-09-17T06:25:01Z</time>
      </trkpt>
      <trkpt lat="45.27929" lon="5.86246">
        <ele>393.43701171875</ele>
        <time>2017-09-17T06:25:03Z</time>
      </trkpt>
      <trkpt lat="45.27928" lon="5.86239">
        <ele>394.43701171875</ele>
        <time>2017-09-17T06:25:06Z</time>
      </trkpt>
      <trkpt lat="45.27927" lon="5.86232">
        <ele>395.43701171875</ele>
        <time>2017-09-17T06:25:08Z</time>
      </trkpt>
      <trkpt lat="45.27926" lon="5.86224">
        <ele>396.43701171875</ele>
        <time>2017-09-17T06:25:10Z</time>
      </trkpt>
      <trkpt lat="45.27924" lon="5.8621">
        <ele>398.43701171875</ele>
        <time>2017-09-17T06:25:14Z</time>
      </trkpt>
      <trkpt lat="45.27924" lon="5.86201">
        <ele>400.43701171875</ele>
        <time>2017-09-17T06:25:17Z</time>
      </trkpt>
      <trkpt lat="45.27923" lon="5.86193">
        <ele>400.43701171875</ele>
        <time>2017-09-17T06:25:20Z</time>
      </trkpt>
      <trkpt lat="45.27921" lon="5.86184">
        <ele>403.43701171875</ele>
        <time>2017-09-17T06:25:24Z</time>
      </trkpt>
      <trkpt lat="45.27922" lon="5.86174">
        <ele>406.43701171875</ele>
        <time>2017-09-17T06:25:27Z</time>
      </trkpt>
      <trkpt lat="45.2792" lon="5.86167">
        <ele>408.43701171875</ele>
        <time>2017-09-17T06:25:30Z</time>
      </trkpt>
      <trkpt lat="45.27919" lon="5.8616">
        <ele>410.43701171875</ele>
        <time>2017-09-17T06:25:32Z</time>
      </trkpt>
      <trkpt lat="45.27918" lon="5.86153">
        <ele>413.43701171875</ele>
        <time>2017-09-17T06:25:35Z</time>
      </trkpt>
      <trkpt lat="45.27915" lon="5.86148">
        <ele>415.43701171875</ele>
        <time>2017-09-17T06:25:37Z</time>
      </trkpt>
      <trkpt lat="45.27914" lon="5.8614">
        <ele>418.43701171875</ele>
        <time>2017-09-17T06:25:40Z</time>
      </trkpt>
      <trkpt lat="45.27916" lon="5.8613">
        <ele>415.43701171875</ele>
        <time>2017-09-17T06:25:43Z</time>
      </trkpt>
      <trkpt lat="45.27914" lon="5.86124">
        <ele>412.43701171875</ele>
        <time>2017-09-17T06:25:46Z</time>
      </trkpt>
      <trkpt lat="45.27914" lon="5.86117">
        <ele>410.43701171875</ele>
        <time>2017-09-17T06:25:48Z</time>
      </trkpt>
      <trkpt lat="45.27914" lon="5.8611">
        <ele>409.43701171875</ele>
        <time>2017-09-17T06:25:50Z</time>
      </trkpt>
      <trkpt lat="45.27916" lon="5.86103">
        <ele>411.43701171875</ele>
        <time>2017-09-17T06:25:52Z</time>
      </trkpt>
      <trkpt lat="45.27916" lon="5.86094">
        <ele>410.43701171875</ele>
        <time>2017-09-17T06:25:55Z</time>
      </trkpt>
      <trkpt lat="45.27917" lon="5.86087">
        <ele>410.43701171875</ele>
        <time>2017-09-17T06:25:57Z</time>
      </trkpt>
      <trkpt lat="45.27918" lon="5.86078">
        <ele>407.43701171875</ele>
        <time>2017-09-17T06:26:00Z</time>
      </trkpt>
      <trkpt lat="45.27918" lon="5.86069">
        <ele>407.43701171875</ele>
        <time>2017-09-17T06:26:03Z</time>
      </trkpt>
      <trkpt lat="45.27918" lon="5.8606">
        <ele>408.43701171875</ele>
        <time>2017-09-17T06:26:06Z</time>
      </trkpt>
      <trkpt lat="45.27923" lon="5.8606">
        <ele>406.43701171875</ele>
        <time>2017-09-17T06:26:10Z</time>
      </trkpt>
      <trkpt lat="45.27926" lon="5.86067">
        <ele>406.43701171875</ele>
        <time>2017-09-17T06:26:13Z</time>
      </trkpt>
      <trkpt lat="45.27929" lon="5.86073">
        <ele>404.43701171875</ele>
        <time>2017-09-17T06:26:15Z</time>
      </trkpt>
      <trkpt lat="45.27933" lon="5.8608">
        <ele>403.43701171875</ele>
        <time>2017-09-17T06:26:18Z</time>
      </trkpt>
      <trkpt lat="45.27937" lon="5.86087">
        <ele>400.43701171875</ele>
        <time>2017-09-17T06:26:21Z</time>
      </trkpt>
      <trkpt lat="45.27942" lon="5.8609">
        <ele>400.43701171875</ele>
        <time>2017-09-17T06:26:25Z</time>
      </trkpt>
      <trkpt lat="45.27946" lon="5.86087">
        <ele>400.43701171875</ele>
        <time>2017-09-17T06:26:29Z</time>
      </trkpt>
      <trkpt lat="45.27945" lon="5.8608">
        <ele>401.43701171875</ele>
        <time>2017-09-17T06:26:33Z</time>
      </trkpt>
      <trkpt lat="45.27944" lon="5.86074">
        <ele>402.43701171875</ele>
        <time>2017-09-17T06:26:35Z</time>
      </trkpt>
      <trkpt lat="45.27945" lon="5.86068">
        <ele>405.43701171875</ele>
        <time>2017-09-17T06:26:37Z</time>
      </trkpt>
      <trkpt lat="45.27945" lon="5.86059">
        <ele>408.43701171875</ele>
        <time>2017-09-17T06:26:40Z</time>
      </trkpt>
      <trkpt lat="45.27945" lon="5.8605">
        <ele>411.43701171875</ele>
        <time>2017-09-17T06:26:43Z</time>
      </trkpt>
      <trkpt lat="45.27944" lon="5.86041">
        <ele>414.43701171875</ele>
        <time>2017-09-17T06:26:46Z</time>
      </trkpt>
      <trkpt lat="45.27943" lon="5.86033">
        <ele>417.43701171875</ele>
        <time>2017-09-17T06:26:49Z</time>
      </trkpt>
      <trkpt lat="45.27943" lon="5.86024">
        <ele>421.43701171875</ele>
        <time>2017-09-17T06:26:52Z</time>
      </trkpt>
      <trkpt lat="45.27942" lon="5.86016">
        <ele>421.43701171875</ele>
        <time>2017-09-17T06:26:55Z</time>
      </trkpt>
      <trkpt lat="45.27941" lon="5.86008">
        <ele>419.43701171875</ele>
        <time>2017-09-17T06:26:58Z</time>
      </trkpt>
      <trkpt lat="45.2794" lon="5.86001">
        <ele>418.43701171875</ele>
        <time>2017-09-17T06:27:01Z</time>
      </trkpt>
      <trkpt lat="45.27938" lon="5.85994">
        <ele>422.43701171875</ele>
        <time>2017-09-17T06:27:04Z</time>
      </trkpt>
      <trkpt lat="45.27938" lon="5.85986">
        <ele>423.43701171875</ele>
        <time>2017-09-17T06:27:07Z</time>
      </trkpt>
      <trkpt lat="45.27938" lon="5.85979">
        <ele>422.43701171875</ele>
        <time>2017-09-17T06:27:10Z</time>
      </trkpt>
      <trkpt lat="45.27937" lon="5.85971">
        <ele>423.43701171875</ele>
        <time>2017-09-17T06:27:13Z</time>
      </trkpt>
      <trkpt lat="45.27937" lon="5.85963">
        <ele>421.43701171875</ele>
        <time>2017-09-17T06:27:16Z</time>
      </trkpt>
      <trkpt lat="45.27936" lon="5.85954">
        <ele>423.43701171875</ele>
        <time>2017-09-17T06:27:19Z</time>
      </trkpt>
      <trkpt lat="45.27935" lon="5.85948">
        <ele>425.43701171875</ele>
        <time>2017-09-17T06:27:22Z</time>
      </trkpt>
      <trkpt lat="45.27935" lon="5.85938">
        <ele>427.43701171875</ele>
        <time>2017-09-17T06:27:25Z</time>
      </trkpt>
      <trkpt lat="45.27936" lon="5.85929">
        <ele>426.43701171875</ele>
        <time>2017-09-17T06:27:28Z</time>
      </trkpt>
      <trkpt lat="45.2794" lon="5.85924">
        <ele>426.43701171875</ele>
        <time>2017-09-17T06:27:32Z</time>
      </trkpt>
      <trkpt lat="45.27943" lon="5.8592">
        <ele>428.43701171875</ele>
        <time>2017-09-17T06:27:39Z</time>
      </trkpt>
      <trkpt lat="45.27946" lon="5.85915">
        <ele>426.43701171875</ele>
        <time>2017-09-17T06:27:47Z</time>
      </trkpt>
      <trkpt lat="45.27949" lon="5.85909">
        <ele>427.43701171875</ele>
        <time>2017-09-17T06:28:20Z</time>
      </trkpt>
      <trkpt lat="45.27954" lon="5.85908">
        <ele>429.43701171875</ele>
        <time>2017-09-17T06:28:24Z</time>
      </trkpt>
      <trkpt lat="45.27959" lon="5.85905">
        <ele>429.43701171875</ele>
        <time>2017-09-17T06:28:28Z</time>
      </trkpt>
      <trkpt lat="45.27963" lon="5.85901">
        <ele>429.43701171875</ele>
        <time>2017-09-17T06:28:32Z</time>
      </trkpt>
      <trkpt lat="45.27967" lon="5.85897">
        <ele>430.43701171875</ele>
        <time>2017-09-17T06:28:36Z</time>
      </trkpt>
      <trkpt lat="45.2797" lon="5.85891">
        <ele>434.43701171875</ele>
        <time>2017-09-17T06:28:40Z</time>
      </trkpt>
      <trkpt lat="45.27974" lon="5.85887">
        <ele>435.43701171875</ele>
        <time>2017-09-17T06:28:45Z</time>
      </trkpt>
      <trkpt lat="45.27978" lon="5.85884">
        <ele>439.43701171875</ele>
        <time>2017-09-17T06:28:50Z</time>
      </trkpt>
      <trkpt lat="45.27983" lon="5.85882">
        <ele>439.43701171875</ele>
        <time>2017-09-17T06:28:55Z</time>
      </trkpt>
      <trkpt lat="45.27988" lon="5.85878">
        <ele>438.43701171875</ele>
        <time>2017-09-17T06:29:02Z</time>
      </trkpt>
      <trkpt lat="45.27993" lon="5.85875">
        <ele>437.43701171875</ele>
        <time>2017-09-17T06:29:10Z</time>
      </trkpt>
      <trkpt lat="45.27999" lon="5.85874">
        <ele>439.43701171875</ele>
        <time>2017-09-17T06:29:17Z</time>
      </trkpt>
      <trkpt lat="45.28002" lon="5.8587">
        <ele>445.43701171875</ele>
        <time>2017-09-17T06:29:31Z</time>
      </trkpt>
      <trkpt lat="45.28007" lon="5.85869">
        <ele>446.43701171875</ele>
        <time>2017-09-17T06:29:37Z</time>
      </trkpt>
      <trkpt lat="45.28011" lon="5.85865">
        <ele>450.43701171875</ele>
        <time>2017-09-17T06:29:43Z</time>
      </trkpt>
      <trkpt lat="45.28016" lon="5.85863">
        <ele>461.43701171875</ele>
        <time>2017-09-17T06:29:50Z</time>
      </trkpt>
      <trkpt lat="45.28021" lon="5.8586">
        <ele>464.43701171875</ele>
        <time>2017-09-17T06:30:03Z</time>
      </trkpt>
      <trkpt lat="45.28026" lon="5.85856">
        <ele>463.43701171875</ele>
        <time>2017-09-17T06:30:12Z</time>
      </trkpt>
      <trkpt lat="45.28029" lon="5.85851">
        <ele>466.43701171875</ele>
        <time>2017-09-17T06:30:19Z</time>
      </trkpt>
      <trkpt lat="45.28033" lon="5.85847">
        <ele>464.43701171875</ele>
        <time>2017-09-17T06:30:25Z</time>
      </trkpt>
      <trkpt lat="45.28036" lon="5.85843">
        <ele>465.43701171875</ele>
        <time>2017-09-17T06:30:33Z</time>
      </trkpt>
      <trkpt lat="45.28041" lon="5.85841">
        <ele>468.43701171875</ele>
        <time>2017-09-17T06:30:40Z</time>
      </trkpt>
      <trkpt lat="45.28046" lon="5.8584">
        <ele>468.43701171875</ele>
        <time>2017-09-17T06:30:45Z</time>
      </trkpt>
      <trkpt lat="45.28051" lon="5.85837">
        <ele>473.43701171875</ele>
        <time>2017-09-17T06:30:53Z</time>
      </trkpt>
      <trkpt lat="45.28055" lon="5.85835">
        <ele>472.43701171875</ele>
        <time>2017-09-17T06:31:00Z</time>
      </trkpt>
      <trkpt lat="45.2806" lon="5.85837">
        <ele>475.43701171875</ele>
        <time>2017-09-17T06:31:09Z</time>
      </trkpt>
      <trkpt lat="45.28065" lon="5.85836">
        <ele>482.43701171875</ele>
        <time>2017-09-17T06:31:22Z</time>
      </trkpt>
      <trkpt lat="45.2807" lon="5.85838">
        <ele>471.43701171875</ele>
        <time>2017-09-17T06:31:33Z</time>
      </trkpt>
      <trkpt lat="45.28074" lon="5.85841">
        <ele>495.43701171875</ele>
        <time>2017-09-17T06:31:43Z</time>
      </trkpt>
      <trkpt lat="45.28078" lon="5.85839">
        <ele>509.43701171875</ele>
        <time>2017-09-17T06:32:14Z</time>
      </trkpt>
      <trkpt lat="45.28081" lon="5.85833">
        <ele>504.43701171875</ele>
        <time>2017-09-17T06:32:20Z</time>
      </trkpt>
      <trkpt lat="45.28085" lon="5.85827">
        <ele>505.43701171875</ele>
        <time>2017-09-17T06:32:31Z</time>
      </trkpt>
      <trkpt lat="45.28086" lon="5.85819">
        <ele>506.43701171875</ele>
        <time>2017-09-17T06:32:37Z</time>
      </trkpt>
      <trkpt lat="45.28088" lon="5.85813">
        <ele>476.43701171875</ele>
        <time>2017-09-17T06:32:43Z</time>
      </trkpt>
      <trkpt lat="45.28088" lon="5.85806">
        <ele>507.43701171875</ele>
        <time>2017-09-17T06:32:48Z</time>
      </trkpt>
      <trkpt lat="45.28093" lon="5.85798">
        <ele>511.43701171875</ele>
        <time>2017-09-17T06:32:56Z</time>
      </trkpt>
      <trkpt lat="45.28096" lon="5.85792">
        <ele>510.43701171875</ele>
        <time>2017-09-17T06:32:58Z</time>
      </trkpt>
      <trkpt lat="45.28093" lon="5.85787">
        <ele>507.43701171875</ele>
        <time>2017-09-17T06:33:02Z</time>
      </trkpt>
      <trkpt lat="45.28094" lon="5.8578">
        <ele>507.43701171875</ele>
        <time>2017-09-17T06:33:09Z</time>
      </trkpt>
      <trkpt lat="45.28095" lon="5.85773">
        <ele>505.43701171875</ele>
        <time>2017-09-17T06:33:14Z</time>
      </trkpt>
      <trkpt lat="45.28098" lon="5.85766">
        <ele>508.43701171875</ele>
        <time>2017-09-17T06:33:20Z</time>
      </trkpt>
      <trkpt lat="45.28099" lon="5.8576">
        <ele>511.43701171875</ele>
        <time>2017-09-17T06:33:25Z</time>
      </trkpt>
      <trkpt lat="45.28101" lon="5.85753">
        <ele>513.43701171875</ele>
        <time>2017-09-17T06:33:32Z</time>
      </trkpt>
      <trkpt lat="45.28105" lon="5.85748">
        <ele>515.43701171875</ele>
        <time>2017-09-17T06:33:37Z</time>
      </trkpt>
      <trkpt lat="45.28109" lon="5.85744">
        <ele>520.43701171875</ele>
        <time>2017-09-17T06:33:43Z</time>
      </trkpt>
      <trkpt lat="45.28114" lon="5.85743">
        <ele>520.43701171875</ele>
        <time>2017-09-17T06:33:48Z</time>
      </trkpt>
      <trkpt lat="45.28117" lon="5.85738">
        <ele>520.43701171875</ele>
        <time>2017-09-17T06:33:53Z</time>
      </trkpt>
      <trkpt lat="45.28119" lon="5.85731">
        <ele>520.43701171875</ele>
        <time>2017-09-17T06:33:59Z</time>
      </trkpt>
      <trkpt lat="45.28118" lon="5.85724">
        <ele>523.43701171875</ele>
        <time>2017-09-17T06:34:04Z</time>
      </trkpt>
      <trkpt lat="45.28118" lon="5.85716">
        <ele>523.43701171875</ele>
        <time>2017-09-17T06:34:08Z</time>
      </trkpt>
      <trkpt lat="45.28118" lon="5.85709">
        <ele>524.43701171875</ele>
        <time>2017-09-17T06:34:12Z</time>
      </trkpt>
      <trkpt lat="45.28121" lon="5.85703">
        <ele>527.43701171875</ele>
        <time>2017-09-17T06:34:17Z</time>
      </trkpt>
      <trkpt lat="45.28122" lon="5.85696">
        <ele>529.43701171875</ele>
        <time>2017-09-17T06:34:22Z</time>
      </trkpt>
      <trkpt lat="45.28124" lon="5.85688">
        <ele>529.43701171875</ele>
        <time>2017-09-17T06:34:26Z</time>
      </trkpt>
      <trkpt lat="45.28126" lon="5.85681">
        <ele>529.43701171875</ele>
        <time>2017-09-17T06:34:30Z</time>
      </trkpt>
      <trkpt lat="45.28127" lon="5.85675">
        <ele>530.43701171875</ele>
        <time>2017-09-17T06:34:33Z</time>
      </trkpt>
      <trkpt lat="45.28129" lon="5.85667">
        <ele>530.43701171875</ele>
        <time>2017-09-17T06:34:37Z</time>
      </trkpt>
      <trkpt lat="45.2813" lon="5.8566">
        <ele>533.43701171875</ele>
        <time>2017-09-17T06:34:42Z</time>
      </trkpt>
      <trkpt lat="45.28131" lon="5.85654">
        <ele>534.43701171875</ele>
        <time>2017-09-17T06:34:46Z</time>
      </trkpt>
      <trkpt lat="45.2813" lon="5.85647">
        <ele>531.43701171875</ele>
        <time>2017-09-17T06:34:49Z</time>
      </trkpt>
      <trkpt lat="45.28128" lon="5.85639">
        <ele>535.43701171875</ele>
        <time>2017-09-17T06:34:55Z</time>
      </trkpt>
      <trkpt lat="45.2813" lon="5.85633">
        <ele>539.43701171875</ele>
        <time>2017-09-17T06:35:00Z</time>
      </trkpt>
      <trkpt lat="45.28129" lon="5.85626">
        <ele>531.43701171875</ele>
        <time>2017-09-17T06:35:05Z</time>
      </trkpt>
      <trkpt lat="45.28129" lon="5.85617">
        <ele>536.43701171875</ele>
        <time>2017-09-17T06:35:08Z</time>
      </trkpt>
      <trkpt lat="45.28132" lon="5.85607">
        <ele>535.43701171875</ele>
        <time>2017-09-17T06:35:10Z</time>
      </trkpt>
      <trkpt lat="45.28132" lon="5.85599">
        <ele>537.43701171875</ele>
        <time>2017-09-17T06:35:12Z</time>
      </trkpt>
      <trkpt lat="45.28135" lon="5.8559">
        <ele>537.43701171875</ele>
        <time>2017-09-17T06:35:15Z</time>
      </trkpt>
      <trkpt lat="45.28138" lon="5.85581">
        <ele>538.43701171875</ele>
        <time>2017-09-17T06:35:17Z</time>
      </trkpt>
      <trkpt lat="45.28142" lon="5.85575">
        <ele>540.43701171875</ele>
        <time>2017-09-17T06:35:22Z</time>
      </trkpt>
      <trkpt lat="45.28144" lon="5.85564">
        <ele>542.43701171875</ele>
        <time>2017-09-17T06:35:25Z</time>
      </trkpt>
      <trkpt lat="45.28146" lon="5.85557">
        <ele>542.43701171875</ele>
        <time>2017-09-17T06:35:27Z</time>
      </trkpt>
      <trkpt lat="45.28149" lon="5.85548">
        <ele>542.43701171875</ele>
        <time>2017-09-17T06:35:31Z</time>
      </trkpt>
      <trkpt lat="45.28151" lon="5.85541">
        <ele>541.43701171875</ele>
        <time>2017-09-17T06:35:34Z</time>
      </trkpt>
      <trkpt lat="45.28155" lon="5.85538">
        <ele>522.43701171875</ele>
        <time>2017-09-17T06:35:37Z</time>
      </trkpt>
      <trkpt lat="45.2816" lon="5.85533">
        <ele>532.43701171875</ele>
        <time>2017-09-17T06:35:41Z</time>
      </trkpt>
      <trkpt lat="45.28163" lon="5.85529">
        <ele>529.43701171875</ele>
        <time>2017-09-17T06:35:45Z</time>
      </trkpt>
      <trkpt lat="45.28166" lon="5.85523">
        <ele>535.43701171875</ele>
        <time>2017-09-17T06:35:50Z</time>
      </trkpt>
      <trkpt lat="45.28165" lon="5.85517">
        <ele>540.43701171875</ele>
        <time>2017-09-17T06:35:57Z</time>
      </trkpt>
      <trkpt lat="45.28164" lon="5.8551">
        <ele>540.43701171875</ele>
        <time>2017-09-17T06:36:02Z</time>
      </trkpt>
      <trkpt lat="45.28163" lon="5.85503">
        <ele>540.43701171875</ele>
        <time>2017-09-17T06:36:08Z</time>
      </trkpt>
      <trkpt lat="45.28164" lon="5.85496">
        <ele>542.43701171875</ele>
        <time>2017-09-17T06:36:11Z</time>
      </trkpt>
      <trkpt lat="45.28166" lon="5.85488">
        <ele>542.43701171875</ele>
        <time>2017-09-17T06:36:16Z</time>
      </trkpt>
      <trkpt lat="45.28169" lon="5.85483">
        <ele>543.43701171875</ele>
        <time>2017-09-17T06:36:19Z</time>
      </trkpt>
      <trkpt lat="45.28168" lon="5.85476">
        <ele>544.43701171875</ele>
        <time>2017-09-17T06:36:24Z</time>
      </trkpt>
      <trkpt lat="45.28172" lon="5.8547">
        <ele>543.43701171875</ele>
        <time>2017-09-17T06:36:27Z</time>
      </trkpt>
      <trkpt lat="45.28172" lon="5.85462">
        <ele>545.43701171875</ele>
        <time>2017-09-17T06:36:31Z</time>
      </trkpt>
      <trkpt lat="45.28176" lon="5.85457">
        <ele>543.43701171875</ele>
        <time>2017-09-17T06:36:35Z</time>
      </trkpt>
      <trkpt lat="45.28178" lon="5.8545">
        <ele>543.43701171875</ele>
        <time>2017-09-17T06:36:38Z</time>
      </trkpt>
      <trkpt lat="45.28179" lon="5.85443">
        <ele>545.43701171875</ele>
        <time>2017-09-17T06:36:42Z</time>
      </trkpt>
      <trkpt lat="45.28183" lon="5.85437">
        <ele>546.43701171875</ele>
        <time>2017-09-17T06:36:48Z</time>
      </trkpt>
      <trkpt lat="45.28188" lon="5.85434">
        <ele>545.43701171875</ele>
        <time>2017-09-17T06:36:53Z</time>
      </trkpt>
      <trkpt lat="45.28193" lon="5.85436">
        <ele>532.43701171875</ele>
        <time>2017-09-17T06:37:00Z</time>
      </trkpt>
      <trkpt lat="45.28193" lon="5.85427">
        <ele>506.43701171875</ele>
        <time>2017-09-17T06:37:04Z</time>
      </trkpt>
      <trkpt lat="45.28198" lon="5.8543">
        <ele>515.43701171875</ele>
        <time>2017-09-17T06:37:07Z</time>
      </trkpt>
      <trkpt lat="45.28202" lon="5.85426">
        <ele>522.43701171875</ele>
        <time>2017-09-17T06:37:10Z</time>
      </trkpt>
      <trkpt lat="45.282" lon="5.8542">
        <ele>439.43701171875</ele>
        <time>2017-09-17T06:37:22Z</time>
      </trkpt>
      <trkpt lat="45.28199" lon="5.85411">
        <ele>516.43701171875</ele>
        <time>2017-09-17T06:37:28Z</time>
      </trkpt>
      <trkpt lat="45.282" lon="5.85402">
        <ele>525.43701171875</ele>
        <time>2017-09-17T06:37:30Z</time>
      </trkpt>
      <trkpt lat="45.28201" lon="5.85393">
        <ele>533.43701171875</ele>
        <time>2017-09-17T06:37:32Z</time>
      </trkpt>
      <trkpt lat="45.28203" lon="5.85386">
        <ele>539.43701171875</ele>
        <time>2017-09-17T06:37:34Z</time>
      </trkpt>
      <trkpt lat="45.28204" lon="5.85378">
        <ele>543.43701171875</ele>
        <time>2017-09-17T06:37:36Z</time>
      </trkpt>
      <trkpt lat="45.28202" lon="5.85371">
        <ele>541.43701171875</ele>
        <time>2017-09-17T06:37:38Z</time>
      </trkpt>
      <trkpt lat="45.28205" lon="5.85365">
        <ele>562.43701171875</ele>
        <time>2017-09-17T06:37:40Z</time>
      </trkpt>
      <trkpt lat="45.28208" lon="5.85356">
        <ele>562.43701171875</ele>
        <time>2017-09-17T06:37:43Z</time>
      </trkpt>
      <trkpt lat="45.2821" lon="5.85347">
        <ele>565.43701171875</ele>
        <time>2017-09-17T06:37:45Z</time>
      </trkpt>
      <trkpt lat="45.28208" lon="5.8534">
        <ele>567.43597412109</ele>
        <time>2017-09-17T06:37:48Z</time>
      </trkpt>
      <trkpt lat="45.2821" lon="5.85333">
        <ele>567.43597412109</ele>
        <time>2017-09-17T06:37:50Z</time>
      </trkpt>
      <trkpt lat="45.2821" lon="5.85325">
        <ele>565.43597412109</ele>
        <time>2017-09-17T06:37:53Z</time>
      </trkpt>
      <trkpt lat="45.28213" lon="5.8532">
        <ele>565.43597412109</ele>
        <time>2017-09-17T06:37:55Z</time>
      </trkpt>
      <trkpt lat="45.28214" lon="5.85313">
        <ele>568.43597412109</ele>
        <time>2017-09-17T06:38:00Z</time>
      </trkpt>
      <trkpt lat="45.28215" lon="5.85304">
        <ele>567.43597412109</ele>
        <time>2017-09-17T06:38:03Z</time>
      </trkpt>
      <trkpt lat="45.28214" lon="5.85297">
        <ele>567.43597412109</ele>
        <time>2017-09-17T06:38:06Z</time>
      </trkpt>
      <trkpt lat="45.28216" lon="5.8529">
        <ele>566.43597412109</ele>
        <time>2017-09-17T06:38:10Z</time>
      </trkpt>
      <trkpt lat="45.28217" lon="5.85284">
        <ele>566.43597412109</ele>
        <time>2017-09-17T06:38:16Z</time>
      </trkpt>
      <trkpt lat="45.2822" lon="5.85278">
        <ele>565.43597412109</ele>
        <time>2017-09-17T06:38:20Z</time>
      </trkpt>
      <trkpt lat="45.28224" lon="5.85272">
        <ele>565.43597412109</ele>
        <time>2017-09-17T06:38:25Z</time>
      </trkpt>
      <trkpt lat="45.28226" lon="5.85265">
        <ele>567.43597412109</ele>
        <time>2017-09-17T06:38:32Z</time>
      </trkpt>
      <trkpt lat="45.28229" lon="5.85259">
        <ele>573.43597412109</ele>
        <time>2017-09-17T06:38:37Z</time>
      </trkpt>
      <trkpt lat="45.28231" lon="5.85252">
        <ele>573.43597412109</ele>
        <time>2017-09-17T06:38:43Z</time>
      </trkpt>
      <trkpt lat="45.28232" lon="5.85244">
        <ele>572.43597412109</ele>
        <time>2017-09-17T06:38:47Z</time>
      </trkpt>
      <trkpt lat="45.28231" lon="5.85237">
        <ele>573.43597412109</ele>
        <time>2017-09-17T06:38:51Z</time>
      </trkpt>
      <trkpt lat="45.28228" lon="5.85232">
        <ele>576.43597412109</ele>
        <time>2017-09-17T06:38:56Z</time>
      </trkpt>
      <trkpt lat="45.28233" lon="5.85232">
        <ele>584.43597412109</ele>
        <time>2017-09-17T06:39:07Z</time>
      </trkpt>
      <trkpt lat="45.28234" lon="5.85225">
        <ele>585.43597412109</ele>
        <time>2017-09-17T06:39:12Z</time>
      </trkpt>
      <trkpt lat="45.28238" lon="5.8522">
        <ele>586.43597412109</ele>
        <time>2017-09-17T06:39:20Z</time>
      </trkpt>
      <trkpt lat="45.28243" lon="5.85217">
        <ele>586.43597412109</ele>
        <time>2017-09-17T06:39:26Z</time>
      </trkpt>
      <trkpt lat="45.28243" lon="5.8521">
        <ele>586.43597412109</ele>
        <time>2017-09-17T06:39:36Z</time>
      </trkpt>
      <trkpt lat="45.28249" lon="5.8521">
        <ele>588.43597412109</ele>
        <time>2017-09-17T06:39:41Z</time>
      </trkpt>
      <trkpt lat="45.28254" lon="5.85211">
        <ele>589.43597412109</ele>
        <time>2017-09-17T06:39:44Z</time>
      </trkpt>
      <trkpt lat="45.28262" lon="5.85211">
        <ele>594.43597412109</ele>
        <time>2017-09-17T06:40:16Z</time>
      </trkpt>
      <trkpt lat="45.28267" lon="5.85209">
        <ele>593.43597412109</ele>
        <time>2017-09-17T06:40:18Z</time>
      </trkpt>
      <trkpt lat="45.28272" lon="5.85209">
        <ele>601.43597412109</ele>
        <time>2017-09-17T06:40:22Z</time>
      </trkpt>
      <trkpt lat="45.28277" lon="5.85208">
        <ele>605.43597412109</ele>
        <time>2017-09-17T06:40:27Z</time>
      </trkpt>
      <trkpt lat="45.28271" lon="5.85204">
        <ele>617.43597412109</ele>
        <time>2017-09-17T06:40:49Z</time>
      </trkpt>
      <trkpt lat="45.28266" lon="5.85206">
        <ele>623.43597412109</ele>
        <time>2017-09-17T06:40:53Z</time>
      </trkpt>
      <trkpt lat="45.28263" lon="5.85214">
        <ele>621.43597412109</ele>
        <time>2017-09-17T06:40:57Z</time>
      </trkpt>
      <trkpt lat="45.28261" lon="5.85221">
        <ele>616.43597412109</ele>
        <time>2017-09-17T06:41:00Z</time>
      </trkpt>
      <trkpt lat="45.28261" lon="5.8523">
        <ele>614.43597412109</ele>
        <time>2017-09-17T06:41:03Z</time>
      </trkpt>
      <trkpt lat="45.28264" lon="5.85238">
        <ele>611.43597412109</ele>
        <time>2017-09-17T06:41:06Z</time>
      </trkpt>
      <trkpt lat="45.28268" lon="5.85242">
        <ele>608.43597412109</ele>
        <time>2017-09-17T06:41:10Z</time>
      </trkpt>
      <trkpt lat="45.2827" lon="5.85248">
        <ele>611.43597412109</ele>
        <time>2017-09-17T06:41:16Z</time>
      </trkpt>
      <trkpt lat="45.28274" lon="5.85252">
        <ele>613.43701171875</ele>
        <time>2017-09-17T06:41:20Z</time>
      </trkpt>
      <trkpt lat="45.28279" lon="5.85255">
        <ele>618.43701171875</ele>
        <time>2017-09-17T06:41:26Z</time>
      </trkpt>
      <trkpt lat="45.28283" lon="5.85249">
        <ele>622.43701171875</ele>
        <time>2017-09-17T06:41:38Z</time>
      </trkpt>
      <trkpt lat="45.28287" lon="5.85252">
        <ele>571.43701171875</ele>
        <time>2017-09-17T06:41:45Z</time>
      </trkpt>
      <trkpt lat="45.28292" lon="5.85254">
        <ele>635.43701171875</ele>
        <time>2017-09-17T06:41:58Z</time>
      </trkpt>
      <trkpt lat="45.28295" lon="5.8526">
        <ele>638.43701171875</ele>
        <time>2017-09-17T06:42:04Z</time>
      </trkpt>
      <trkpt lat="45.28298" lon="5.85265">
        <ele>639.43701171875</ele>
        <time>2017-09-17T06:42:11Z</time>
      </trkpt>
      <trkpt lat="45.28301" lon="5.85271">
        <ele>640.43701171875</ele>
        <time>2017-09-17T06:42:17Z</time>
      </trkpt>
      <trkpt lat="45.28304" lon="5.85276">
        <ele>643.43701171875</ele>
        <time>2017-09-17T06:42:28Z</time>
      </trkpt>
      <trkpt lat="45.28308" lon="5.85281">
        <ele>648.43701171875</ele>
        <time>2017-09-17T06:42:33Z</time>
      </trkpt>
      <trkpt lat="45.28309" lon="5.85289">
        <ele>652.43701171875</ele>
        <time>2017-09-17T06:42:40Z</time>
      </trkpt>
      <trkpt lat="45.28306" lon="5.85296">
        <ele>653.43701171875</ele>
        <time>2017-09-17T06:42:45Z</time>
      </trkpt>
      <trkpt lat="45.28301" lon="5.85297">
        <ele>655.43701171875</ele>
        <time>2017-09-17T06:42:50Z</time>
      </trkpt>
      <trkpt lat="45.28298" lon="5.85304">
        <ele>654.43701171875</ele>
        <time>2017-09-17T06:42:53Z</time>
      </trkpt>
      <trkpt lat="45.28296" lon="5.85311">
        <ele>654.43701171875</ele>
        <time>2017-09-17T06:42:55Z</time>
      </trkpt>
      <trkpt lat="45.28294" lon="5.85318">
        <ele>653.43701171875</ele>
        <time>2017-09-17T06:42:58Z</time>
      </trkpt>
      <trkpt lat="45.28292" lon="5.85324">
        <ele>655.43701171875</ele>
        <time>2017-09-17T06:43:01Z</time>
      </trkpt>
      <trkpt lat="45.28293" lon="5.85332">
        <ele>656.43701171875</ele>
        <time>2017-09-17T06:43:05Z</time>
      </trkpt>
      <trkpt lat="45.28291" lon="5.85339">
        <ele>657.43701171875</ele>
        <time>2017-09-17T06:43:10Z</time>
      </trkpt>
      <trkpt lat="45.2829" lon="5.85345">
        <ele>657.43701171875</ele>
        <time>2017-09-17T06:43:14Z</time>
      </trkpt>
      <trkpt lat="45.2829" lon="5.85353">
        <ele>657.43701171875</ele>
        <time>2017-09-17T06:43:21Z</time>
      </trkpt>
      <trkpt lat="45.28291" lon="5.8536">
        <ele>658.43701171875</ele>
        <time>2017-09-17T06:43:25Z</time>
      </trkpt>
      <trkpt lat="45.28294" lon="5.85368">
        <ele>660.43701171875</ele>
        <time>2017-09-17T06:43:34Z</time>
      </trkpt>
      <trkpt lat="45.28294" lon="5.85374">
        <ele>662.43701171875</ele>
        <time>2017-09-17T06:43:38Z</time>
      </trkpt>
      <trkpt lat="45.28295" lon="5.85382">
        <ele>663.43701171875</ele>
        <time>2017-09-17T06:43:43Z</time>
      </trkpt>
      <trkpt lat="45.28297" lon="5.85388">
        <ele>664.43701171875</ele>
        <time>2017-09-17T06:43:52Z</time>
      </trkpt>
      <trkpt lat="45.28298" lon="5.85395">
        <ele>666.43701171875</ele>
        <time>2017-09-17T06:43:56Z</time>
      </trkpt>
      <trkpt lat="45.283" lon="5.85401">
        <ele>667.43701171875</ele>
        <time>2017-09-17T06:44:01Z</time>
      </trkpt>
      <trkpt lat="45.28303" lon="5.85395">
        <ele>674.43701171875</ele>
        <time>2017-09-17T06:44:12Z</time>
      </trkpt>
      <trkpt lat="45.28307" lon="5.85391">
        <ele>678.43701171875</ele>
        <time>2017-09-17T06:44:16Z</time>
      </trkpt>
      <trkpt lat="45.28311" lon="5.85386">
        <ele>679.43701171875</ele>
        <time>2017-09-17T06:44:20Z</time>
      </trkpt>
      <trkpt lat="45.28315" lon="5.8538">
        <ele>680.43701171875</ele>
        <time>2017-09-17T06:44:24Z</time>
      </trkpt>
      <trkpt lat="45.28318" lon="5.85374">
        <ele>683.43701171875</ele>
        <time>2017-09-17T06:44:30Z</time>
      </trkpt>
      <trkpt lat="45.2832" lon="5.85367">
        <ele>683.43701171875</ele>
        <time>2017-09-17T06:44:35Z</time>
      </trkpt>
      <trkpt lat="45.28324" lon="5.85365">
        <ele>689.43701171875</ele>
        <time>2017-09-17T06:44:41Z</time>
      </trkpt>
      <trkpt lat="45.28329" lon="5.85362">
        <ele>690.43701171875</ele>
        <time>2017-09-17T06:44:46Z</time>
      </trkpt>
      <trkpt lat="45.28332" lon="5.85357">
        <ele>690.43701171875</ele>
        <time>2017-09-17T06:44:55Z</time>
      </trkpt>
      <trkpt lat="45.28335" lon="5.85354">
        <ele>694.43701171875</ele>
        <time>2017-09-17T06:45:10Z</time>
      </trkpt>
      <trkpt lat="45.28341" lon="5.8535">
        <ele>696.43701171875</ele>
        <time>2017-09-17T06:45:13Z</time>
      </trkpt>
      <trkpt lat="45.28345" lon="5.85346">
        <ele>698.43701171875</ele>
        <time>2017-09-17T06:45:16Z</time>
      </trkpt>
      <trkpt lat="45.28349" lon="5.8534">
        <ele>696.43701171875</ele>
        <time>2017-09-17T06:45:20Z</time>
      </trkpt>
      <trkpt lat="45.28354" lon="5.85335">
        <ele>698.43701171875</ele>
        <time>2017-09-17T06:45:24Z</time>
      </trkpt>
      <trkpt lat="45.28356" lon="5.85328">
        <ele>699.43701171875</ele>
        <time>2017-09-17T06:45:30Z</time>
      </trkpt>
      <trkpt lat="45.28359" lon="5.85333">
        <ele>702.43701171875</ele>
        <time>2017-09-17T06:45:41Z</time>
      </trkpt>
      <trkpt lat="45.28362" lon="5.8534">
        <ele>701.43701171875</ele>
        <time>2017-09-17T06:45:47Z</time>
      </trkpt>
      <trkpt lat="45.28359" lon="5.85346">
        <ele>700.43701171875</ele>
        <time>2017-09-17T06:45:54Z</time>
      </trkpt>
      <trkpt lat="45.28358" lon="5.85353">
        <ele>703.43701171875</ele>
        <time>2017-09-17T06:45:59Z</time>
      </trkpt>
      <trkpt lat="45.28357" lon="5.8536">
        <ele>703.43701171875</ele>
        <time>2017-09-17T06:46:04Z</time>
      </trkpt>
      <trkpt lat="45.28355" lon="5.85367">
        <ele>708.43701171875</ele>
        <time>2017-09-17T06:46:10Z</time>
      </trkpt>
      <trkpt lat="45.28355" lon="5.85373">
        <ele>709.43701171875</ele>
        <time>2017-09-17T06:46:16Z</time>
      </trkpt>
      <trkpt lat="45.28357" lon="5.85381">
        <ele>711.43701171875</ele>
        <time>2017-09-17T06:46:21Z</time>
      </trkpt>
      <trkpt lat="45.28359" lon="5.85387">
        <ele>713.43701171875</ele>
        <time>2017-09-17T06:46:24Z</time>
      </trkpt>
      <trkpt lat="45.28359" lon="5.85395">
        <ele>713.43701171875</ele>
        <time>2017-09-17T06:46:30Z</time>
      </trkpt>
      <trkpt lat="45.28361" lon="5.85402">
        <ele>718.43701171875</ele>
        <time>2017-09-17T06:46:34Z</time>
      </trkpt>
      <trkpt lat="45.28361" lon="5.85409">
        <ele>719.43701171875</ele>
        <time>2017-09-17T06:46:40Z</time>
      </trkpt>
      <trkpt lat="45.28361" lon="5.85417">
        <ele>720.43701171875</ele>
        <time>2017-09-17T06:46:45Z</time>
      </trkpt>
      <trkpt lat="45.28361" lon="5.85424">
        <ele>721.43701171875</ele>
        <time>2017-09-17T06:46:49Z</time>
      </trkpt>
      <trkpt lat="45.28364" lon="5.85431">
        <ele>723.43701171875</ele>
        <time>2017-09-17T06:46:53Z</time>
      </trkpt>
      <trkpt lat="45.28364" lon="5.85438">
        <ele>722.43701171875</ele>
        <time>2017-09-17T06:46:59Z</time>
      </trkpt>
      <trkpt lat="45.28363" lon="5.85447">
        <ele>729.43701171875</ele>
        <time>2017-09-17T06:47:07Z</time>
      </trkpt>
      <trkpt lat="45.28364" lon="5.85454">
        <ele>729.43701171875</ele>
        <time>2017-09-17T06:47:10Z</time>
      </trkpt>
      <trkpt lat="45.28363" lon="5.8546">
        <ele>735.43701171875</ele>
        <time>2017-09-17T06:47:19Z</time>
      </trkpt>
      <trkpt lat="45.28364" lon="5.85471">
        <ele>740.43701171875</ele>
        <time>2017-09-17T06:47:23Z</time>
      </trkpt>
      <trkpt lat="45.28363" lon="5.85479">
        <ele>741.43701171875</ele>
        <time>2017-09-17T06:47:29Z</time>
      </trkpt>
      <trkpt lat="45.28362" lon="5.85486">
        <ele>744.43701171875</ele>
        <time>2017-09-17T06:47:32Z</time>
      </trkpt>
      <trkpt lat="45.28359" lon="5.85491">
        <ele>743.43701171875</ele>
        <time>2017-09-17T06:47:37Z</time>
      </trkpt>
      <trkpt lat="45.2836" lon="5.85499">
        <ele>743.43701171875</ele>
        <time>2017-09-17T06:47:40Z</time>
      </trkpt>
      <trkpt lat="45.28357" lon="5.85506">
        <ele>743.43701171875</ele>
        <time>2017-09-17T06:47:47Z</time>
      </trkpt>
      <trkpt lat="45.28354" lon="5.85513">
        <ele>743.43701171875</ele>
        <time>2017-09-17T06:47:54Z</time>
      </trkpt>
      <trkpt lat="45.28354" lon="5.8552">
        <ele>743.43701171875</ele>
        <time>2017-09-17T06:47:59Z</time>
      </trkpt>
      <trkpt lat="45.28352" lon="5.85527">
        <ele>744.43701171875</ele>
        <time>2017-09-17T06:48:05Z</time>
      </trkpt>
      <trkpt lat="45.28352" lon="5.85534">
        <ele>745.43701171875</ele>
        <time>2017-09-17T06:48:09Z</time>
      </trkpt>
      <trkpt lat="45.2835" lon="5.8554">
        <ele>745.43701171875</ele>
        <time>2017-09-17T06:48:13Z</time>
      </trkpt>
      <trkpt lat="45.28348" lon="5.85547">
        <ele>750.43701171875</ele>
        <time>2017-09-17T06:48:18Z</time>
      </trkpt>
      <trkpt lat="45.28347" lon="5.85554">
        <ele>748.43701171875</ele>
        <time>2017-09-17T06:48:21Z</time>
      </trkpt>
      <trkpt lat="45.28344" lon="5.85558">
        <ele>750.43701171875</ele>
        <time>2017-09-17T06:48:31Z</time>
      </trkpt>
      <trkpt lat="45.28344" lon="5.85565">
        <ele>749.43701171875</ele>
        <time>2017-09-17T06:48:35Z</time>
      </trkpt>
      <trkpt lat="45.28345" lon="5.85572">
        <ele>748.43701171875</ele>
        <time>2017-09-17T06:48:38Z</time>
      </trkpt>
      <trkpt lat="45.28345" lon="5.85579">
        <ele>749.43701171875</ele>
        <time>2017-09-17T06:48:42Z</time>
      </trkpt>
      <trkpt lat="45.28345" lon="5.85586">
        <ele>750.43701171875</ele>
        <time>2017-09-17T06:48:47Z</time>
      </trkpt>
      <trkpt lat="45.28344" lon="5.85592">
        <ele>749.43701171875</ele>
        <time>2017-09-17T06:48:53Z</time>
      </trkpt>
      <trkpt lat="45.28343" lon="5.85599">
        <ele>752.43701171875</ele>
        <time>2017-09-17T06:48:59Z</time>
      </trkpt>
      <trkpt lat="45.28342" lon="5.85608">
        <ele>753.43701171875</ele>
        <time>2017-09-17T06:49:04Z</time>
      </trkpt>
      <trkpt lat="45.28343" lon="5.85616">
        <ele>756.43701171875</ele>
        <time>2017-09-17T06:49:09Z</time>
      </trkpt>
      <trkpt lat="45.28345" lon="5.85625">
        <ele>757.43701171875</ele>
        <time>2017-09-17T06:49:13Z</time>
      </trkpt>
      <trkpt lat="45.28347" lon="5.85632">
        <ele>760.43701171875</ele>
        <time>2017-09-17T06:49:20Z</time>
      </trkpt>
      <trkpt lat="45.28349" lon="5.8564">
        <ele>763.43701171875</ele>
        <time>2017-09-17T06:49:26Z</time>
      </trkpt>
      <trkpt lat="45.28351" lon="5.85648">
        <ele>764.43701171875</ele>
        <time>2017-09-17T06:49:32Z</time>
      </trkpt>
      <trkpt lat="45.28351" lon="5.85654">
        <ele>756.43701171875</ele>
        <time>2017-09-17T06:49:37Z</time>
      </trkpt>
      <trkpt lat="45.28351" lon="5.85661">
        <ele>761.43701171875</ele>
        <time>2017-09-17T06:49:42Z</time>
      </trkpt>
      <trkpt lat="45.28353" lon="5.85668">
        <ele>766.43701171875</ele>
        <time>2017-09-17T06:49:47Z</time>
      </trkpt>
      <trkpt lat="45.28354" lon="5.85675">
        <ele>771.43701171875</ele>
        <time>2017-09-17T06:49:55Z</time>
      </trkpt>
      <trkpt lat="45.28354" lon="5.85683">
        <ele>772.43701171875</ele>
        <time>2017-09-17T06:50:00Z</time>
      </trkpt>
      <trkpt lat="45.28355" lon="5.85689">
        <ele>775.43701171875</ele>
        <time>2017-09-17T06:50:05Z</time>
      </trkpt>
      <trkpt lat="45.28355" lon="5.85696">
        <ele>780.43701171875</ele>
        <time>2017-09-17T06:50:10Z</time>
      </trkpt>
      <trkpt lat="45.28356" lon="5.85702">
        <ele>780.43701171875</ele>
        <time>2017-09-17T06:50:14Z</time>
      </trkpt>
      <trkpt lat="45.28363" lon="5.85707">
        <ele>780.43701171875</ele>
        <time>2017-09-17T06:50:17Z</time>
      </trkpt>
      <trkpt lat="45.28361" lon="5.85714">
        <ele>779.43701171875</ele>
        <time>2017-09-17T06:50:24Z</time>
      </trkpt>
      <trkpt lat="45.28359" lon="5.8572">
        <ele>783.43701171875</ele>
        <time>2017-09-17T06:50:28Z</time>
      </trkpt>
      <trkpt lat="45.28363" lon="5.85726">
        <ele>786.43701171875</ele>
        <time>2017-09-17T06:50:32Z</time>
      </trkpt>
      <trkpt lat="45.28363" lon="5.85733">
        <ele>787.43701171875</ele>
        <time>2017-09-17T06:50:42Z</time>
      </trkpt>
      <trkpt lat="45.28365" lon="5.85739">
        <ele>786.43701171875</ele>
        <time>2017-09-17T06:50:48Z</time>
      </trkpt>
      <trkpt lat="45.28368" lon="5.85747">
        <ele>787.43701171875</ele>
        <time>2017-09-17T06:50:51Z</time>
      </trkpt>
      <trkpt lat="45.28369" lon="5.85753">
        <ele>785.43701171875</ele>
        <time>2017-09-17T06:50:54Z</time>
      </trkpt>
      <trkpt lat="45.28374" lon="5.8576">
        <ele>786.43701171875</ele>
        <time>2017-09-17T06:50:57Z</time>
      </trkpt>
      <trkpt lat="45.28381" lon="5.85756">
        <ele>780.43701171875</ele>
        <time>2017-09-17T06:51:20Z</time>
      </trkpt>
      <trkpt lat="45.28384" lon="5.8575">
        <ele>781.43701171875</ele>
        <time>2017-09-17T06:51:22Z</time>
      </trkpt>
      <trkpt lat="45.28388" lon="5.85744">
        <ele>778.43701171875</ele>
        <time>2017-09-17T06:51:24Z</time>
      </trkpt>
      <trkpt lat="45.28386" lon="5.85727">
        <ele>789.43701171875</ele>
        <time>2017-09-17T06:51:36Z</time>
      </trkpt>
      <trkpt lat="45.28385" lon="5.85718">
        <ele>790.43701171875</ele>
        <time>2017-09-17T06:51:38Z</time>
      </trkpt>
      <trkpt lat="45.28385" lon="5.8571">
        <ele>789.43701171875</ele>
        <time>2017-09-17T06:51:41Z</time>
      </trkpt>
      <trkpt lat="45.28381" lon="5.85707">
        <ele>789.43701171875</ele>
        <time>2017-09-17T06:51:43Z</time>
      </trkpt>
      <trkpt lat="45.28382" lon="5.857">
        <ele>787.43701171875</ele>
        <time>2017-09-17T06:51:46Z</time>
      </trkpt>
      <trkpt lat="45.28389" lon="5.85697">
        <ele>790.43701171875</ele>
        <time>2017-09-17T06:51:48Z</time>
      </trkpt>
      <trkpt lat="45.28391" lon="5.85691">
        <ele>793.43701171875</ele>
        <time>2017-09-17T06:51:52Z</time>
      </trkpt>
      <trkpt lat="45.28397" lon="5.85689">
        <ele>799.43701171875</ele>
        <time>2017-09-17T06:51:55Z</time>
      </trkpt>
      <trkpt lat="45.28405" lon="5.85688">
        <ele>806.43701171875</ele>
        <time>2017-09-17T06:51:59Z</time>
      </trkpt>
      <trkpt lat="45.284" lon="5.85685">
        <ele>805.43701171875</ele>
        <time>2017-09-17T06:52:13Z</time>
      </trkpt>
      <trkpt lat="45.28396" lon="5.85688">
        <ele>806.43701171875</ele>
        <time>2017-09-17T06:52:18Z</time>
      </trkpt>
      <trkpt lat="45.28392" lon="5.85693">
        <ele>805.43701171875</ele>
        <time>2017-09-17T06:52:23Z</time>
      </trkpt>
      <trkpt lat="45.28392" lon="5.85699">
        <ele>803.43701171875</ele>
        <time>2017-09-17T06:52:27Z</time>
      </trkpt>
      <trkpt lat="45.28393" lon="5.85706">
        <ele>805.43701171875</ele>
        <time>2017-09-17T06:52:30Z</time>
      </trkpt>
      <trkpt lat="45.28392" lon="5.85713">
        <ele>803.43701171875</ele>
        <time>2017-09-17T06:52:35Z</time>
      </trkpt>
      <trkpt lat="45.2839" lon="5.85719">
        <ele>799.43701171875</ele>
        <time>2017-09-17T06:52:38Z</time>
      </trkpt>
      <trkpt lat="45.28392" lon="5.85726">
        <ele>797.43701171875</ele>
        <time>2017-09-17T06:52:42Z</time>
      </trkpt>
      <trkpt lat="45.28392" lon="5.85734">
        <ele>796.43701171875</ele>
        <time>2017-09-17T06:52:46Z</time>
      </trkpt>
      <trkpt lat="45.2839" lon="5.8574">
        <ele>797.43701171875</ele>
        <time>2017-09-17T06:52:50Z</time>
      </trkpt>
      <trkpt lat="45.28391" lon="5.85747">
        <ele>797.43701171875</ele>
        <time>2017-09-17T06:52:54Z</time>
      </trkpt>
      <trkpt lat="45.28388" lon="5.85754">
        <ele>796.43701171875</ele>
        <time>2017-09-17T06:52:59Z</time>
      </trkpt>
      <trkpt lat="45.28387" lon="5.8576">
        <ele>797.43701171875</ele>
        <time>2017-09-17T06:53:02Z</time>
      </trkpt>
      <trkpt lat="45.28385" lon="5.85765">
        <ele>800.43701171875</ele>
        <time>2017-09-17T06:53:07Z</time>
      </trkpt>
      <trkpt lat="45.2839" lon="5.85772">
        <ele>803.43701171875</ele>
        <time>2017-09-17T06:53:11Z</time>
      </trkpt>
      <trkpt lat="45.28393" lon="5.85778">
        <ele>805.43701171875</ele>
        <time>2017-09-17T06:53:14Z</time>
      </trkpt>
      <trkpt lat="45.28392" lon="5.85784">
        <ele>807.43701171875</ele>
        <time>2017-09-17T06:53:17Z</time>
      </trkpt>
      <trkpt lat="45.284" lon="5.8579">
        <ele>774.43798828125</ele>
        <time>2017-09-17T06:53:20Z</time>
      </trkpt>
      <trkpt lat="45.28402" lon="5.85796">
        <ele>810.43798828125</ele>
        <time>2017-09-17T06:53:23Z</time>
      </trkpt>
      <trkpt lat="45.28399" lon="5.85803">
        <ele>811.43798828125</ele>
        <time>2017-09-17T06:53:27Z</time>
      </trkpt>
      <trkpt lat="45.28401" lon="5.8581">
        <ele>811.43798828125</ele>
        <time>2017-09-17T06:53:30Z</time>
      </trkpt>
      <trkpt lat="45.28399" lon="5.85816">
        <ele>812.43798828125</ele>
        <time>2017-09-17T06:53:33Z</time>
      </trkpt>
      <trkpt lat="45.284" lon="5.85824">
        <ele>814.43798828125</ele>
        <time>2017-09-17T06:53:37Z</time>
      </trkpt>
      <trkpt lat="45.28403" lon="5.85831">
        <ele>814.43798828125</ele>
        <time>2017-09-17T06:53:40Z</time>
      </trkpt>
      <trkpt lat="45.28401" lon="5.85837">
        <ele>813.43798828125</ele>
        <time>2017-09-17T06:53:43Z</time>
      </trkpt>
      <trkpt lat="45.28398" lon="5.85843">
        <ele>814.43798828125</ele>
        <time>2017-09-17T06:53:48Z</time>
      </trkpt>
      <trkpt lat="45.28394" lon="5.85845">
        <ele>816.43798828125</ele>
        <time>2017-09-17T06:53:50Z</time>
      </trkpt>
      <trkpt lat="45.28388" lon="5.8585">
        <ele>815.43798828125</ele>
        <time>2017-09-17T06:53:53Z</time>
      </trkpt>
      <trkpt lat="45.28384" lon="5.85854">
        <ele>815.43798828125</ele>
        <time>2017-09-17T06:53:56Z</time>
      </trkpt>
      <trkpt lat="45.28382" lon="5.85861">
        <ele>818.43798828125</ele>
        <time>2017-09-17T06:54:00Z</time>
      </trkpt>
      <trkpt lat="45.2838" lon="5.85874">
        <ele>822.43798828125</ele>
        <time>2017-09-17T06:54:07Z</time>
      </trkpt>
      <trkpt lat="45.28378" lon="5.8588">
        <ele>824.43798828125</ele>
        <time>2017-09-17T06:54:12Z</time>
      </trkpt>
      <trkpt lat="45.28379" lon="5.85887">
        <ele>826.43798828125</ele>
        <time>2017-09-17T06:54:16Z</time>
      </trkpt>
      <trkpt lat="45.28377" lon="5.85894">
        <ele>827.43798828125</ele>
        <time>2017-09-17T06:54:21Z</time>
      </trkpt>
      <trkpt lat="45.28375" lon="5.85901">
        <ele>827.43798828125</ele>
        <time>2017-09-17T06:54:25Z</time>
      </trkpt>
      <trkpt lat="45.28376" lon="5.85908">
        <ele>832.43798828125</ele>
        <time>2017-09-17T06:54:29Z</time>
      </trkpt>
      <trkpt lat="45.28376" lon="5.85915">
        <ele>829.43798828125</ele>
        <time>2017-09-17T06:54:34Z</time>
      </trkpt>
      <trkpt lat="45.28377" lon="5.85922">
        <ele>830.43798828125</ele>
        <time>2017-09-17T06:54:39Z</time>
      </trkpt>
      <trkpt lat="45.28378" lon="5.8593">
        <ele>835.43798828125</ele>
        <time>2017-09-17T06:54:46Z</time>
      </trkpt>
      <trkpt lat="45.28379" lon="5.85937">
        <ele>835.43798828125</ele>
        <time>2017-09-17T06:54:51Z</time>
      </trkpt>
      <trkpt lat="45.28382" lon="5.85942">
        <ele>834.43798828125</ele>
        <time>2017-09-17T06:54:55Z</time>
      </trkpt>
      <trkpt lat="45.28385" lon="5.8595">
        <ele>835.43798828125</ele>
        <time>2017-09-17T06:55:01Z</time>
      </trkpt>
      <trkpt lat="45.28387" lon="5.85956">
        <ele>833.43798828125</ele>
        <time>2017-09-17T06:55:06Z</time>
      </trkpt>
      <trkpt lat="45.28391" lon="5.85961">
        <ele>834.43798828125</ele>
        <time>2017-09-17T06:55:10Z</time>
      </trkpt>
      <trkpt lat="45.28392" lon="5.85968">
        <ele>838.43798828125</ele>
        <time>2017-09-17T06:55:15Z</time>
      </trkpt>
      <trkpt lat="45.28393" lon="5.85975">
        <ele>837.43798828125</ele>
        <time>2017-09-17T06:55:21Z</time>
      </trkpt>
      <trkpt lat="45.28399" lon="5.85976">
        <ele>839.43798828125</ele>
        <time>2017-09-17T06:55:24Z</time>
      </trkpt>
      <trkpt lat="45.28403" lon="5.85969">
        <ele>840.43798828125</ele>
        <time>2017-09-17T06:55:29Z</time>
      </trkpt>
      <trkpt lat="45.28404" lon="5.85963">
        <ele>842.43798828125</ele>
        <time>2017-09-17T06:55:35Z</time>
      </trkpt>
      <trkpt lat="45.28405" lon="5.85956">
        <ele>842.43798828125</ele>
        <time>2017-09-17T06:55:40Z</time>
      </trkpt>
      <trkpt lat="45.2841" lon="5.85959">
        <ele>846.43798828125</ele>
        <time>2017-09-17T06:55:49Z</time>
      </trkpt>
      <trkpt lat="45.28411" lon="5.85965">
        <ele>849.43798828125</ele>
        <time>2017-09-17T06:55:55Z</time>
      </trkpt>
      <trkpt lat="45.28416" lon="5.85969">
        <ele>849.43798828125</ele>
        <time>2017-09-17T06:56:02Z</time>
      </trkpt>
      <trkpt lat="45.28416" lon="5.85976">
        <ele>798.43798828125</ele>
        <time>2017-09-17T06:56:09Z</time>
      </trkpt>
      <trkpt lat="45.28418" lon="5.85983">
        <ele>842.43798828125</ele>
        <time>2017-09-17T06:56:17Z</time>
      </trkpt>
      <trkpt lat="45.28415" lon="5.85989">
        <ele>846.43798828125</ele>
        <time>2017-09-17T06:56:23Z</time>
      </trkpt>
      <trkpt lat="45.28413" lon="5.85995">
        <ele>846.43798828125</ele>
        <time>2017-09-17T06:56:27Z</time>
      </trkpt>
      <trkpt lat="45.28413" lon="5.86002">
        <ele>847.43798828125</ele>
        <time>2017-09-17T06:56:31Z</time>
      </trkpt>
      <trkpt lat="45.28416" lon="5.86009">
        <ele>848.43798828125</ele>
        <time>2017-09-17T06:56:34Z</time>
      </trkpt>
      <trkpt lat="45.28415" lon="5.86015">
        <ele>849.43798828125</ele>
        <time>2017-09-17T06:56:38Z</time>
      </trkpt>
      <trkpt lat="45.2841" lon="5.86019">
        <ele>848.43798828125</ele>
        <time>2017-09-17T06:56:40Z</time>
      </trkpt>
      <trkpt lat="45.2841" lon="5.86025">
        <ele>849.43798828125</ele>
        <time>2017-09-17T06:56:45Z</time>
      </trkpt>
      <trkpt lat="45.28418" lon="5.86033">
        <ele>852.43798828125</ele>
        <time>2017-09-17T06:56:49Z</time>
      </trkpt>
      <trkpt lat="45.28419" lon="5.86039">
        <ele>852.43798828125</ele>
        <time>2017-09-17T06:56:53Z</time>
      </trkpt>
      <trkpt lat="45.28423" lon="5.86044">
        <ele>852.43798828125</ele>
        <time>2017-09-17T06:56:56Z</time>
      </trkpt>
      <trkpt lat="45.28422" lon="5.86051">
        <ele>854.43798828125</ele>
        <time>2017-09-17T06:57:02Z</time>
      </trkpt>
      <trkpt lat="45.28427" lon="5.86053">
        <ele>854.43798828125</ele>
        <time>2017-09-17T06:57:03Z</time>
      </trkpt>
      <trkpt lat="45.28429" lon="5.86047">
        <ele>859.43798828125</ele>
        <time>2017-09-17T06:57:11Z</time>
      </trkpt>
      <trkpt lat="45.28433" lon="5.86042">
        <ele>859.43798828125</ele>
        <time>2017-09-17T06:57:14Z</time>
      </trkpt>
      <trkpt lat="45.28436" lon="5.86038">
        <ele>862.43798828125</ele>
        <time>2017-09-17T06:57:17Z</time>
      </trkpt>
      <trkpt lat="45.28436" lon="5.86031">
        <ele>682.43798828125</ele>
        <time>2017-09-17T06:57:23Z</time>
      </trkpt>
      <trkpt lat="45.28438" lon="5.86025">
        <ele>810.43798828125</ele>
        <time>2017-09-17T06:57:28Z</time>
      </trkpt>
      <trkpt lat="45.28438" lon="5.86018">
        <ele>842.43798828125</ele>
        <time>2017-09-17T06:57:34Z</time>
      </trkpt>
      <trkpt lat="45.28438" lon="5.86011">
        <ele>858.43798828125</ele>
        <time>2017-09-17T06:57:41Z</time>
      </trkpt>
      <trkpt lat="45.28436" lon="5.86004">
        <ele>866.43798828125</ele>
        <time>2017-09-17T06:57:48Z</time>
      </trkpt>
      <trkpt lat="45.28435" lon="5.85997">
        <ele>869.43798828125</ele>
        <time>2017-09-17T06:57:52Z</time>
      </trkpt>
      <trkpt lat="45.28434" lon="5.8599">
        <ele>799.43798828125</ele>
        <time>2017-09-17T06:57:58Z</time>
      </trkpt>
      <trkpt lat="45.28433" lon="5.85983">
        <ele>865.43798828125</ele>
        <time>2017-09-17T06:58:08Z</time>
      </trkpt>
      <trkpt lat="45.28433" lon="5.85973">
        <ele>866.43798828125</ele>
        <time>2017-09-17T06:58:12Z</time>
      </trkpt>
      <trkpt lat="45.28433" lon="5.8596">
        <ele>863.43798828125</ele>
        <time>2017-09-17T06:58:14Z</time>
      </trkpt>
      <trkpt lat="45.28431" lon="5.85949">
        <ele>862.43798828125</ele>
        <time>2017-09-17T06:58:16Z</time>
      </trkpt>
      <trkpt lat="45.28429" lon="5.85943">
        <ele>866.43798828125</ele>
        <time>2017-09-17T06:58:18Z</time>
      </trkpt>
      <trkpt lat="45.28428" lon="5.85936">
        <ele>869.43798828125</ele>
        <time>2017-09-17T06:58:20Z</time>
      </trkpt>
      <trkpt lat="45.28424" lon="5.85928">
        <ele>875.43798828125</ele>
        <time>2017-09-17T06:58:24Z</time>
      </trkpt>
      <trkpt lat="45.28426" lon="5.8592">
        <ele>870.43798828125</ele>
        <time>2017-09-17T06:58:25Z</time>
      </trkpt>
      <trkpt lat="45.28426" lon="5.8591">
        <ele>872.43798828125</ele>
        <time>2017-09-17T06:58:28Z</time>
      </trkpt>
      <trkpt lat="45.28425" lon="5.85903">
        <ele>877.43798828125</ele>
        <time>2017-09-17T06:58:31Z</time>
      </trkpt>
      <trkpt lat="45.28427" lon="5.85897">
        <ele>879.43798828125</ele>
        <time>2017-09-17T06:58:33Z</time>
      </trkpt>
      <trkpt lat="45.28426" lon="5.85889">
        <ele>881.43798828125</ele>
        <time>2017-09-17T06:58:36Z</time>
      </trkpt>
      <trkpt lat="45.28427" lon="5.85881">
        <ele>879.43798828125</ele>
        <time>2017-09-17T06:58:38Z</time>
      </trkpt>
      <trkpt lat="45.28426" lon="5.85873">
        <ele>879.43798828125</ele>
        <time>2017-09-17T06:58:40Z</time>
      </trkpt>
      <trkpt lat="45.2842" lon="5.85867">
        <ele>881.43798828125</ele>
        <time>2017-09-17T06:58:42Z</time>
      </trkpt>
      <trkpt lat="45.28417" lon="5.85861">
        <ele>881.43798828125</ele>
        <time>2017-09-17T06:58:44Z</time>
      </trkpt>
      <trkpt lat="45.28416" lon="5.85852">
        <ele>878.43798828125</ele>
        <time>2017-09-17T06:58:46Z</time>
      </trkpt>
      <trkpt lat="45.28418" lon="5.85843">
        <ele>878.43798828125</ele>
        <time>2017-09-17T06:58:48Z</time>
      </trkpt>
      <trkpt lat="45.28416" lon="5.85835">
        <ele>875.43798828125</ele>
        <time>2017-09-17T06:58:50Z</time>
      </trkpt>
      <trkpt lat="45.28417" lon="5.85829">
        <ele>876.43798828125</ele>
        <time>2017-09-17T06:58:52Z</time>
      </trkpt>
      <trkpt lat="45.28417" lon="5.8582">
        <ele>873.43798828125</ele>
        <time>2017-09-17T06:58:54Z</time>
      </trkpt>
      <trkpt lat="45.28418" lon="5.85814">
        <ele>872.43798828125</ele>
        <time>2017-09-17T06:58:56Z</time>
      </trkpt>
      <trkpt lat="45.2841" lon="5.85806">
        <ele>873.43798828125</ele>
        <time>2017-09-17T06:59:05Z</time>
      </trkpt>
      <trkpt lat="45.28413" lon="5.85797">
        <ele>878.43798828125</ele>
        <time>2017-09-17T06:59:16Z</time>
      </trkpt>
      <trkpt lat="45.28418" lon="5.85789">
        <ele>878.43798828125</ele>
        <time>2017-09-17T06:59:18Z</time>
      </trkpt>
      <trkpt lat="45.28418" lon="5.85781">
        <ele>878.43798828125</ele>
        <time>2017-09-17T06:59:20Z</time>
      </trkpt>
      <trkpt lat="45.28419" lon="5.85774">
        <ele>877.43798828125</ele>
        <time>2017-09-17T06:59:22Z</time>
      </trkpt>
      <trkpt lat="45.28419" lon="5.85765">
        <ele>875.43798828125</ele>
        <time>2017-09-17T06:59:25Z</time>
      </trkpt>
      <trkpt lat="45.28424" lon="5.85761">
        <ele>878.43798828125</ele>
        <time>2017-09-17T06:59:28Z</time>
      </trkpt>
      <trkpt lat="45.28431" lon="5.85756">
        <ele>878.43798828125</ele>
        <time>2017-09-17T06:59:31Z</time>
      </trkpt>
      <trkpt lat="45.28438" lon="5.85754">
        <ele>879.43798828125</ele>
        <time>2017-09-17T06:59:33Z</time>
      </trkpt>
      <trkpt lat="45.28444" lon="5.85753">
        <ele>880.43798828125</ele>
        <time>2017-09-17T06:59:35Z</time>
      </trkpt>
      <trkpt lat="45.28437" lon="5.85749">
        <ele>881.43798828125</ele>
        <time>2017-09-17T06:59:40Z</time>
      </trkpt>
      <trkpt lat="45.28429" lon="5.85746">
        <ele>886.43798828125</ele>
        <time>2017-09-17T06:59:46Z</time>
      </trkpt>
      <trkpt lat="45.28432" lon="5.85741">
        <ele>889.43798828125</ele>
        <time>2017-09-17T06:59:51Z</time>
      </trkpt>
      <trkpt lat="45.28436" lon="5.85737">
        <ele>887.43798828125</ele>
        <time>2017-09-17T06:59:54Z</time>
      </trkpt>
      <trkpt lat="45.28437" lon="5.8573">
        <ele>889.43798828125</ele>
        <time>2017-09-17T07:00:01Z</time>
      </trkpt>
      <trkpt lat="45.2846" lon="5.85706">
        <ele>880.43798828125</ele>
        <time>2017-09-17T07:00:35Z</time>
      </trkpt>
      <trkpt lat="45.28459" lon="5.85712">
        <ele>889.43798828125</ele>
        <time>2017-09-17T07:00:38Z</time>
      </trkpt>
      <trkpt lat="45.28453" lon="5.85715">
        <ele>900.43798828125</ele>
        <time>2017-09-17T07:00:45Z</time>
      </trkpt>
      <trkpt lat="45.28449" lon="5.85719">
        <ele>900.43798828125</ele>
        <time>2017-09-17T07:00:47Z</time>
      </trkpt>
      <trkpt lat="45.28443" lon="5.85721">
        <ele>898.43701171875</ele>
        <time>2017-09-17T07:00:50Z</time>
      </trkpt>
      <trkpt lat="45.28438" lon="5.85726">
        <ele>902.43701171875</ele>
        <time>2017-09-17T07:00:54Z</time>
      </trkpt>
      <trkpt lat="45.28437" lon="5.85734">
        <ele>900.43798828125</ele>
        <time>2017-09-17T07:00:58Z</time>
      </trkpt>
      <trkpt lat="45.28435" lon="5.85741">
        <ele>898.43798828125</ele>
        <time>2017-09-17T07:01:03Z</time>
      </trkpt>
      <trkpt lat="45.28431" lon="5.85746">
        <ele>897.43798828125</ele>
        <time>2017-09-17T07:01:06Z</time>
      </trkpt>
      <trkpt lat="45.28426" lon="5.8575">
        <ele>896.43798828125</ele>
        <time>2017-09-17T07:01:12Z</time>
      </trkpt>
      <trkpt lat="45.2843" lon="5.85754">
        <ele>895.43798828125</ele>
        <time>2017-09-17T07:01:15Z</time>
      </trkpt>
      <trkpt lat="45.28425" lon="5.85758">
        <ele>894.43798828125</ele>
        <time>2017-09-17T07:01:18Z</time>
      </trkpt>
      <trkpt lat="45.28423" lon="5.85765">
        <ele>892.43798828125</ele>
        <time>2017-09-17T07:01:21Z</time>
      </trkpt>
      <trkpt lat="45.28419" lon="5.8577">
        <ele>893.43798828125</ele>
        <time>2017-09-17T07:01:23Z</time>
      </trkpt>
      <trkpt lat="45.28421" lon="5.85778">
        <ele>891.43798828125</ele>
        <time>2017-09-17T07:01:25Z</time>
      </trkpt>
      <trkpt lat="45.28414" lon="5.85788">
        <ele>890.43798828125</ele>
        <time>2017-09-17T07:01:28Z</time>
      </trkpt>
      <trkpt lat="45.28414" lon="5.85795">
        <ele>887.43798828125</ele>
        <time>2017-09-17T07:01:30Z</time>
      </trkpt>
      <trkpt lat="45.28413" lon="5.85802">
        <ele>887.43798828125</ele>
        <time>2017-09-17T07:01:32Z</time>
      </trkpt>
      <trkpt lat="45.28417" lon="5.8581">
        <ele>887.43798828125</ele>
        <time>2017-09-17T07:01:34Z</time>
      </trkpt>
      <trkpt lat="45.28417" lon="5.85817">
        <ele>886.43798828125</ele>
        <time>2017-09-17T07:01:36Z</time>
      </trkpt>
      <trkpt lat="45.28415" lon="5.85825">
        <ele>887.43798828125</ele>
        <time>2017-09-17T07:01:38Z</time>
      </trkpt>
      <trkpt lat="45.28414" lon="5.85833">
        <ele>887.43798828125</ele>
        <time>2017-09-17T07:01:40Z</time>
      </trkpt>
      <trkpt lat="45.28412" lon="5.85841">
        <ele>887.43798828125</ele>
        <time>2017-09-17T07:01:42Z</time>
      </trkpt>
      <trkpt lat="45.28417" lon="5.85854">
        <ele>887.43798828125</ele>
        <time>2017-09-17T07:01:45Z</time>
      </trkpt>
      <trkpt lat="45.28419" lon="5.85863">
        <ele>887.43798828125</ele>
        <time>2017-09-17T07:01:48Z</time>
      </trkpt>
      <trkpt lat="45.28415" lon="5.8587">
        <ele>887.43798828125</ele>
        <time>2017-09-17T07:01:50Z</time>
      </trkpt>
      <trkpt lat="45.28412" lon="5.85878">
        <ele>887.43798828125</ele>
        <time>2017-09-17T07:01:53Z</time>
      </trkpt>
      <trkpt lat="45.28414" lon="5.85884">
        <ele>887.43798828125</ele>
        <time>2017-09-17T07:01:55Z</time>
      </trkpt>
      <trkpt lat="45.28418" lon="5.85891">
        <ele>889.43798828125</ele>
        <time>2017-09-17T07:01:57Z</time>
      </trkpt>
      <trkpt lat="45.28415" lon="5.85896">
        <ele>887.43798828125</ele>
        <time>2017-09-17T07:02:00Z</time>
      </trkpt>
      <trkpt lat="45.28418" lon="5.85904">
        <ele>885.43798828125</ele>
        <time>2017-09-17T07:02:03Z</time>
      </trkpt>
      <trkpt lat="45.28416" lon="5.85912">
        <ele>884.43798828125</ele>
        <time>2017-09-17T07:02:06Z</time>
      </trkpt>
      <trkpt lat="45.2842" lon="5.8592">
        <ele>884.43798828125</ele>
        <time>2017-09-17T07:02:08Z</time>
      </trkpt>
      <trkpt lat="45.2842" lon="5.85928">
        <ele>882.43798828125</ele>
        <time>2017-09-17T07:02:10Z</time>
      </trkpt>
      <trkpt lat="45.2842" lon="5.85935">
        <ele>881.43798828125</ele>
        <time>2017-09-17T07:02:12Z</time>
      </trkpt>
      <trkpt lat="45.28423" lon="5.85942">
        <ele>881.43798828125</ele>
        <time>2017-09-17T07:02:14Z</time>
      </trkpt>
      <trkpt lat="45.28421" lon="5.8595">
        <ele>882.43798828125</ele>
        <time>2017-09-17T07:02:17Z</time>
      </trkpt>
      <trkpt lat="45.28419" lon="5.85956">
        <ele>882.43798828125</ele>
        <time>2017-09-17T07:02:20Z</time>
      </trkpt>
      <trkpt lat="45.28419" lon="5.85963">
        <ele>882.43798828125</ele>
        <time>2017-09-17T07:02:23Z</time>
      </trkpt>
      <trkpt lat="45.28423" lon="5.8597">
        <ele>881.43798828125</ele>
        <time>2017-09-17T07:02:25Z</time>
      </trkpt>
      <trkpt lat="45.28425" lon="5.85977">
        <ele>882.43798828125</ele>
        <time>2017-09-17T07:02:27Z</time>
      </trkpt>
      <trkpt lat="45.28429" lon="5.85983">
        <ele>884.43798828125</ele>
        <time>2017-09-17T07:02:30Z</time>
      </trkpt>
      <trkpt lat="45.28428" lon="5.85991">
        <ele>884.43798828125</ele>
        <time>2017-09-17T07:02:33Z</time>
      </trkpt>
      <trkpt lat="45.28429" lon="5.85998">
        <ele>882.43798828125</ele>
        <time>2017-09-17T07:02:36Z</time>
      </trkpt>
      <trkpt lat="45.28431" lon="5.86004">
        <ele>880.43798828125</ele>
        <time>2017-09-17T07:02:40Z</time>
      </trkpt>
      <trkpt lat="45.28431" lon="5.86013">
        <ele>878.43798828125</ele>
        <time>2017-09-17T07:02:44Z</time>
      </trkpt>
      <trkpt lat="45.28433" lon="5.86019">
        <ele>878.43798828125</ele>
        <time>2017-09-17T07:02:47Z</time>
      </trkpt>
      <trkpt lat="45.28436" lon="5.86027">
        <ele>879.43798828125</ele>
        <time>2017-09-17T07:02:51Z</time>
      </trkpt>
      <trkpt lat="45.28434" lon="5.86034">
        <ele>875.43798828125</ele>
        <time>2017-09-17T07:02:55Z</time>
      </trkpt>
      <trkpt lat="45.28434" lon="5.86042">
        <ele>874.43798828125</ele>
        <time>2017-09-17T07:02:58Z</time>
      </trkpt>
      <trkpt lat="45.28435" lon="5.8605">
        <ele>870.43798828125</ele>
        <time>2017-09-17T07:03:02Z</time>
      </trkpt>
      <trkpt lat="45.28434" lon="5.86056">
        <ele>870.43798828125</ele>
        <time>2017-09-17T07:03:06Z</time>
      </trkpt>
      <trkpt lat="45.28431" lon="5.86052">
        <ele>868.43798828125</ele>
        <time>2017-09-17T07:03:11Z</time>
      </trkpt>
      <trkpt lat="45.28429" lon="5.86043">
        <ele>867.43798828125</ele>
        <time>2017-09-17T07:03:16Z</time>
      </trkpt>
      <trkpt lat="45.28428" lon="5.86036">
        <ele>867.43798828125</ele>
        <time>2017-09-17T07:03:19Z</time>
      </trkpt>
      <trkpt lat="45.28429" lon="5.86028">
        <ele>867.43798828125</ele>
        <time>2017-09-17T07:03:22Z</time>
      </trkpt>
      <trkpt lat="45.28428" lon="5.86021">
        <ele>866.43798828125</ele>
        <time>2017-09-17T07:03:24Z</time>
      </trkpt>
      <trkpt lat="45.28425" lon="5.86014">
        <ele>864.43798828125</ele>
        <time>2017-09-17T07:03:26Z</time>
      </trkpt>
      <trkpt lat="45.28425" lon="5.86007">
        <ele>864.43798828125</ele>
        <time>2017-09-17T07:03:37Z</time>
      </trkpt>
      <trkpt lat="45.28424" lon="5.85999">
        <ele>862.43798828125</ele>
        <time>2017-09-17T07:03:44Z</time>
      </trkpt>
      <trkpt lat="45.28422" lon="5.85991">
        <ele>860.43798828125</ele>
        <time>2017-09-17T07:03:48Z</time>
      </trkpt>
      <trkpt lat="45.2842" lon="5.85985">
        <ele>857.43798828125</ele>
        <time>2017-09-17T07:03:52Z</time>
      </trkpt>
      <trkpt lat="45.28416" lon="5.8598">
        <ele>858.43798828125</ele>
        <time>2017-09-17T07:03:58Z</time>
      </trkpt>
      <trkpt lat="45.28415" lon="5.85973">
        <ele>859.43798828125</ele>
        <time>2017-09-17T07:04:05Z</time>
      </trkpt>
      <trkpt lat="45.28411" lon="5.85968">
        <ele>858.43798828125</ele>
        <time>2017-09-17T07:04:10Z</time>
      </trkpt>
      <trkpt lat="45.28407" lon="5.85963">
        <ele>858.43798828125</ele>
        <time>2017-09-17T07:04:14Z</time>
      </trkpt>
      <trkpt lat="45.28404" lon="5.8597">
        <ele>853.43798828125</ele>
        <time>2017-09-17T07:04:24Z</time>
      </trkpt>
      <trkpt lat="45.28403" lon="5.85976">
        <ele>851.43798828125</ele>
        <time>2017-09-17T07:04:29Z</time>
      </trkpt>
      <trkpt lat="45.28399" lon="5.85972">
        <ele>850.43798828125</ele>
        <time>2017-09-17T07:04:37Z</time>
      </trkpt>
      <trkpt lat="45.28396" lon="5.85966">
        <ele>849.43798828125</ele>
        <time>2017-09-17T07:04:41Z</time>
      </trkpt>
      <trkpt lat="45.28393" lon="5.8596">
        <ele>848.43798828125</ele>
        <time>2017-09-17T07:04:45Z</time>
      </trkpt>
      <trkpt lat="45.2839" lon="5.85954">
        <ele>849.43798828125</ele>
        <time>2017-09-17T07:04:49Z</time>
      </trkpt>
      <trkpt lat="45.28388" lon="5.85948">
        <ele>847.43798828125</ele>
        <time>2017-09-17T07:04:52Z</time>
      </trkpt>
      <trkpt lat="45.28384" lon="5.85943">
        <ele>847.43798828125</ele>
        <time>2017-09-17T07:04:56Z</time>
      </trkpt>
      <trkpt lat="45.28382" lon="5.85936">
        <ele>845.43798828125</ele>
        <time>2017-09-17T07:05:00Z</time>
      </trkpt>
      <trkpt lat="45.28383" lon="5.8593">
        <ele>841.43798828125</ele>
        <time>2017-09-17T07:05:02Z</time>
      </trkpt>
      <trkpt lat="45.28381" lon="5.85921">
        <ele>840.43798828125</ele>
        <time>2017-09-17T07:05:06Z</time>
      </trkpt>
      <trkpt lat="45.2838" lon="5.85915">
        <ele>837.43798828125</ele>
        <time>2017-09-17T07:05:09Z</time>
      </trkpt>
      <trkpt lat="45.28378" lon="5.85907">
        <ele>836.43798828125</ele>
        <time>2017-09-17T07:05:13Z</time>
      </trkpt>
      <trkpt lat="45.28379" lon="5.859">
        <ele>834.43798828125</ele>
        <time>2017-09-17T07:05:18Z</time>
      </trkpt>
      <trkpt lat="45.28379" lon="5.85893">
        <ele>833.43798828125</ele>
        <time>2017-09-17T07:05:22Z</time>
      </trkpt>
      <trkpt lat="45.2838" lon="5.85886">
        <ele>831.43798828125</ele>
        <time>2017-09-17T07:05:26Z</time>
      </trkpt>
      <trkpt lat="45.28381" lon="5.85879">
        <ele>830.43798828125</ele>
        <time>2017-09-17T07:05:30Z</time>
      </trkpt>
      <trkpt lat="45.28382" lon="5.85872">
        <ele>830.43798828125</ele>
        <time>2017-09-17T07:05:34Z</time>
      </trkpt>
      <trkpt lat="45.28384" lon="5.85864">
        <ele>828.43798828125</ele>
        <time>2017-09-17T07:05:38Z</time>
      </trkpt>
      <trkpt lat="45.28388" lon="5.85861">
        <ele>829.43798828125</ele>
        <time>2017-09-17T07:05:41Z</time>
      </trkpt>
      <trkpt lat="45.28393" lon="5.85856">
        <ele>831.43798828125</ele>
        <time>2017-09-17T07:05:45Z</time>
      </trkpt>
      <trkpt lat="45.28392" lon="5.85849">
        <ele>831.43798828125</ele>
        <time>2017-09-17T07:05:48Z</time>
      </trkpt>
      <trkpt lat="45.28394" lon="5.85842">
        <ele>832.43798828125</ele>
        <time>2017-09-17T07:05:53Z</time>
      </trkpt>
      <trkpt lat="45.28391" lon="5.85835">
        <ele>832.43798828125</ele>
        <time>2017-09-17T07:05:56Z</time>
      </trkpt>
      <trkpt lat="45.2839" lon="5.85829">
        <ele>830.43798828125</ele>
        <time>2017-09-17T07:05:59Z</time>
      </trkpt>
      <trkpt lat="45.28393" lon="5.85822">
        <ele>829.43798828125</ele>
        <time>2017-09-17T07:06:03Z</time>
      </trkpt>
      <trkpt lat="45.28398" lon="5.85818">
        <ele>831.43798828125</ele>
        <time>2017-09-17T07:06:05Z</time>
      </trkpt>
      <trkpt lat="45.284" lon="5.85811">
        <ele>830.43798828125</ele>
        <time>2017-09-17T07:06:09Z</time>
      </trkpt>
      <trkpt lat="45.284" lon="5.85804">
        <ele>830.43798828125</ele>
        <time>2017-09-17T07:06:14Z</time>
      </trkpt>
      <trkpt lat="45.28399" lon="5.85796">
        <ele>830.43798828125</ele>
        <time>2017-09-17T07:06:19Z</time>
      </trkpt>
      <trkpt lat="45.28398" lon="5.85788">
        <ele>829.43701171875</ele>
        <time>2017-09-17T07:06:23Z</time>
      </trkpt>
      <trkpt lat="45.28397" lon="5.85781">
        <ele>829.43701171875</ele>
        <time>2017-09-17T07:06:26Z</time>
      </trkpt>
      <trkpt lat="45.28398" lon="5.85774">
        <ele>826.43701171875</ele>
        <time>2017-09-17T07:06:28Z</time>
      </trkpt>
      <trkpt lat="45.28397" lon="5.85766">
        <ele>824.43701171875</ele>
        <time>2017-09-17T07:06:31Z</time>
      </trkpt>
      <trkpt lat="45.28395" lon="5.85759">
        <ele>824.43701171875</ele>
        <time>2017-09-17T07:06:35Z</time>
      </trkpt>
      <trkpt lat="45.28396" lon="5.85752">
        <ele>824.43701171875</ele>
        <time>2017-09-17T07:06:38Z</time>
      </trkpt>
      <trkpt lat="45.28395" lon="5.85744">
        <ele>822.43701171875</ele>
        <time>2017-09-17T07:06:42Z</time>
      </trkpt>
      <trkpt lat="45.28393" lon="5.85737">
        <ele>822.43701171875</ele>
        <time>2017-09-17T07:06:46Z</time>
      </trkpt>
      <trkpt lat="45.28392" lon="5.85731">
        <ele>820.43701171875</ele>
        <time>2017-09-17T07:06:50Z</time>
      </trkpt>
      <trkpt lat="45.28396" lon="5.85724">
        <ele>816.43701171875</ele>
        <time>2017-09-17T07:06:54Z</time>
      </trkpt>
      <trkpt lat="45.28404" lon="5.85717">
        <ele>815.43701171875</ele>
        <time>2017-09-17T07:06:57Z</time>
      </trkpt>
      <trkpt lat="45.28401" lon="5.8571">
        <ele>816.43701171875</ele>
        <time>2017-09-17T07:07:00Z</time>
      </trkpt>
      <trkpt lat="45.284" lon="5.85703">
        <ele>816.43701171875</ele>
        <time>2017-09-17T07:07:03Z</time>
      </trkpt>
      <trkpt lat="45.28397" lon="5.85696">
        <ele>813.43701171875</ele>
        <time>2017-09-17T07:07:06Z</time>
      </trkpt>
      <trkpt lat="45.28399" lon="5.85689">
        <ele>811.43701171875</ele>
        <time>2017-09-17T07:07:09Z</time>
      </trkpt>
      <trkpt lat="45.28402" lon="5.85684">
        <ele>811.43701171875</ele>
        <time>2017-09-17T07:07:13Z</time>
      </trkpt>
      <trkpt lat="45.284" lon="5.85677">
        <ele>812.43701171875</ele>
        <time>2017-09-17T07:07:19Z</time>
      </trkpt>
      <trkpt lat="45.28398" lon="5.85683">
        <ele>811.43701171875</ele>
        <time>2017-09-17T07:07:22Z</time>
      </trkpt>
      <trkpt lat="45.28392" lon="5.85686">
        <ele>811.43701171875</ele>
        <time>2017-09-17T07:07:26Z</time>
      </trkpt>
      <trkpt lat="45.2839" lon="5.85693">
        <ele>803.43701171875</ele>
        <time>2017-09-17T07:07:29Z</time>
      </trkpt>
      <trkpt lat="45.28388" lon="5.857">
        <ele>800.43701171875</ele>
        <time>2017-09-17T07:07:32Z</time>
      </trkpt>
      <trkpt lat="45.28386" lon="5.85706">
        <ele>799.43701171875</ele>
        <time>2017-09-17T07:07:34Z</time>
      </trkpt>
      <trkpt lat="45.28385" lon="5.85713">
        <ele>798.43701171875</ele>
        <time>2017-09-17T07:07:38Z</time>
      </trkpt>
      <trkpt lat="45.28382" lon="5.85721">
        <ele>796.43701171875</ele>
        <time>2017-09-17T07:07:42Z</time>
      </trkpt>
      <trkpt lat="45.28378" lon="5.85727">
        <ele>798.43701171875</ele>
        <time>2017-09-17T07:07:44Z</time>
      </trkpt>
      <trkpt lat="45.28377" lon="5.85734">
        <ele>798.43701171875</ele>
        <time>2017-09-17T07:07:47Z</time>
      </trkpt>
      <trkpt lat="45.28373" lon="5.8574">
        <ele>797.43701171875</ele>
        <time>2017-09-17T07:07:49Z</time>
      </trkpt>
      <trkpt lat="45.28376" lon="5.85748">
        <ele>795.43701171875</ele>
        <time>2017-09-17T07:07:52Z</time>
      </trkpt>
      <trkpt lat="45.28378" lon="5.85754">
        <ele>798.43701171875</ele>
        <time>2017-09-17T07:07:55Z</time>
      </trkpt>
      <trkpt lat="45.2837" lon="5.85762">
        <ele>799.43701171875</ele>
        <time>2017-09-17T07:07:59Z</time>
      </trkpt>
      <trkpt lat="45.28365" lon="5.85763">
        <ele>788.43701171875</ele>
        <time>2017-09-17T07:08:08Z</time>
      </trkpt>
      <trkpt lat="45.28372" lon="5.85762">
        <ele>789.43701171875</ele>
        <time>2017-09-17T07:08:11Z</time>
      </trkpt>
      <trkpt lat="45.28371" lon="5.85754">
        <ele>788.43701171875</ele>
        <time>2017-09-17T07:08:15Z</time>
      </trkpt>
      <trkpt lat="45.28373" lon="5.85747">
        <ele>786.43701171875</ele>
        <time>2017-09-17T07:08:19Z</time>
      </trkpt>
      <trkpt lat="45.28371" lon="5.85741">
        <ele>785.43701171875</ele>
        <time>2017-09-17T07:08:23Z</time>
      </trkpt>
      <trkpt lat="45.28367" lon="5.85735">
        <ele>787.43701171875</ele>
        <time>2017-09-17T07:08:26Z</time>
      </trkpt>
      <trkpt lat="45.28365" lon="5.85727">
        <ele>785.43701171875</ele>
        <time>2017-09-17T07:08:29Z</time>
      </trkpt>
      <trkpt lat="45.28365" lon="5.8572">
        <ele>788.43701171875</ele>
        <time>2017-09-17T07:08:32Z</time>
      </trkpt>
      <trkpt lat="45.28362" lon="5.85714">
        <ele>786.43701171875</ele>
        <time>2017-09-17T07:08:35Z</time>
      </trkpt>
      <trkpt lat="45.2836" lon="5.85707">
        <ele>786.43701171875</ele>
        <time>2017-09-17T07:08:37Z</time>
      </trkpt>
      <trkpt lat="45.28356" lon="5.85703">
        <ele>786.43701171875</ele>
        <time>2017-09-17T07:08:39Z</time>
      </trkpt>
      <trkpt lat="45.2836" lon="5.85699">
        <ele>785.43701171875</ele>
        <time>2017-09-17T07:08:42Z</time>
      </trkpt>
      <trkpt lat="45.28356" lon="5.85694">
        <ele>784.43701171875</ele>
        <time>2017-09-17T07:08:44Z</time>
      </trkpt>
      <trkpt lat="45.28355" lon="5.85687">
        <ele>786.43701171875</ele>
        <time>2017-09-17T07:08:48Z</time>
      </trkpt>
      <trkpt lat="45.28353" lon="5.85679">
        <ele>785.43701171875</ele>
        <time>2017-09-17T07:08:51Z</time>
      </trkpt>
      <trkpt lat="45.28352" lon="5.85671">
        <ele>779.43701171875</ele>
        <time>2017-09-17T07:08:56Z</time>
      </trkpt>
      <trkpt lat="45.28352" lon="5.85664">
        <ele>778.43701171875</ele>
        <time>2017-09-17T07:08:59Z</time>
      </trkpt>
      <trkpt lat="45.2835" lon="5.85656">
        <ele>775.43701171875</ele>
        <time>2017-09-17T07:09:02Z</time>
      </trkpt>
      <trkpt lat="45.2835" lon="5.85648">
        <ele>772.43701171875</ele>
        <time>2017-09-17T07:09:05Z</time>
      </trkpt>
      <trkpt lat="45.28352" lon="5.85642">
        <ele>770.43701171875</ele>
        <time>2017-09-17T07:09:08Z</time>
      </trkpt>
      <trkpt lat="45.28348" lon="5.85635">
        <ele>770.43701171875</ele>
        <time>2017-09-17T07:09:11Z</time>
      </trkpt>
      <trkpt lat="45.28346" lon="5.85629">
        <ele>770.43701171875</ele>
        <time>2017-09-17T07:09:14Z</time>
      </trkpt>
      <trkpt lat="45.28346" lon="5.85622">
        <ele>767.43701171875</ele>
        <time>2017-09-17T07:09:20Z</time>
      </trkpt>
      <trkpt lat="45.28346" lon="5.85613">
        <ele>764.43701171875</ele>
        <time>2017-09-17T07:09:25Z</time>
      </trkpt>
      <trkpt lat="45.28345" lon="5.85606">
        <ele>762.43701171875</ele>
        <time>2017-09-17T07:09:28Z</time>
      </trkpt>
      <trkpt lat="45.28342" lon="5.856">
        <ele>764.43701171875</ele>
        <time>2017-09-17T07:09:32Z</time>
      </trkpt>
      <trkpt lat="45.28343" lon="5.85591">
        <ele>762.43701171875</ele>
        <time>2017-09-17T07:09:36Z</time>
      </trkpt>
      <trkpt lat="45.28344" lon="5.85582">
        <ele>758.43701171875</ele>
        <time>2017-09-17T07:09:39Z</time>
      </trkpt>
      <trkpt lat="45.28342" lon="5.85575">
        <ele>754.43701171875</ele>
        <time>2017-09-17T07:09:43Z</time>
      </trkpt>
      <trkpt lat="45.28345" lon="5.85568">
        <ele>752.43701171875</ele>
        <time>2017-09-17T07:09:46Z</time>
      </trkpt>
      <trkpt lat="45.28347" lon="5.85562">
        <ele>753.43701171875</ele>
        <time>2017-09-17T07:09:50Z</time>
      </trkpt>
      <trkpt lat="45.28351" lon="5.85557">
        <ele>753.43701171875</ele>
        <time>2017-09-17T07:09:53Z</time>
      </trkpt>
      <trkpt lat="45.28353" lon="5.85551">
        <ele>755.43701171875</ele>
        <time>2017-09-17T07:09:59Z</time>
      </trkpt>
      <trkpt lat="45.28357" lon="5.85547">
        <ele>756.43701171875</ele>
        <time>2017-09-17T07:10:01Z</time>
      </trkpt>
      <trkpt lat="45.28356" lon="5.85538">
        <ele>757.43701171875</ele>
        <time>2017-09-17T07:10:04Z</time>
      </trkpt>
      <trkpt lat="45.28359" lon="5.85531">
        <ele>754.43701171875</ele>
        <time>2017-09-17T07:10:07Z</time>
      </trkpt>
      <trkpt lat="45.2836" lon="5.85524">
        <ele>752.43701171875</ele>
        <time>2017-09-17T07:10:09Z</time>
      </trkpt>
      <trkpt lat="45.28358" lon="5.85516">
        <ele>751.43701171875</ele>
        <time>2017-09-17T07:10:12Z</time>
      </trkpt>
      <trkpt lat="45.28358" lon="5.85507">
        <ele>749.43701171875</ele>
        <time>2017-09-17T07:10:15Z</time>
      </trkpt>
      <trkpt lat="45.28359" lon="5.85501">
        <ele>749.43701171875</ele>
        <time>2017-09-17T07:10:17Z</time>
      </trkpt>
      <trkpt lat="45.2836" lon="5.85493">
        <ele>746.43701171875</ele>
        <time>2017-09-17T07:10:19Z</time>
      </trkpt>
      <trkpt lat="45.28365" lon="5.85481">
        <ele>746.43701171875</ele>
        <time>2017-09-17T07:10:24Z</time>
      </trkpt>
      <trkpt lat="45.28366" lon="5.85473">
        <ele>742.43701171875</ele>
        <time>2017-09-17T07:10:28Z</time>
      </trkpt>
      <trkpt lat="45.28366" lon="5.85463">
        <ele>739.43701171875</ele>
        <time>2017-09-17T07:10:32Z</time>
      </trkpt>
      <trkpt lat="45.28364" lon="5.85455">
        <ele>738.43701171875</ele>
        <time>2017-09-17T07:10:36Z</time>
      </trkpt>
      <trkpt lat="45.28364" lon="5.85447">
        <ele>737.43701171875</ele>
        <time>2017-09-17T07:10:40Z</time>
      </trkpt>
      <trkpt lat="45.28362" lon="5.85439">
        <ele>737.43701171875</ele>
        <time>2017-09-17T07:10:42Z</time>
      </trkpt>
      <trkpt lat="45.28363" lon="5.85432">
        <ele>734.43701171875</ele>
        <time>2017-09-17T07:10:46Z</time>
      </trkpt>
      <trkpt lat="45.28364" lon="5.85425">
        <ele>731.43701171875</ele>
        <time>2017-09-17T07:10:57Z</time>
      </trkpt>
      <trkpt lat="45.28362" lon="5.85416">
        <ele>728.43701171875</ele>
        <time>2017-09-17T07:11:04Z</time>
      </trkpt>
      <trkpt lat="45.28359" lon="5.85408">
        <ele>725.43701171875</ele>
        <time>2017-09-17T07:11:06Z</time>
      </trkpt>
      <trkpt lat="45.28359" lon="5.85401">
        <ele>723.43701171875</ele>
        <time>2017-09-17T07:11:08Z</time>
      </trkpt>
      <trkpt lat="45.2836" lon="5.85394">
        <ele>726.43701171875</ele>
        <time>2017-09-17T07:11:11Z</time>
      </trkpt>
      <trkpt lat="45.28359" lon="5.85387">
        <ele>724.43701171875</ele>
        <time>2017-09-17T07:11:14Z</time>
      </trkpt>
      <trkpt lat="45.28358" lon="5.85379">
        <ele>725.43701171875</ele>
        <time>2017-09-17T07:11:18Z</time>
      </trkpt>
      <trkpt lat="45.2836" lon="5.85372">
        <ele>725.43701171875</ele>
        <time>2017-09-17T07:11:22Z</time>
      </trkpt>
      <trkpt lat="45.28361" lon="5.85366">
        <ele>725.43701171875</ele>
        <time>2017-09-17T07:11:25Z</time>
      </trkpt>
      <trkpt lat="45.2836" lon="5.85358">
        <ele>722.43701171875</ele>
        <time>2017-09-17T07:11:27Z</time>
      </trkpt>
      <trkpt lat="45.28359" lon="5.85351">
        <ele>719.43701171875</ele>
        <time>2017-09-17T07:11:30Z</time>
      </trkpt>
      <trkpt lat="45.28358" lon="5.85343">
        <ele>717.43701171875</ele>
        <time>2017-09-17T07:11:33Z</time>
      </trkpt>
      <trkpt lat="45.28359" lon="5.85336">
        <ele>716.43701171875</ele>
        <time>2017-09-17T07:11:35Z</time>
      </trkpt>
      <trkpt lat="45.28354" lon="5.85338">
        <ele>712.43701171875</ele>
        <time>2017-09-17T07:11:44Z</time>
      </trkpt>
      <trkpt lat="45.28349" lon="5.85341">
        <ele>774.43701171875</ele>
        <time>2017-09-17T07:11:49Z</time>
      </trkpt>
      <trkpt lat="45.28345" lon="5.85341">
        <ele>735.43701171875</ele>
        <time>2017-09-17T07:11:53Z</time>
      </trkpt>
      <trkpt lat="45.28339" lon="5.85343">
        <ele>715.43701171875</ele>
        <time>2017-09-17T07:11:59Z</time>
      </trkpt>
      <trkpt lat="45.28334" lon="5.85345">
        <ele>713.43701171875</ele>
        <time>2017-09-17T07:12:02Z</time>
      </trkpt>
      <trkpt lat="45.28329" lon="5.85347">
        <ele>706.43701171875</ele>
        <time>2017-09-17T07:12:05Z</time>
      </trkpt>
      <trkpt lat="45.28324" lon="5.85352">
        <ele>703.43701171875</ele>
        <time>2017-09-17T07:12:08Z</time>
      </trkpt>
      <trkpt lat="45.28322" lon="5.85361">
        <ele>699.43701171875</ele>
        <time>2017-09-17T07:12:10Z</time>
      </trkpt>
      <trkpt lat="45.28319" lon="5.85367">
        <ele>696.43701171875</ele>
        <time>2017-09-17T07:12:12Z</time>
      </trkpt>
      <trkpt lat="45.28316" lon="5.85374">
        <ele>691.43701171875</ele>
        <time>2017-09-17T07:12:15Z</time>
      </trkpt>
      <trkpt lat="45.28314" lon="5.85379">
        <ele>688.43701171875</ele>
        <time>2017-09-17T07:12:18Z</time>
      </trkpt>
      <trkpt lat="45.2831" lon="5.85386">
        <ele>689.43701171875</ele>
        <time>2017-09-17T07:12:23Z</time>
      </trkpt>
      <trkpt lat="45.28308" lon="5.85394">
        <ele>684.43701171875</ele>
        <time>2017-09-17T07:12:26Z</time>
      </trkpt>
      <trkpt lat="45.28306" lon="5.85401">
        <ele>682.43701171875</ele>
        <time>2017-09-17T07:12:29Z</time>
      </trkpt>
      <trkpt lat="45.28304" lon="5.85395">
        <ele>680.43701171875</ele>
        <time>2017-09-17T07:12:39Z</time>
      </trkpt>
      <trkpt lat="45.28303" lon="5.85388">
        <ele>678.43701171875</ele>
        <time>2017-09-17T07:12:42Z</time>
      </trkpt>
      <trkpt lat="45.28301" lon="5.85382">
        <ele>677.43701171875</ele>
        <time>2017-09-17T07:12:48Z</time>
      </trkpt>
      <trkpt lat="45.28297" lon="5.85377">
        <ele>676.43701171875</ele>
        <time>2017-09-17T07:12:52Z</time>
      </trkpt>
      <trkpt lat="45.28295" lon="5.8537">
        <ele>675.43701171875</ele>
        <time>2017-09-17T07:12:56Z</time>
      </trkpt>
      <trkpt lat="45.28295" lon="5.85363">
        <ele>674.43701171875</ele>
        <time>2017-09-17T07:12:59Z</time>
      </trkpt>
      <trkpt lat="45.28296" lon="5.85357">
        <ele>672.43701171875</ele>
        <time>2017-09-17T07:13:01Z</time>
      </trkpt>
      <trkpt lat="45.28296" lon="5.85348">
        <ele>669.43701171875</ele>
        <time>2017-09-17T07:13:04Z</time>
      </trkpt>
      <trkpt lat="45.28299" lon="5.8534">
        <ele>666.43701171875</ele>
        <time>2017-09-17T07:13:07Z</time>
      </trkpt>
      <trkpt lat="45.28301" lon="5.85331">
        <ele>665.43701171875</ele>
        <time>2017-09-17T07:13:09Z</time>
      </trkpt>
      <trkpt lat="45.28302" lon="5.85324">
        <ele>665.43701171875</ele>
        <time>2017-09-17T07:13:12Z</time>
      </trkpt>
      <trkpt lat="45.283" lon="5.85316">
        <ele>662.43701171875</ele>
        <time>2017-09-17T07:13:14Z</time>
      </trkpt>
      <trkpt lat="45.28305" lon="5.8531">
        <ele>660.43701171875</ele>
        <time>2017-09-17T07:13:16Z</time>
      </trkpt>
      <trkpt lat="45.28303" lon="5.85301">
        <ele>659.43701171875</ele>
        <time>2017-09-17T07:13:18Z</time>
      </trkpt>
      <trkpt lat="45.28307" lon="5.85298">
        <ele>659.43701171875</ele>
        <time>2017-09-17T07:13:21Z</time>
      </trkpt>
      <trkpt lat="45.28309" lon="5.85291">
        <ele>659.43701171875</ele>
        <time>2017-09-17T07:13:26Z</time>
      </trkpt>
      <trkpt lat="45.28307" lon="5.85285">
        <ele>659.43701171875</ele>
        <time>2017-09-17T07:13:31Z</time>
      </trkpt>
      <trkpt lat="45.28307" lon="5.85278">
        <ele>660.43701171875</ele>
        <time>2017-09-17T07:13:35Z</time>
      </trkpt>
      <trkpt lat="45.28302" lon="5.85273">
        <ele>658.43701171875</ele>
        <time>2017-09-17T07:13:39Z</time>
      </trkpt>
      <trkpt lat="45.28301" lon="5.85266">
        <ele>648.43701171875</ele>
        <time>2017-09-17T07:13:43Z</time>
      </trkpt>
      <trkpt lat="45.28298" lon="5.85261">
        <ele>650.43701171875</ele>
        <time>2017-09-17T07:13:48Z</time>
      </trkpt>
      <trkpt lat="45.28294" lon="5.85257">
        <ele>651.43701171875</ele>
        <time>2017-09-17T07:13:55Z</time>
      </trkpt>
      <trkpt lat="45.28292" lon="5.8525">
        <ele>649.43701171875</ele>
        <time>2017-09-17T07:14:00Z</time>
      </trkpt>
      <trkpt lat="45.28287" lon="5.85252">
        <ele>649.43701171875</ele>
        <time>2017-09-17T07:14:05Z</time>
      </trkpt>
      <trkpt lat="45.28284" lon="5.85258">
        <ele>645.43701171875</ele>
        <time>2017-09-17T07:14:11Z</time>
      </trkpt>
      <trkpt lat="45.28279" lon="5.85261">
        <ele>642.43701171875</ele>
        <time>2017-09-17T07:14:16Z</time>
      </trkpt>
      <trkpt lat="45.28274" lon="5.85258">
        <ele>638.43701171875</ele>
        <time>2017-09-17T07:14:22Z</time>
      </trkpt>
      <trkpt lat="45.28269" lon="5.85256">
        <ele>634.43701171875</ele>
        <time>2017-09-17T07:14:28Z</time>
      </trkpt>
      <trkpt lat="45.28265" lon="5.8525">
        <ele>631.43597412109</ele>
        <time>2017-09-17T07:14:32Z</time>
      </trkpt>
      <trkpt lat="45.28267" lon="5.85242">
        <ele>626.43597412109</ele>
        <time>2017-09-17T07:14:36Z</time>
      </trkpt>
      <trkpt lat="45.28268" lon="5.85235">
        <ele>625.43597412109</ele>
        <time>2017-09-17T07:14:39Z</time>
      </trkpt>
      <trkpt lat="45.28272" lon="5.85229">
        <ele>624.43597412109</ele>
        <time>2017-09-17T07:14:43Z</time>
      </trkpt>
      <trkpt lat="45.28277" lon="5.85226">
        <ele>622.43597412109</ele>
        <time>2017-09-17T07:14:47Z</time>
      </trkpt>
      <trkpt lat="45.28279" lon="5.85218">
        <ele>622.43597412109</ele>
        <time>2017-09-17T07:14:50Z</time>
      </trkpt>
      <trkpt lat="45.28281" lon="5.85211">
        <ele>618.43597412109</ele>
        <time>2017-09-17T07:14:54Z</time>
      </trkpt>
      <trkpt lat="45.28278" lon="5.85206">
        <ele>616.43597412109</ele>
        <time>2017-09-17T07:15:00Z</time>
      </trkpt>
      <trkpt lat="45.28273" lon="5.85201">
        <ele>615.43597412109</ele>
        <time>2017-09-17T07:15:08Z</time>
      </trkpt>
      <trkpt lat="45.28271" lon="5.85207">
        <ele>613.43597412109</ele>
        <time>2017-09-17T07:15:11Z</time>
      </trkpt>
      <trkpt lat="45.28265" lon="5.8521">
        <ele>611.43597412109</ele>
        <time>2017-09-17T07:15:17Z</time>
      </trkpt>
      <trkpt lat="45.28259" lon="5.85209">
        <ele>599.43597412109</ele>
        <time>2017-09-17T07:15:32Z</time>
      </trkpt>
      <trkpt lat="45.28254" lon="5.85208">
        <ele>596.43597412109</ele>
        <time>2017-09-17T07:15:37Z</time>
      </trkpt>
      <trkpt lat="45.28249" lon="5.85211">
        <ele>596.43597412109</ele>
        <time>2017-09-17T07:15:41Z</time>
      </trkpt>
      <trkpt lat="45.28245" lon="5.85214">
        <ele>597.43597412109</ele>
        <time>2017-09-17T07:15:44Z</time>
      </trkpt>
      <trkpt lat="45.2824" lon="5.85212">
        <ele>599.43597412109</ele>
        <time>2017-09-17T07:15:47Z</time>
      </trkpt>
      <trkpt lat="45.28235" lon="5.85213">
        <ele>594.43597412109</ele>
        <time>2017-09-17T07:15:50Z</time>
      </trkpt>
      <trkpt lat="45.28233" lon="5.8522">
        <ele>594.43597412109</ele>
        <time>2017-09-17T07:15:55Z</time>
      </trkpt>
      <trkpt lat="45.2823" lon="5.85227">
        <ele>591.43597412109</ele>
        <time>2017-09-17T07:15:59Z</time>
      </trkpt>
      <trkpt lat="45.28226" lon="5.85228">
        <ele>588.43597412109</ele>
        <time>2017-09-17T07:16:07Z</time>
      </trkpt>
      <trkpt lat="45.28224" lon="5.85236">
        <ele>587.43597412109</ele>
        <time>2017-09-17T07:16:12Z</time>
      </trkpt>
      <trkpt lat="45.28224" lon="5.85243">
        <ele>585.43597412109</ele>
        <time>2017-09-17T07:16:16Z</time>
      </trkpt>
      <trkpt lat="45.28224" lon="5.8525">
        <ele>582.43597412109</ele>
        <time>2017-09-17T07:16:21Z</time>
      </trkpt>
      <trkpt lat="45.28223" lon="5.85258">
        <ele>581.43597412109</ele>
        <time>2017-09-17T07:16:25Z</time>
      </trkpt>
      <trkpt lat="45.2822" lon="5.85264">
        <ele>582.43597412109</ele>
        <time>2017-09-17T07:16:32Z</time>
      </trkpt>
      <trkpt lat="45.28219" lon="5.8527">
        <ele>584.43597412109</ele>
        <time>2017-09-17T07:16:37Z</time>
      </trkpt>
      <trkpt lat="45.28215" lon="5.85274">
        <ele>584.43597412109</ele>
        <time>2017-09-17T07:16:41Z</time>
      </trkpt>
      <trkpt lat="45.28212" lon="5.85279">
        <ele>584.43597412109</ele>
        <time>2017-09-17T07:16:45Z</time>
      </trkpt>
      <trkpt lat="45.28211" lon="5.85286">
        <ele>581.43597412109</ele>
        <time>2017-09-17T07:16:48Z</time>
      </trkpt>
      <trkpt lat="45.28211" lon="5.85294">
        <ele>577.43597412109</ele>
        <time>2017-09-17T07:16:50Z</time>
      </trkpt>
      <trkpt lat="45.28211" lon="5.85306">
        <ele>575.43597412109</ele>
        <time>2017-09-17T07:16:53Z</time>
      </trkpt>
      <trkpt lat="45.2821" lon="5.85313">
        <ele>573.43597412109</ele>
        <time>2017-09-17T07:16:55Z</time>
      </trkpt>
      <trkpt lat="45.28208" lon="5.85324">
        <ele>569.43597412109</ele>
        <time>2017-09-17T07:16:58Z</time>
      </trkpt>
      <trkpt lat="45.28209" lon="5.85331">
        <ele>568.43597412109</ele>
        <time>2017-09-17T07:17:00Z</time>
      </trkpt>
      <trkpt lat="45.28207" lon="5.85339">
        <ele>566.43597412109</ele>
        <time>2017-09-17T07:17:03Z</time>
      </trkpt>
      <trkpt lat="45.28205" lon="5.85345">
        <ele>565.43597412109</ele>
        <time>2017-09-17T07:17:06Z</time>
      </trkpt>
      <trkpt lat="45.28203" lon="5.85352">
        <ele>562.43597412109</ele>
        <time>2017-09-17T07:17:12Z</time>
      </trkpt>
      <trkpt lat="45.28202" lon="5.85361">
        <ele>556.43701171875</ele>
        <time>2017-09-17T07:17:14Z</time>
      </trkpt>
      <trkpt lat="45.28202" lon="5.85369">
        <ele>552.43701171875</ele>
        <time>2017-09-17T07:17:17Z</time>
      </trkpt>
      <trkpt lat="45.28201" lon="5.85376">
        <ele>554.43701171875</ele>
        <time>2017-09-17T07:17:19Z</time>
      </trkpt>
      <trkpt lat="45.28202" lon="5.85383">
        <ele>552.43701171875</ele>
        <time>2017-09-17T07:17:21Z</time>
      </trkpt>
      <trkpt lat="45.28201" lon="5.85392">
        <ele>550.43701171875</ele>
        <time>2017-09-17T07:17:24Z</time>
      </trkpt>
      <trkpt lat="45.282" lon="5.85399">
        <ele>549.43701171875</ele>
        <time>2017-09-17T07:17:28Z</time>
      </trkpt>
      <trkpt lat="45.28199" lon="5.85407">
        <ele>548.43701171875</ele>
        <time>2017-09-17T07:17:33Z</time>
      </trkpt>
      <trkpt lat="45.28198" lon="5.85414">
        <ele>550.43701171875</ele>
        <time>2017-09-17T07:17:36Z</time>
      </trkpt>
      <trkpt lat="45.28197" lon="5.85422">
        <ele>550.43701171875</ele>
        <time>2017-09-17T07:17:39Z</time>
      </trkpt>
      <trkpt lat="45.28194" lon="5.85427">
        <ele>548.43701171875</ele>
        <time>2017-09-17T07:17:43Z</time>
      </trkpt>
      <trkpt lat="45.28189" lon="5.85427">
        <ele>548.43701171875</ele>
        <time>2017-09-17T07:17:49Z</time>
      </trkpt>
      <trkpt lat="45.28184" lon="5.85426">
        <ele>548.43701171875</ele>
        <time>2017-09-17T07:17:53Z</time>
      </trkpt>
      <trkpt lat="45.2818" lon="5.85436">
        <ele>542.43701171875</ele>
        <time>2017-09-17T07:17:57Z</time>
      </trkpt>
      <trkpt lat="45.28178" lon="5.85443">
        <ele>540.43701171875</ele>
        <time>2017-09-17T07:17:59Z</time>
      </trkpt>
      <trkpt lat="45.28175" lon="5.85448">
        <ele>536.43701171875</ele>
        <time>2017-09-17T07:18:03Z</time>
      </trkpt>
      <trkpt lat="45.28173" lon="5.85455">
        <ele>534.43701171875</ele>
        <time>2017-09-17T07:18:07Z</time>
      </trkpt>
      <trkpt lat="45.28172" lon="5.85463">
        <ele>530.43701171875</ele>
        <time>2017-09-17T07:18:13Z</time>
      </trkpt>
      <trkpt lat="45.2817" lon="5.85469">
        <ele>527.43701171875</ele>
        <time>2017-09-17T07:18:17Z</time>
      </trkpt>
      <trkpt lat="45.28168" lon="5.85476">
        <ele>525.43701171875</ele>
        <time>2017-09-17T07:18:22Z</time>
      </trkpt>
      <trkpt lat="45.28164" lon="5.85483">
        <ele>526.43701171875</ele>
        <time>2017-09-17T07:18:25Z</time>
      </trkpt>
      <trkpt lat="45.28163" lon="5.85491">
        <ele>526.43701171875</ele>
        <time>2017-09-17T07:18:29Z</time>
      </trkpt>
      <trkpt lat="45.28163" lon="5.85498">
        <ele>527.43701171875</ele>
        <time>2017-09-17T07:18:33Z</time>
      </trkpt>
      <trkpt lat="45.28167" lon="5.85501">
        <ele>528.43701171875</ele>
        <time>2017-09-17T07:18:36Z</time>
      </trkpt>
      <trkpt lat="45.28173" lon="5.85502">
        <ele>533.43701171875</ele>
        <time>2017-09-17T07:18:39Z</time>
      </trkpt>
      <trkpt lat="45.28177" lon="5.85505">
        <ele>530.43701171875</ele>
        <time>2017-09-17T07:18:43Z</time>
      </trkpt>
      <trkpt lat="45.28174" lon="5.85511">
        <ele>530.43701171875</ele>
        <time>2017-09-17T07:18:50Z</time>
      </trkpt>
      <trkpt lat="45.2818" lon="5.85511">
        <ele>528.43701171875</ele>
        <time>2017-09-17T07:18:52Z</time>
      </trkpt>
      <trkpt lat="45.28177" lon="5.85515">
        <ele>529.43701171875</ele>
        <time>2017-09-17T07:18:54Z</time>
      </trkpt>
      <trkpt lat="45.28173" lon="5.8552">
        <ele>527.43701171875</ele>
        <time>2017-09-17T07:19:00Z</time>
      </trkpt>
      <trkpt lat="45.28168" lon="5.85525">
        <ele>527.43701171875</ele>
        <time>2017-09-17T07:19:02Z</time>
      </trkpt>
      <trkpt lat="45.28164" lon="5.85529">
        <ele>528.43701171875</ele>
        <time>2017-09-17T07:19:05Z</time>
      </trkpt>
      <trkpt lat="45.2816" lon="5.85536">
        <ele>526.43701171875</ele>
        <time>2017-09-17T07:19:09Z</time>
      </trkpt>
      <trkpt lat="45.28159" lon="5.85542">
        <ele>524.43701171875</ele>
        <time>2017-09-17T07:19:11Z</time>
      </trkpt>
      <trkpt lat="45.28154" lon="5.85545">
        <ele>523.43701171875</ele>
        <time>2017-09-17T07:19:14Z</time>
      </trkpt>
      <trkpt lat="45.28152" lon="5.85552">
        <ele>523.43701171875</ele>
        <time>2017-09-17T07:19:17Z</time>
      </trkpt>
      <trkpt lat="45.28151" lon="5.85559">
        <ele>525.43701171875</ele>
        <time>2017-09-17T07:19:23Z</time>
      </trkpt>
      <trkpt lat="45.28148" lon="5.85565">
        <ele>524.43701171875</ele>
        <time>2017-09-17T07:19:28Z</time>
      </trkpt>
      <trkpt lat="45.28146" lon="5.85572">
        <ele>521.43701171875</ele>
        <time>2017-09-17T07:19:32Z</time>
      </trkpt>
      <trkpt lat="45.28143" lon="5.8558">
        <ele>526.43701171875</ele>
        <time>2017-09-17T07:19:37Z</time>
      </trkpt>
      <trkpt lat="45.2814" lon="5.85585">
        <ele>525.43701171875</ele>
        <time>2017-09-17T07:19:39Z</time>
      </trkpt>
      <trkpt lat="45.28138" lon="5.85591">
        <ele>529.43701171875</ele>
        <time>2017-09-17T07:19:41Z</time>
      </trkpt>
      <trkpt lat="45.28135" lon="5.85596">
        <ele>532.43701171875</ele>
        <time>2017-09-17T07:19:43Z</time>
      </trkpt>
      <trkpt lat="45.28134" lon="5.85606">
        <ele>530.43701171875</ele>
        <time>2017-09-17T07:19:46Z</time>
      </trkpt>
      <trkpt lat="45.28133" lon="5.85613">
        <ele>534.43701171875</ele>
        <time>2017-09-17T07:19:50Z</time>
      </trkpt>
      <trkpt lat="45.28132" lon="5.85621">
        <ele>538.43701171875</ele>
        <time>2017-09-17T07:19:53Z</time>
      </trkpt>
      <trkpt lat="45.28129" lon="5.85628">
        <ele>540.43701171875</ele>
        <time>2017-09-17T07:19:57Z</time>
      </trkpt>
      <trkpt lat="45.2813" lon="5.85634">
        <ele>540.43701171875</ele>
        <time>2017-09-17T07:20:00Z</time>
      </trkpt>
      <trkpt lat="45.28132" lon="5.85642">
        <ele>539.43701171875</ele>
        <time>2017-09-17T07:20:03Z</time>
      </trkpt>
      <trkpt lat="45.2813" lon="5.85648">
        <ele>541.43701171875</ele>
        <time>2017-09-17T07:20:06Z</time>
      </trkpt>
      <trkpt lat="45.28128" lon="5.85655">
        <ele>542.43701171875</ele>
        <time>2017-09-17T07:20:10Z</time>
      </trkpt>
      <trkpt lat="45.28127" lon="5.85663">
        <ele>539.43701171875</ele>
        <time>2017-09-17T07:20:13Z</time>
      </trkpt>
      <trkpt lat="45.28125" lon="5.85671">
        <ele>536.43701171875</ele>
        <time>2017-09-17T07:20:17Z</time>
      </trkpt>
      <trkpt lat="45.28123" lon="5.85679">
        <ele>536.43701171875</ele>
        <time>2017-09-17T07:20:19Z</time>
      </trkpt>
      <trkpt lat="45.28121" lon="5.85696">
        <ele>533.43701171875</ele>
        <time>2017-09-17T07:20:23Z</time>
      </trkpt>
      <trkpt lat="45.2812" lon="5.85705">
        <ele>535.43701171875</ele>
        <time>2017-09-17T07:20:25Z</time>
      </trkpt>
      <trkpt lat="45.28118" lon="5.85711">
        <ele>535.43701171875</ele>
        <time>2017-09-17T07:20:27Z</time>
      </trkpt>
      <trkpt lat="45.28118" lon="5.8572">
        <ele>532.43701171875</ele>
        <time>2017-09-17T07:20:30Z</time>
      </trkpt>
      <trkpt lat="45.28118" lon="5.85726">
        <ele>531.43701171875</ele>
        <time>2017-09-17T07:20:33Z</time>
      </trkpt>
      <trkpt lat="45.28116" lon="5.85733">
        <ele>532.43701171875</ele>
        <time>2017-09-17T07:20:37Z</time>
      </trkpt>
      <trkpt lat="45.28112" lon="5.85737">
        <ele>531.43701171875</ele>
        <time>2017-09-17T07:20:41Z</time>
      </trkpt>
      <trkpt lat="45.28109" lon="5.85744">
        <ele>532.43701171875</ele>
        <time>2017-09-17T07:20:45Z</time>
      </trkpt>
      <trkpt lat="45.28107" lon="5.8575">
        <ele>531.43701171875</ele>
        <time>2017-09-17T07:20:47Z</time>
      </trkpt>
      <trkpt lat="45.28103" lon="5.85756">
        <ele>528.43701171875</ele>
        <time>2017-09-17T07:20:50Z</time>
      </trkpt>
      <trkpt lat="45.28101" lon="5.85763">
        <ele>528.43701171875</ele>
        <time>2017-09-17T07:20:53Z</time>
      </trkpt>
      <trkpt lat="45.281" lon="5.8577">
        <ele>524.43701171875</ele>
        <time>2017-09-17T07:20:56Z</time>
      </trkpt>
      <trkpt lat="45.28098" lon="5.85777">
        <ele>520.43701171875</ele>
        <time>2017-09-17T07:21:00Z</time>
      </trkpt>
      <trkpt lat="45.28097" lon="5.85785">
        <ele>515.43701171875</ele>
        <time>2017-09-17T07:21:04Z</time>
      </trkpt>
      <trkpt lat="45.28096" lon="5.85791">
        <ele>512.43701171875</ele>
        <time>2017-09-17T07:21:07Z</time>
      </trkpt>
      <trkpt lat="45.28093" lon="5.85796">
        <ele>511.43701171875</ele>
        <time>2017-09-17T07:21:10Z</time>
      </trkpt>
      <trkpt lat="45.28092" lon="5.85802">
        <ele>511.43701171875</ele>
        <time>2017-09-17T07:21:13Z</time>
      </trkpt>
      <trkpt lat="45.28092" lon="5.8581">
        <ele>507.43701171875</ele>
        <time>2017-09-17T07:21:17Z</time>
      </trkpt>
      <trkpt lat="45.28091" lon="5.85817">
        <ele>506.43701171875</ele>
        <time>2017-09-17T07:21:21Z</time>
      </trkpt>
      <trkpt lat="45.28092" lon="5.85824">
        <ele>503.43701171875</ele>
        <time>2017-09-17T07:21:25Z</time>
      </trkpt>
      <trkpt lat="45.28092" lon="5.85831">
        <ele>500.43701171875</ele>
        <time>2017-09-17T07:21:33Z</time>
      </trkpt>
      <trkpt lat="45.28091" lon="5.85837">
        <ele>498.43701171875</ele>
        <time>2017-09-17T07:21:50Z</time>
      </trkpt>
      <trkpt lat="45.28087" lon="5.8584">
        <ele>494.43701171875</ele>
        <time>2017-09-17T07:21:58Z</time>
      </trkpt>
      <trkpt lat="45.28082" lon="5.85837">
        <ele>493.43701171875</ele>
        <time>2017-09-17T07:22:07Z</time>
      </trkpt>
      <trkpt lat="45.28078" lon="5.85834">
        <ele>490.43701171875</ele>
        <time>2017-09-17T07:22:15Z</time>
      </trkpt>
      <trkpt lat="45.28072" lon="5.85833">
        <ele>484.43701171875</ele>
        <time>2017-09-17T07:22:22Z</time>
      </trkpt>
      <trkpt lat="45.28067" lon="5.85833">
        <ele>483.43701171875</ele>
        <time>2017-09-17T07:22:27Z</time>
      </trkpt>
      <trkpt lat="45.28063" lon="5.85834">
        <ele>480.43701171875</ele>
        <time>2017-09-17T07:22:34Z</time>
      </trkpt>
      <trkpt lat="45.28058" lon="5.85838">
        <ele>478.43701171875</ele>
        <time>2017-09-17T07:22:40Z</time>
      </trkpt>
      <trkpt lat="45.28053" lon="5.85839">
        <ele>475.43701171875</ele>
        <time>2017-09-17T07:22:44Z</time>
      </trkpt>
      <trkpt lat="45.28047" lon="5.85841">
        <ele>474.43701171875</ele>
        <time>2017-09-17T07:22:51Z</time>
      </trkpt>
      <trkpt lat="45.28043" lon="5.85847">
        <ele>470.43701171875</ele>
        <time>2017-09-17T07:22:56Z</time>
      </trkpt>
      <trkpt lat="45.28039" lon="5.85852">
        <ele>469.43701171875</ele>
        <time>2017-09-17T07:23:01Z</time>
      </trkpt>
      <trkpt lat="45.28034" lon="5.85856">
        <ele>468.43701171875</ele>
        <time>2017-09-17T07:23:05Z</time>
      </trkpt>
      <trkpt lat="45.2803" lon="5.85861">
        <ele>463.43701171875</ele>
        <time>2017-09-17T07:23:12Z</time>
      </trkpt>
      <trkpt lat="45.28026" lon="5.85864">
        <ele>462.43701171875</ele>
        <time>2017-09-17T07:23:18Z</time>
      </trkpt>
      <trkpt lat="45.28021" lon="5.85866">
        <ele>462.43701171875</ele>
        <time>2017-09-17T07:23:23Z</time>
      </trkpt>
      <trkpt lat="45.28016" lon="5.8587">
        <ele>461.43701171875</ele>
        <time>2017-09-17T07:23:26Z</time>
      </trkpt>
      <trkpt lat="45.28012" lon="5.8587">
        <ele>461.43701171875</ele>
        <time>2017-09-17T07:23:31Z</time>
      </trkpt>
      <trkpt lat="45.28007" lon="5.85873">
        <ele>461.43701171875</ele>
        <time>2017-09-17T07:23:35Z</time>
      </trkpt>
      <trkpt lat="45.28002" lon="5.85875">
        <ele>459.43701171875</ele>
        <time>2017-09-17T07:23:39Z</time>
      </trkpt>
      <trkpt lat="45.27997" lon="5.85878">
        <ele>457.43701171875</ele>
        <time>2017-09-17T07:23:43Z</time>
      </trkpt>
      <trkpt lat="45.27992" lon="5.8588">
        <ele>450.43701171875</ele>
        <time>2017-09-17T07:23:51Z</time>
      </trkpt>
      <trkpt lat="45.27987" lon="5.85883">
        <ele>448.43701171875</ele>
        <time>2017-09-17T07:23:55Z</time>
      </trkpt>
      <trkpt lat="45.27983" lon="5.85886">
        <ele>447.43701171875</ele>
        <time>2017-09-17T07:23:58Z</time>
      </trkpt>
      <trkpt lat="45.27979" lon="5.85891">
        <ele>445.43701171875</ele>
        <time>2017-09-17T07:24:00Z</time>
      </trkpt>
      <trkpt lat="45.27975" lon="5.85895">
        <ele>442.43701171875</ele>
        <time>2017-09-17T07:24:03Z</time>
      </trkpt>
      <trkpt lat="45.2797" lon="5.85898">
        <ele>438.43701171875</ele>
        <time>2017-09-17T07:24:07Z</time>
      </trkpt>
      <trkpt lat="45.27965" lon="5.85899">
        <ele>435.43701171875</ele>
        <time>2017-09-17T07:24:10Z</time>
      </trkpt>
      <trkpt lat="45.27961" lon="5.85904">
        <ele>435.43701171875</ele>
        <time>2017-09-17T07:24:13Z</time>
      </trkpt>
      <trkpt lat="45.27957" lon="5.85908">
        <ele>434.43701171875</ele>
        <time>2017-09-17T07:24:16Z</time>
      </trkpt>
      <trkpt lat="45.27954" lon="5.85916">
        <ele>432.43701171875</ele>
        <time>2017-09-17T07:24:19Z</time>
      </trkpt>
      <trkpt lat="45.27954" lon="5.85923">
        <ele>430.43701171875</ele>
        <time>2017-09-17T07:24:24Z</time>
      </trkpt>
      <trkpt lat="45.27956" lon="5.8593">
        <ele>428.43701171875</ele>
        <time>2017-09-17T07:24:26Z</time>
      </trkpt>
      <trkpt lat="45.27958" lon="5.85937">
        <ele>426.43701171875</ele>
        <time>2017-09-17T07:24:28Z</time>
      </trkpt>
      <trkpt lat="45.2796" lon="5.85944">
        <ele>425.43701171875</ele>
        <time>2017-09-17T07:24:31Z</time>
      </trkpt>
      <trkpt lat="45.27963" lon="5.85949">
        <ele>425.43701171875</ele>
        <time>2017-09-17T07:24:34Z</time>
      </trkpt>
      <trkpt lat="45.27964" lon="5.85964">
        <ele>422.43701171875</ele>
        <time>2017-09-17T07:24:37Z</time>
      </trkpt>
      <trkpt lat="45.27964" lon="5.85974">
        <ele>422.43701171875</ele>
        <time>2017-09-17T07:24:41Z</time>
      </trkpt>
      <trkpt lat="45.27967" lon="5.85981">
        <ele>423.43701171875</ele>
        <time>2017-09-17T07:24:44Z</time>
      </trkpt>
      <trkpt lat="45.27971" lon="5.8599">
        <ele>422.43701171875</ele>
        <time>2017-09-17T07:24:47Z</time>
      </trkpt>
      <trkpt lat="45.27972" lon="5.85996">
        <ele>423.43701171875</ele>
        <time>2017-09-17T07:24:49Z</time>
      </trkpt>
      <trkpt lat="45.27976" lon="5.86002">
        <ele>421.43701171875</ele>
        <time>2017-09-17T07:24:52Z</time>
      </trkpt>
      <trkpt lat="45.27979" lon="5.86007">
        <ele>421.43701171875</ele>
        <time>2017-09-17T07:24:54Z</time>
      </trkpt>
      <trkpt lat="45.27985" lon="5.86012">
        <ele>422.43701171875</ele>
        <time>2017-09-17T07:24:57Z</time>
      </trkpt>
      <trkpt lat="45.27989" lon="5.86018">
        <ele>421.43701171875</ele>
        <time>2017-09-17T07:25:00Z</time>
      </trkpt>
      <trkpt lat="45.27992" lon="5.86025">
        <ele>423.43701171875</ele>
        <time>2017-09-17T07:25:03Z</time>
      </trkpt>
      <trkpt lat="45.27995" lon="5.86031">
        <ele>423.43701171875</ele>
        <time>2017-09-17T07:25:05Z</time>
      </trkpt>
      <trkpt lat="45.27997" lon="5.86037">
        <ele>423.43701171875</ele>
        <time>2017-09-17T07:25:07Z</time>
      </trkpt>
      <trkpt lat="45.28" lon="5.86043">
        <ele>423.43701171875</ele>
        <time>2017-09-17T07:25:10Z</time>
      </trkpt>
      <trkpt lat="45.28002" lon="5.86051">
        <ele>426.43701171875</ele>
        <time>2017-09-17T07:25:13Z</time>
      </trkpt>
      <trkpt lat="45.28006" lon="5.8606">
        <ele>427.43701171875</ele>
        <time>2017-09-17T07:25:16Z</time>
      </trkpt>
      <trkpt lat="45.28007" lon="5.86067">
        <ele>428.43701171875</ele>
        <time>2017-09-17T07:25:19Z</time>
      </trkpt>
      <trkpt lat="45.28011" lon="5.86073">
        <ele>427.43701171875</ele>
        <time>2017-09-17T07:25:21Z</time>
      </trkpt>
      <trkpt lat="45.28013" lon="5.86079">
        <ele>428.43701171875</ele>
        <time>2017-09-17T07:25:23Z</time>
      </trkpt>
      <trkpt lat="45.28016" lon="5.86085">
        <ele>428.43701171875</ele>
        <time>2017-09-17T07:25:25Z</time>
      </trkpt>
      <trkpt lat="45.28016" lon="5.86091">
        <ele>428.43701171875</ele>
        <time>2017-09-17T07:25:27Z</time>
      </trkpt>
      <trkpt lat="45.2802" lon="5.86099">
        <ele>426.43701171875</ele>
        <time>2017-09-17T07:25:30Z</time>
      </trkpt>
      <trkpt lat="45.28022" lon="5.86106">
        <ele>425.43701171875</ele>
        <time>2017-09-17T07:25:32Z</time>
      </trkpt>
      <trkpt lat="45.28024" lon="5.86112">
        <ele>426.43701171875</ele>
        <time>2017-09-17T07:25:34Z</time>
      </trkpt>
      <trkpt lat="45.28028" lon="5.86119">
        <ele>425.43701171875</ele>
        <time>2017-09-17T07:25:37Z</time>
      </trkpt>
      <trkpt lat="45.28031" lon="5.86124">
        <ele>425.43701171875</ele>
        <time>2017-09-17T07:25:39Z</time>
      </trkpt>
      <trkpt lat="45.28034" lon="5.86133">
        <ele>427.43701171875</ele>
        <time>2017-09-17T07:25:42Z</time>
      </trkpt>
      <trkpt lat="45.28038" lon="5.86139">
        <ele>428.43701171875</ele>
        <time>2017-09-17T07:25:45Z</time>
      </trkpt>
      <trkpt lat="45.28039" lon="5.86146">
        <ele>428.43701171875</ele>
        <time>2017-09-17T07:25:47Z</time>
      </trkpt>
      <trkpt lat="45.28041" lon="5.86152">
        <ele>429.43701171875</ele>
        <time>2017-09-17T07:25:49Z</time>
      </trkpt>
      <trkpt lat="45.28045" lon="5.86159">
        <ele>429.43701171875</ele>
        <time>2017-09-17T07:25:51Z</time>
      </trkpt>
      <trkpt lat="45.28049" lon="5.86165">
        <ele>430.43701171875</ele>
        <time>2017-09-17T07:25:53Z</time>
      </trkpt>
      <trkpt lat="45.28053" lon="5.86172">
        <ele>430.43701171875</ele>
        <time>2017-09-17T07:25:56Z</time>
      </trkpt>
      <trkpt lat="45.28057" lon="5.86177">
        <ele>431.43701171875</ele>
        <time>2017-09-17T07:25:59Z</time>
      </trkpt>
      <trkpt lat="45.28062" lon="5.86183">
        <ele>431.43701171875</ele>
        <time>2017-09-17T07:26:02Z</time>
      </trkpt>
      <trkpt lat="45.28067" lon="5.86189">
        <ele>431.43701171875</ele>
        <time>2017-09-17T07:26:05Z</time>
      </trkpt>
      <trkpt lat="45.28069" lon="5.86197">
        <ele>435.43701171875</ele>
        <time>2017-09-17T07:26:08Z</time>
      </trkpt>
      <trkpt lat="45.28074" lon="5.86203">
        <ele>436.43701171875</ele>
        <time>2017-09-17T07:26:11Z</time>
      </trkpt>
      <trkpt lat="45.28079" lon="5.8621">
        <ele>438.43701171875</ele>
        <time>2017-09-17T07:26:14Z</time>
      </trkpt>
      <trkpt lat="45.28085" lon="5.86216">
        <ele>439.43701171875</ele>
        <time>2017-09-17T07:26:17Z</time>
      </trkpt>
      <trkpt lat="45.28088" lon="5.86222">
        <ele>439.43701171875</ele>
        <time>2017-09-17T07:26:19Z</time>
      </trkpt>
      <trkpt lat="45.28092" lon="5.86226">
        <ele>440.43701171875</ele>
        <time>2017-09-17T07:26:21Z</time>
      </trkpt>
      <trkpt lat="45.28094" lon="5.86233">
        <ele>440.43701171875</ele>
        <time>2017-09-17T07:26:24Z</time>
      </trkpt>
      <trkpt lat="45.28097" lon="5.86239">
        <ele>441.43701171875</ele>
        <time>2017-09-17T07:26:26Z</time>
      </trkpt>
      <trkpt lat="45.281" lon="5.86246">
        <ele>444.43798828125</ele>
        <time>2017-09-17T07:26:29Z</time>
      </trkpt>
      <trkpt lat="45.28102" lon="5.86253">
        <ele>445.43798828125</ele>
        <time>2017-09-17T07:26:32Z</time>
      </trkpt>
      <trkpt lat="45.28106" lon="5.86259">
        <ele>447.43798828125</ele>
        <time>2017-09-17T07:26:35Z</time>
      </trkpt>
      <trkpt lat="45.2811" lon="5.86264">
        <ele>446.43798828125</ele>
        <time>2017-09-17T07:26:37Z</time>
      </trkpt>
      <trkpt lat="45.28114" lon="5.86269">
        <ele>447.43798828125</ele>
        <time>2017-09-17T07:26:39Z</time>
      </trkpt>
      <trkpt lat="45.2812" lon="5.86275">
        <ele>446.43798828125</ele>
        <time>2017-09-17T07:26:42Z</time>
      </trkpt>
      <trkpt lat="45.28124" lon="5.86279">
        <ele>446.43798828125</ele>
        <time>2017-09-17T07:26:44Z</time>
      </trkpt>
      <trkpt lat="45.28129" lon="5.86284">
        <ele>446.43798828125</ele>
        <time>2017-09-17T07:26:46Z</time>
      </trkpt>
      <trkpt lat="45.28133" lon="5.8629">
        <ele>448.43798828125</ele>
        <time>2017-09-17T07:26:49Z</time>
      </trkpt>
      <trkpt lat="45.28136" lon="5.86295">
        <ele>447.43798828125</ele>
        <time>2017-09-17T07:26:51Z</time>
      </trkpt>
      <trkpt lat="45.2814" lon="5.86302">
        <ele>448.43798828125</ele>
        <time>2017-09-17T07:26:54Z</time>
      </trkpt>
      <trkpt lat="45.28144" lon="5.86306">
        <ele>450.43798828125</ele>
        <time>2017-09-17T07:26:59Z</time>
      </trkpt>
      <trkpt lat="45.28146" lon="5.86315">
        <ele>450.43798828125</ele>
        <time>2017-09-17T07:27:01Z</time>
      </trkpt>
      <trkpt lat="45.28147" lon="5.86322">
        <ele>451.43798828125</ele>
        <time>2017-09-17T07:27:03Z</time>
      </trkpt>
      <trkpt lat="45.2815" lon="5.86331">
        <ele>451.43798828125</ele>
        <time>2017-09-17T07:27:06Z</time>
      </trkpt>
      <trkpt lat="45.28148" lon="5.86339">
        <ele>455.43798828125</ele>
        <time>2017-09-17T07:27:08Z</time>
      </trkpt>
      <trkpt lat="45.2815" lon="5.86347">
        <ele>455.43798828125</ele>
        <time>2017-09-17T07:27:11Z</time>
      </trkpt>
      <trkpt lat="45.28152" lon="5.86355">
        <ele>455.43798828125</ele>
        <time>2017-09-17T07:27:14Z</time>
      </trkpt>
      <trkpt lat="45.28155" lon="5.86364">
        <ele>455.43798828125</ele>
        <time>2017-09-17T07:27:17Z</time>
      </trkpt>
      <trkpt lat="45.28158" lon="5.8637">
        <ele>455.43798828125</ele>
        <time>2017-09-17T07:27:19Z</time>
      </trkpt>
      <trkpt lat="45.28157" lon="5.86377">
        <ele>456.43798828125</ele>
        <time>2017-09-17T07:27:21Z</time>
      </trkpt>
      <trkpt lat="45.28159" lon="5.86386">
        <ele>456.43798828125</ele>
        <time>2017-09-17T07:27:24Z</time>
      </trkpt>
      <trkpt lat="45.28163" lon="5.86393">
        <ele>454.43798828125</ele>
        <time>2017-09-17T07:27:26Z</time>
      </trkpt>
      <trkpt lat="45.28165" lon="5.86402">
        <ele>453.43798828125</ele>
        <time>2017-09-17T07:27:28Z</time>
      </trkpt>
      <trkpt lat="45.28169" lon="5.86409">
        <ele>451.43798828125</ele>
        <time>2017-09-17T07:27:30Z</time>
      </trkpt>
      <trkpt lat="45.28175" lon="5.86414">
        <ele>452.43798828125</ele>
        <time>2017-09-17T07:27:32Z</time>
      </trkpt>
      <trkpt lat="45.28181" lon="5.86417">
        <ele>452.43798828125</ele>
        <time>2017-09-17T07:27:34Z</time>
      </trkpt>
      <trkpt lat="45.28188" lon="5.86419">
        <ele>449.43798828125</ele>
        <time>2017-09-17T07:27:35Z</time>
      </trkpt>
      <trkpt lat="45.28192" lon="5.86425">
        <ele>451.43798828125</ele>
        <time>2017-09-17T07:27:37Z</time>
      </trkpt>
      <trkpt lat="45.28196" lon="5.86433">
        <ele>452.43798828125</ele>
        <time>2017-09-17T07:27:39Z</time>
      </trkpt>
      <trkpt lat="45.28201" lon="5.86441">
        <ele>451.43798828125</ele>
        <time>2017-09-17T07:27:41Z</time>
      </trkpt>
      <trkpt lat="45.28206" lon="5.86449">
        <ele>450.43798828125</ele>
        <time>2017-09-17T07:27:43Z</time>
      </trkpt>
      <trkpt lat="45.28209" lon="5.86455">
        <ele>450.43798828125</ele>
        <time>2017-09-17T07:27:45Z</time>
      </trkpt>
      <trkpt lat="45.28217" lon="5.86465">
        <ele>448.43798828125</ele>
        <time>2017-09-17T07:27:48Z</time>
      </trkpt>
      <trkpt lat="45.28223" lon="5.86471">
        <ele>446.43798828125</ele>
        <time>2017-09-17T07:27:50Z</time>
      </trkpt>
      <trkpt lat="45.28225" lon="5.86479">
        <ele>447.43798828125</ele>
        <time>2017-09-17T07:27:52Z</time>
      </trkpt>
      <trkpt lat="45.28229" lon="5.86484">
        <ele>448.43798828125</ele>
        <time>2017-09-17T07:27:54Z</time>
      </trkpt>
      <trkpt lat="45.28234" lon="5.86489">
        <ele>447.43798828125</ele>
        <time>2017-09-17T07:27:56Z</time>
      </trkpt>
      <trkpt lat="45.28238" lon="5.86493">
        <ele>445.43798828125</ele>
        <time>2017-09-17T07:27:58Z</time>
      </trkpt>
      <trkpt lat="45.28243" lon="5.86496">
        <ele>446.43798828125</ele>
        <time>2017-09-17T07:28:03Z</time>
      </trkpt>
      <trkpt lat="45.28247" lon="5.86502">
        <ele>446.43798828125</ele>
        <time>2017-09-17T07:28:05Z</time>
      </trkpt>
      <trkpt lat="45.2825" lon="5.86509">
        <ele>447.43798828125</ele>
        <time>2017-09-17T07:28:08Z</time>
      </trkpt>
      <trkpt lat="45.28255" lon="5.86512">
        <ele>446.43798828125</ele>
        <time>2017-09-17T07:28:10Z</time>
      </trkpt>
      <trkpt lat="45.28262" lon="5.86512">
        <ele>447.43798828125</ele>
        <time>2017-09-17T07:28:12Z</time>
      </trkpt>
      <trkpt lat="45.28267" lon="5.86514">
        <ele>446.43798828125</ele>
        <time>2017-09-17T07:28:15Z</time>
      </trkpt>
      <trkpt lat="45.28268" lon="5.86521">
        <ele>448.43798828125</ele>
        <time>2017-09-17T07:28:19Z</time>
      </trkpt>
      <trkpt lat="45.28269" lon="5.86529">
        <ele>446.43798828125</ele>
        <time>2017-09-17T07:28:22Z</time>
      </trkpt>
      <trkpt lat="45.2827" lon="5.86537">
        <ele>445.43798828125</ele>
        <time>2017-09-17T07:28:25Z</time>
      </trkpt>
      <trkpt lat="45.2827" lon="5.86544">
        <ele>445.43798828125</ele>
        <time>2017-09-17T07:28:29Z</time>
      </trkpt>
      <trkpt lat="45.28274" lon="5.86549">
        <ele>443.43798828125</ele>
        <time>2017-09-17T07:28:31Z</time>
      </trkpt>
      <trkpt lat="45.28273" lon="5.86556">
        <ele>444.43798828125</ele>
        <time>2017-09-17T07:28:34Z</time>
      </trkpt>
      <trkpt lat="45.28275" lon="5.86562">
        <ele>442.43798828125</ele>
        <time>2017-09-17T07:28:37Z</time>
      </trkpt>
      <trkpt lat="45.28271" lon="5.86567">
        <ele>440.43798828125</ele>
        <time>2017-09-17T07:28:40Z</time>
      </trkpt>
      <trkpt lat="45.28273" lon="5.86575">
        <ele>438.43798828125</ele>
        <time>2017-09-17T07:28:44Z</time>
      </trkpt>
      <trkpt lat="45.28273" lon="5.86582">
        <ele>437.43798828125</ele>
        <time>2017-09-17T07:28:49Z</time>
      </trkpt>
      <trkpt lat="45.28275" lon="5.86589">
        <ele>436.43798828125</ele>
        <time>2017-09-17T07:28:52Z</time>
      </trkpt>
      <trkpt lat="45.28277" lon="5.86595">
        <ele>433.43798828125</ele>
        <time>2017-09-17T07:28:55Z</time>
      </trkpt>
      <trkpt lat="45.28276" lon="5.86604">
        <ele>433.43798828125</ele>
        <time>2017-09-17T07:28:58Z</time>
      </trkpt>
      <trkpt lat="45.28275" lon="5.86611">
        <ele>431.43798828125</ele>
        <time>2017-09-17T07:29:01Z</time>
      </trkpt>
      <trkpt lat="45.28275" lon="5.8662">
        <ele>428.43798828125</ele>
        <time>2017-09-17T07:29:05Z</time>
      </trkpt>
      <trkpt lat="45.28277" lon="5.86628">
        <ele>427.43798828125</ele>
        <time>2017-09-17T07:29:08Z</time>
      </trkpt>
      <trkpt lat="45.2828" lon="5.86633">
        <ele>425.43798828125</ele>
        <time>2017-09-17T07:29:11Z</time>
      </trkpt>
      <trkpt lat="45.28284" lon="5.86638">
        <ele>423.43798828125</ele>
        <time>2017-09-17T07:29:14Z</time>
      </trkpt>
      <trkpt lat="45.28285" lon="5.86646">
        <ele>423.43798828125</ele>
        <time>2017-09-17T07:29:17Z</time>
      </trkpt>
      <trkpt lat="45.28285" lon="5.86653">
        <ele>423.43798828125</ele>
        <time>2017-09-17T07:29:19Z</time>
      </trkpt>
      <trkpt lat="45.28286" lon="5.86659">
        <ele>422.43798828125</ele>
        <time>2017-09-17T07:29:21Z</time>
      </trkpt>
      <trkpt lat="45.28288" lon="5.86667">
        <ele>423.43798828125</ele>
        <time>2017-09-17T07:29:24Z</time>
      </trkpt>
      <trkpt lat="45.28289" lon="5.86674">
        <ele>420.43798828125</ele>
        <time>2017-09-17T07:29:26Z</time>
      </trkpt>
      <trkpt lat="45.2829" lon="5.86681">
        <ele>419.43798828125</ele>
        <time>2017-09-17T07:29:28Z</time>
      </trkpt>
      <trkpt lat="45.28289" lon="5.86691">
        <ele>417.43798828125</ele>
        <time>2017-09-17T07:29:31Z</time>
      </trkpt>
      <trkpt lat="45.28289" lon="5.86698">
        <ele>416.43899536133</ele>
        <time>2017-09-17T07:29:33Z</time>
      </trkpt>
      <trkpt lat="45.28291" lon="5.86704">
        <ele>414.43899536133</ele>
        <time>2017-09-17T07:29:35Z</time>
      </trkpt>
      <trkpt lat="45.28296" lon="5.8671">
        <ele>411.43899536133</ele>
        <time>2017-09-17T07:29:37Z</time>
      </trkpt>
      <trkpt lat="45.28301" lon="5.86714">
        <ele>408.43899536133</ele>
        <time>2017-09-17T07:29:39Z</time>
      </trkpt>
      <trkpt lat="45.28304" lon="5.86718">
        <ele>406.43899536133</ele>
        <time>2017-09-17T07:29:41Z</time>
      </trkpt>
      <trkpt lat="45.28308" lon="5.86723">
        <ele>406.43899536133</ele>
        <time>2017-09-17T07:29:43Z</time>
      </trkpt>
      <trkpt lat="45.28311" lon="5.86728">
        <ele>404.43899536133</ele>
        <time>2017-09-17T07:29:45Z</time>
      </trkpt>
      <trkpt lat="45.28315" lon="5.86734">
        <ele>404.43899536133</ele>
        <time>2017-09-17T07:29:47Z</time>
      </trkpt>
      <trkpt lat="45.28323" lon="5.86746">
        <ele>402.43899536133</ele>
        <time>2017-09-17T07:29:51Z</time>
      </trkpt>
      <trkpt lat="45.28327" lon="5.86751">
        <ele>401.43899536133</ele>
        <time>2017-09-17T07:29:53Z</time>
      </trkpt>
      <trkpt lat="45.2833" lon="5.86757">
        <ele>400.43899536133</ele>
        <time>2017-09-17T07:29:55Z</time>
      </trkpt>
      <trkpt lat="45.28335" lon="5.86763">
        <ele>399.43899536133</ele>
        <time>2017-09-17T07:29:57Z</time>
      </trkpt>
      <trkpt lat="45.28337" lon="5.86769">
        <ele>400.43899536133</ele>
        <time>2017-09-17T07:29:59Z</time>
      </trkpt>
      <trkpt lat="45.2834" lon="5.86776">
        <ele>400.43899536133</ele>
        <time>2017-09-17T07:30:03Z</time>
      </trkpt>
      <trkpt lat="45.28334" lon="5.86772">
        <ele>401.43899536133</ele>
        <time>2017-09-17T07:30:12Z</time>
      </trkpt>
      <trkpt lat="45.2833" lon="5.86768">
        <ele>402.43899536133</ele>
        <time>2017-09-17T07:30:14Z</time>
      </trkpt>
      <trkpt lat="45.28326" lon="5.86763">
        <ele>402.43899536133</ele>
        <time>2017-09-17T07:30:16Z</time>
      </trkpt>
      <trkpt lat="45.28321" lon="5.8676">
        <ele>400.43899536133</ele>
        <time>2017-09-17T07:30:18Z</time>
      </trkpt>
      <trkpt lat="45.28316" lon="5.86759">
        <ele>401.43899536133</ele>
        <time>2017-09-17T07:30:20Z</time>
      </trkpt>
      <trkpt lat="45.28311" lon="5.86759">
        <ele>401.43899536133</ele>
        <time>2017-09-17T07:30:22Z</time>
      </trkpt>
      <trkpt lat="45.28305" lon="5.86758">
        <ele>400.43899536133</ele>
        <time>2017-09-17T07:30:24Z</time>
      </trkpt>
      <trkpt lat="45.28299" lon="5.86755">
        <ele>398.43899536133</ele>
        <time>2017-09-17T07:30:26Z</time>
      </trkpt>
      <trkpt lat="45.28293" lon="5.86752">
        <ele>397.43899536133</ele>
        <time>2017-09-17T07:30:28Z</time>
      </trkpt>
      <trkpt lat="45.28288" lon="5.86749">
        <ele>396.43899536133</ele>
        <time>2017-09-17T07:30:30Z</time>
      </trkpt>
      <trkpt lat="45.28281" lon="5.86748">
        <ele>395.43899536133</ele>
        <time>2017-09-17T07:30:32Z</time>
      </trkpt>
      <trkpt lat="45.28275" lon="5.86746">
        <ele>394.43899536133</ele>
        <time>2017-09-17T07:30:34Z</time>
      </trkpt>
      <trkpt lat="45.2827" lon="5.86744">
        <ele>393.43899536133</ele>
        <time>2017-09-17T07:30:36Z</time>
      </trkpt>
      <trkpt lat="45.28264" lon="5.86741">
        <ele>394.43899536133</ele>
        <time>2017-09-17T07:30:38Z</time>
      </trkpt>
      <trkpt lat="45.28257" lon="5.86739">
        <ele>393.43798828125</ele>
        <time>2017-09-17T07:30:40Z</time>
      </trkpt>
      <trkpt lat="45.28252" lon="5.86734">
        <ele>391.43798828125</ele>
        <time>2017-09-17T07:30:42Z</time>
      </trkpt>
      <trkpt lat="45.28247" lon="5.8673">
        <ele>390.43798828125</ele>
        <time>2017-09-17T07:30:44Z</time>
      </trkpt>
      <trkpt lat="45.28242" lon="5.86726">
        <ele>390.43798828125</ele>
        <time>2017-09-17T07:30:46Z</time>
      </trkpt>
      <trkpt lat="45.28237" lon="5.86723">
        <ele>391.43798828125</ele>
        <time>2017-09-17T07:30:48Z</time>
      </trkpt>
      <trkpt lat="45.2823" lon="5.86719">
        <ele>390.43798828125</ele>
        <time>2017-09-17T07:30:50Z</time>
      </trkpt>
      <trkpt lat="45.28226" lon="5.86716">
        <ele>390.43798828125</ele>
        <time>2017-09-17T07:30:52Z</time>
      </trkpt>
      <trkpt lat="45.28221" lon="5.86712">
        <ele>388.43798828125</ele>
        <time>2017-09-17T07:30:54Z</time>
      </trkpt>
      <trkpt lat="45.28215" lon="5.86707">
        <ele>387.43798828125</ele>
        <time>2017-09-17T07:30:57Z</time>
      </trkpt>
      <trkpt lat="45.28211" lon="5.867">
        <ele>387.43798828125</ele>
        <time>2017-09-17T07:31:00Z</time>
      </trkpt>
      <trkpt lat="45.28205" lon="5.86698">
        <ele>387.43798828125</ele>
        <time>2017-09-17T07:31:03Z</time>
      </trkpt>
      <trkpt lat="45.28199" lon="5.86691">
        <ele>386.43798828125</ele>
        <time>2017-09-17T07:31:06Z</time>
      </trkpt>
      <trkpt lat="45.28195" lon="5.86686">
        <ele>383.43798828125</ele>
        <time>2017-09-17T07:31:08Z</time>
      </trkpt>
      <trkpt lat="45.28189" lon="5.86682">
        <ele>383.43798828125</ele>
        <time>2017-09-17T07:31:10Z</time>
      </trkpt>
      <trkpt lat="45.28184" lon="5.86681">
        <ele>382.43798828125</ele>
        <time>2017-09-17T07:31:12Z</time>
      </trkpt>
      <trkpt lat="45.28173" lon="5.86679">
        <ele>380.43798828125</ele>
        <time>2017-09-17T07:31:15Z</time>
      </trkpt>
      <trkpt lat="45.28167" lon="5.86681">
        <ele>379.43798828125</ele>
        <time>2017-09-17T07:31:17Z</time>
      </trkpt>
      <trkpt lat="45.28167" lon="5.86689">
        <ele>379.43798828125</ele>
        <time>2017-09-17T07:31:19Z</time>
      </trkpt>
      <trkpt lat="45.2817" lon="5.86695">
        <ele>379.43798828125</ele>
        <time>2017-09-17T07:31:21Z</time>
      </trkpt>
      <trkpt lat="45.28171" lon="5.86701">
        <ele>375.43798828125</ele>
        <time>2017-09-17T07:31:23Z</time>
      </trkpt>
      <trkpt lat="45.2817" lon="5.86708">
        <ele>373.43798828125</ele>
        <time>2017-09-17T07:31:25Z</time>
      </trkpt>
      <trkpt lat="45.28172" lon="5.86715">
        <ele>373.43798828125</ele>
        <time>2017-09-17T07:31:28Z</time>
      </trkpt>
      <trkpt lat="45.28174" lon="5.86721">
        <ele>373.43798828125</ele>
        <time>2017-09-17T07:31:30Z</time>
      </trkpt>
      <trkpt lat="45.28176" lon="5.86728">
        <ele>371.43798828125</ele>
        <time>2017-09-17T07:31:32Z</time>
      </trkpt>
      <trkpt lat="45.2818" lon="5.86732">
        <ele>369.43798828125</ele>
        <time>2017-09-17T07:31:37Z</time>
      </trkpt>
      <trkpt lat="45.28183" lon="5.86737">
        <ele>368.43798828125</ele>
        <time>2017-09-17T07:31:40Z</time>
      </trkpt>
      <trkpt lat="45.28185" lon="5.86743">
        <ele>368.43798828125</ele>
        <time>2017-09-17T07:31:42Z</time>
      </trkpt>
      <trkpt lat="45.28187" lon="5.8675">
        <ele>367.43798828125</ele>
        <time>2017-09-17T07:31:44Z</time>
      </trkpt>
      <trkpt lat="45.28192" lon="5.86758">
        <ele>365.43798828125</ele>
        <time>2017-09-17T07:31:46Z</time>
      </trkpt>
      <trkpt lat="45.28196" lon="5.86763">
        <ele>362.43798828125</ele>
        <time>2017-09-17T07:31:48Z</time>
      </trkpt>
      <trkpt lat="45.282" lon="5.8677">
        <ele>360.43798828125</ele>
        <time>2017-09-17T07:31:50Z</time>
      </trkpt>
      <trkpt lat="45.28205" lon="5.86776">
        <ele>359.43798828125</ele>
        <time>2017-09-17T07:31:52Z</time>
      </trkpt>
      <trkpt lat="45.28209" lon="5.86782">
        <ele>359.43798828125</ele>
        <time>2017-09-17T07:31:54Z</time>
      </trkpt>
      <trkpt lat="45.28213" lon="5.86788">
        <ele>357.43798828125</ele>
        <time>2017-09-17T07:31:56Z</time>
      </trkpt>
      <trkpt lat="45.28217" lon="5.86793">
        <ele>357.43798828125</ele>
        <time>2017-09-17T07:31:58Z</time>
      </trkpt>
      <trkpt lat="45.2822" lon="5.86799">
        <ele>357.43899536133</ele>
        <time>2017-09-17T07:32:01Z</time>
      </trkpt>
      <trkpt lat="45.28223" lon="5.86806">
        <ele>356.43899536133</ele>
        <time>2017-09-17T07:32:09Z</time>
      </trkpt>
      <trkpt lat="45.28226" lon="5.86813">
        <ele>360.43899536133</ele>
        <time>2017-09-17T07:32:14Z</time>
      </trkpt>
      <trkpt lat="45.28231" lon="5.86817">
        <ele>361.43899536133</ele>
        <time>2017-09-17T07:32:17Z</time>
      </trkpt>
      <trkpt lat="45.28236" lon="5.86822">
        <ele>361.43899536133</ele>
        <time>2017-09-17T07:32:20Z</time>
      </trkpt>
      <trkpt lat="45.28241" lon="5.86824">
        <ele>361.43899536133</ele>
        <time>2017-09-17T07:32:22Z</time>
      </trkpt>
      <trkpt lat="45.28246" lon="5.86824">
        <ele>361.43899536133</ele>
        <time>2017-09-17T07:32:24Z</time>
      </trkpt>
      <trkpt lat="45.28252" lon="5.86824">
        <ele>360.43899536133</ele>
        <time>2017-09-17T07:32:26Z</time>
      </trkpt>
      <trkpt lat="45.28259" lon="5.86824">
        <ele>359.43899536133</ele>
        <time>2017-09-17T07:32:29Z</time>
      </trkpt>
      <trkpt lat="45.28265" lon="5.86824">
        <ele>359.43899536133</ele>
        <time>2017-09-17T07:32:32Z</time>
      </trkpt>
      <trkpt lat="45.2827" lon="5.86825">
        <ele>360.43899536133</ele>
        <time>2017-09-17T07:32:36Z</time>
      </trkpt>
      <trkpt lat="45.28275" lon="5.86829">
        <ele>362.43899536133</ele>
        <time>2017-09-17T07:32:40Z</time>
      </trkpt>
      <trkpt lat="45.28281" lon="5.86832">
        <ele>362.43899536133</ele>
        <time>2017-09-17T07:32:43Z</time>
      </trkpt>
      <trkpt lat="45.28285" lon="5.86834">
        <ele>362.43899536133</ele>
        <time>2017-09-17T07:32:45Z</time>
      </trkpt>
      <trkpt lat="45.28289" lon="5.86839">
        <ele>362.43899536133</ele>
        <time>2017-09-17T07:32:47Z</time>
      </trkpt>
      <trkpt lat="45.28293" lon="5.86842">
        <ele>362.43899536133</ele>
        <time>2017-09-17T07:32:49Z</time>
      </trkpt>
      <trkpt lat="45.28298" lon="5.86848">
        <ele>364.43899536133</ele>
        <time>2017-09-17T07:32:52Z</time>
      </trkpt>
      <trkpt lat="45.28303" lon="5.86851">
        <ele>364.43899536133</ele>
        <time>2017-09-17T07:32:54Z</time>
      </trkpt>
      <trkpt lat="45.28308" lon="5.86854">
        <ele>364.43899536133</ele>
        <time>2017-09-17T07:32:56Z</time>
      </trkpt>
      <trkpt lat="45.28312" lon="5.86856">
        <ele>365.43899536133</ele>
        <time>2017-09-17T07:32:58Z</time>
      </trkpt>
      <trkpt lat="45.28315" lon="5.86862">
        <ele>364.43899536133</ele>
        <time>2017-09-17T07:33:00Z</time>
      </trkpt>
      <trkpt lat="45.28319" lon="5.86868">
        <ele>364.43899536133</ele>
        <time>2017-09-17T07:33:03Z</time>
      </trkpt>
      <trkpt lat="45.28322" lon="5.86875">
        <ele>364.43899536133</ele>
        <time>2017-09-17T07:33:06Z</time>
      </trkpt>
      <trkpt lat="45.28327" lon="5.86879">
        <ele>365.43899536133</ele>
        <time>2017-09-17T07:33:08Z</time>
      </trkpt>
      <trkpt lat="45.2833" lon="5.86885">
        <ele>364.43899536133</ele>
        <time>2017-09-17T07:33:11Z</time>
      </trkpt>
      <trkpt lat="45.28334" lon="5.8689">
        <ele>364.43899536133</ele>
        <time>2017-09-17T07:33:14Z</time>
      </trkpt>
      <trkpt lat="45.28338" lon="5.86897">
        <ele>366.43899536133</ele>
        <time>2017-09-17T07:33:17Z</time>
      </trkpt>
      <trkpt lat="45.28343" lon="5.86901">
        <ele>365.43899536133</ele>
        <time>2017-09-17T07:33:19Z</time>
      </trkpt>
      <trkpt lat="45.28349" lon="5.86904">
        <ele>364.43899536133</ele>
        <time>2017-09-17T07:33:21Z</time>
      </trkpt>
      <trkpt lat="45.28359" lon="5.86903">
        <ele>359.43899536133</ele>
        <time>2017-09-17T07:33:23Z</time>
      </trkpt>
      <trkpt lat="45.28362" lon="5.86909">
        <ele>358.43899536133</ele>
        <time>2017-09-17T07:33:26Z</time>
      </trkpt>
      <trkpt lat="45.28368" lon="5.8691">
        <ele>358.43899536133</ele>
        <time>2017-09-17T07:33:28Z</time>
      </trkpt>
      <trkpt lat="45.2837" lon="5.86917">
        <ele>360.43899536133</ele>
        <time>2017-09-17T07:33:31Z</time>
      </trkpt>
      <trkpt lat="45.28371" lon="5.86924">
        <ele>362.43899536133</ele>
        <time>2017-09-17T07:33:34Z</time>
      </trkpt>
      <trkpt lat="45.28376" lon="5.86927">
        <ele>362.43899536133</ele>
        <time>2017-09-17T07:33:37Z</time>
      </trkpt>
      <trkpt lat="45.2838" lon="5.86932">
        <ele>361.43899536133</ele>
        <time>2017-09-17T07:33:40Z</time>
      </trkpt>
      <trkpt lat="45.28386" lon="5.86937">
        <ele>363.43899536133</ele>
        <time>2017-09-17T07:33:43Z</time>
      </trkpt>
      <trkpt lat="45.28387" lon="5.86944">
        <ele>364.43899536133</ele>
        <time>2017-09-17T07:33:45Z</time>
      </trkpt>
      <trkpt lat="45.28393" lon="5.86948">
        <ele>364.43899536133</ele>
        <time>2017-09-17T07:33:47Z</time>
      </trkpt>
      <trkpt lat="45.28398" lon="5.86953">
        <ele>363.43899536133</ele>
        <time>2017-09-17T07:33:49Z</time>
      </trkpt>
      <trkpt lat="45.28404" lon="5.86957">
        <ele>363.43899536133</ele>
        <time>2017-09-17T07:33:51Z</time>
      </trkpt>
      <trkpt lat="45.28407" lon="5.86963">
        <ele>367.43899536133</ele>
        <time>2017-09-17T07:33:55Z</time>
      </trkpt>
      <trkpt lat="45.28413" lon="5.86966">
        <ele>365.43899536133</ele>
        <time>2017-09-17T07:33:57Z</time>
      </trkpt>
      <trkpt lat="45.28418" lon="5.86971">
        <ele>365.43899536133</ele>
        <time>2017-09-17T07:34:00Z</time>
      </trkpt>
      <trkpt lat="45.28423" lon="5.86973">
        <ele>364.43899536133</ele>
        <time>2017-09-17T07:34:02Z</time>
      </trkpt>
      <trkpt lat="45.28427" lon="5.86981">
        <ele>366.43899536133</ele>
        <time>2017-09-17T07:34:05Z</time>
      </trkpt>
      <trkpt lat="45.2843" lon="5.86986">
        <ele>363.43899536133</ele>
        <time>2017-09-17T07:34:08Z</time>
      </trkpt>
      <trkpt lat="45.28433" lon="5.86993">
        <ele>370.43899536133</ele>
        <time>2017-09-17T07:34:11Z</time>
      </trkpt>
      <trkpt lat="45.28437" lon="5.86996">
        <ele>371.43899536133</ele>
        <time>2017-09-17T07:34:13Z</time>
      </trkpt>
      <trkpt lat="45.28438" lon="5.87005">
        <ele>372.43899536133</ele>
        <time>2017-09-17T07:34:17Z</time>
      </trkpt>
      <trkpt lat="45.28441" lon="5.8701">
        <ele>374.43899536133</ele>
        <time>2017-09-17T07:34:19Z</time>
      </trkpt>
      <trkpt lat="45.28444" lon="5.87015">
        <ele>377.43899536133</ele>
        <time>2017-09-17T07:34:21Z</time>
      </trkpt>
      <trkpt lat="45.28448" lon="5.87021">
        <ele>376.43899536133</ele>
        <time>2017-09-17T07:34:23Z</time>
      </trkpt>
      <trkpt lat="45.28454" lon="5.87026">
        <ele>377.43899536133</ele>
        <time>2017-09-17T07:34:26Z</time>
      </trkpt>
      <trkpt lat="45.28459" lon="5.87026">
        <ele>376.43899536133</ele>
        <time>2017-09-17T07:34:28Z</time>
      </trkpt>
      <trkpt lat="45.28466" lon="5.87027">
        <ele>375.43899536133</ele>
        <time>2017-09-17T07:34:30Z</time>
      </trkpt>
      <trkpt lat="45.2847" lon="5.87032">
        <ele>375.43899536133</ele>
        <time>2017-09-17T07:34:33Z</time>
      </trkpt>
      <trkpt lat="45.28473" lon="5.87037">
        <ele>376.43899536133</ele>
        <time>2017-09-17T07:34:35Z</time>
      </trkpt>
      <trkpt lat="45.28474" lon="5.87046">
        <ele>378.43899536133</ele>
        <time>2017-09-17T07:34:38Z</time>
      </trkpt>
      <trkpt lat="45.28482" lon="5.87051">
        <ele>376.43899536133</ele>
        <time>2017-09-17T07:34:41Z</time>
      </trkpt>
      <trkpt lat="45.28486" lon="5.87054">
        <ele>377.43899536133</ele>
        <time>2017-09-17T07:34:43Z</time>
      </trkpt>
      <trkpt lat="45.2849" lon="5.87062">
        <ele>376.43899536133</ele>
        <time>2017-09-17T07:34:46Z</time>
      </trkpt>
      <trkpt lat="45.28494" lon="5.87067">
        <ele>374.43899536133</ele>
        <time>2017-09-17T07:34:48Z</time>
      </trkpt>
      <trkpt lat="45.28494" lon="5.87073">
        <ele>374.43899536133</ele>
        <time>2017-09-17T07:34:50Z</time>
      </trkpt>
      <trkpt lat="45.28497" lon="5.87078">
        <ele>374.43899536133</ele>
        <time>2017-09-17T07:34:52Z</time>
      </trkpt>
      <trkpt lat="45.285" lon="5.87085">
        <ele>374.43899536133</ele>
        <time>2017-09-17T07:34:55Z</time>
      </trkpt>
      <trkpt lat="45.28504" lon="5.87088">
        <ele>374.43899536133</ele>
        <time>2017-09-17T07:34:59Z</time>
      </trkpt>
      <trkpt lat="45.28502" lon="5.87097">
        <ele>368.43899536133</ele>
        <time>2017-09-17T07:35:20Z</time>
      </trkpt>
      <trkpt lat="45.285" lon="5.87104">
        <ele>367.43899536133</ele>
        <time>2017-09-17T07:35:22Z</time>
      </trkpt>
      <trkpt lat="45.28498" lon="5.87111">
        <ele>364.44000244141</ele>
        <time>2017-09-17T07:35:24Z</time>
      </trkpt>
      <trkpt lat="45.28497" lon="5.87118">
        <ele>363.44000244141</ele>
        <time>2017-09-17T07:35:28Z</time>
      </trkpt>
      <trkpt lat="45.28496" lon="5.87124">
        <ele>363.44000244141</ele>
        <time>2017-09-17T07:35:32Z</time>
      </trkpt>
      <trkpt lat="45.28495" lon="5.87132">
        <ele>362.44000244141</ele>
        <time>2017-09-17T07:35:39Z</time>
      </trkpt>
      <trkpt lat="45.28498" lon="5.87138">
        <ele>359.44000244141</ele>
        <time>2017-09-17T07:35:45Z</time>
      </trkpt>
      <trkpt lat="45.28499" lon="5.87145">
        <ele>360.44000244141</ele>
        <time>2017-09-17T07:35:49Z</time>
      </trkpt>
      <trkpt lat="45.28498" lon="5.87152">
        <ele>359.44000244141</ele>
        <time>2017-09-17T07:35:54Z</time>
      </trkpt>
      <trkpt lat="45.285" lon="5.87159">
        <ele>357.44000244141</ele>
        <time>2017-09-17T07:35:59Z</time>
      </trkpt>
      <trkpt lat="45.28498" lon="5.87165">
        <ele>361.44000244141</ele>
        <time>2017-09-17T07:36:04Z</time>
      </trkpt>
      <trkpt lat="45.285" lon="5.87172">
        <ele>360.44000244141</ele>
        <time>2017-09-17T07:36:08Z</time>
      </trkpt>
      <trkpt lat="45.28503" lon="5.87177">
        <ele>360.44000244141</ele>
        <time>2017-09-17T07:36:12Z</time>
      </trkpt>
      <trkpt lat="45.28507" lon="5.87182">
        <ele>360.44000244141</ele>
        <time>2017-09-17T07:36:17Z</time>
      </trkpt>
      <trkpt lat="45.28511" lon="5.87185">
        <ele>358.44000244141</ele>
        <time>2017-09-17T07:36:21Z</time>
      </trkpt>
      <trkpt lat="45.28514" lon="5.8719">
        <ele>358.44000244141</ele>
        <time>2017-09-17T07:36:24Z</time>
      </trkpt>
      <trkpt lat="45.28517" lon="5.87197">
        <ele>358.44000244141</ele>
        <time>2017-09-17T07:36:29Z</time>
      </trkpt>
      <trkpt lat="45.28518" lon="5.87206">
        <ele>360.44000244141</ele>
        <time>2017-09-17T07:36:34Z</time>
      </trkpt>
      <trkpt lat="45.28522" lon="5.87211">
        <ele>361.44000244141</ele>
        <time>2017-09-17T07:36:38Z</time>
      </trkpt>
      <trkpt lat="45.28525" lon="5.87217">
        <ele>361.44000244141</ele>
        <time>2017-09-17T07:36:42Z</time>
      </trkpt>
      <trkpt lat="45.28527" lon="5.87222">
        <ele>360.44000244141</ele>
        <time>2017-09-17T07:36:46Z</time>
      </trkpt>
      <trkpt lat="45.2853" lon="5.8723">
        <ele>359.44000244141</ele>
        <time>2017-09-17T07:36:50Z</time>
      </trkpt>
      <trkpt lat="45.28532" lon="5.87237">
        <ele>361.44000244141</ele>
        <time>2017-09-17T07:36:53Z</time>
      </trkpt>
      <trkpt lat="45.28536" lon="5.87242">
        <ele>359.44000244141</ele>
        <time>2017-09-17T07:36:56Z</time>
      </trkpt>
      <trkpt lat="45.28539" lon="5.87246">
        <ele>357.44000244141</ele>
        <time>2017-09-17T07:37:00Z</time>
      </trkpt>
      <trkpt lat="45.28542" lon="5.87251">
        <ele>357.44000244141</ele>
        <time>2017-09-17T07:37:04Z</time>
      </trkpt>
      <trkpt lat="45.28547" lon="5.87257">
        <ele>356.44000244141</ele>
        <time>2017-09-17T07:37:08Z</time>
      </trkpt>
      <trkpt lat="45.2855" lon="5.87263">
        <ele>355.44000244141</ele>
        <time>2017-09-17T07:37:11Z</time>
      </trkpt>
      <trkpt lat="45.28553" lon="5.8727">
        <ele>357.44000244141</ele>
        <time>2017-09-17T07:37:13Z</time>
      </trkpt>
      <trkpt lat="45.28557" lon="5.87278">
        <ele>358.44000244141</ele>
        <time>2017-09-17T07:37:16Z</time>
      </trkpt>
      <trkpt lat="45.2856" lon="5.87284">
        <ele>358.44000244141</ele>
        <time>2017-09-17T07:37:18Z</time>
      </trkpt>
      <trkpt lat="45.28564" lon="5.87289">
        <ele>355.44000244141</ele>
        <time>2017-09-17T07:37:20Z</time>
      </trkpt>
      <trkpt lat="45.28568" lon="5.87296">
        <ele>354.44000244141</ele>
        <time>2017-09-17T07:37:22Z</time>
      </trkpt>
      <trkpt lat="45.28578" lon="5.87308">
        <ele>354.44000244141</ele>
        <time>2017-09-17T07:37:26Z</time>
      </trkpt>
      <trkpt lat="45.28582" lon="5.87312">
        <ele>353.44000244141</ele>
        <time>2017-09-17T07:37:28Z</time>
      </trkpt>
      <trkpt lat="45.28585" lon="5.87318">
        <ele>352.44000244141</ele>
        <time>2017-09-17T07:37:30Z</time>
      </trkpt>
      <trkpt lat="45.28588" lon="5.87325">
        <ele>352.44000244141</ele>
        <time>2017-09-17T07:37:32Z</time>
      </trkpt>
      <trkpt lat="45.28593" lon="5.87334">
        <ele>351.44000244141</ele>
        <time>2017-09-17T07:37:34Z</time>
      </trkpt>
      <trkpt lat="45.28598" lon="5.8734">
        <ele>350.44000244141</ele>
        <time>2017-09-17T07:37:36Z</time>
      </trkpt>
      <trkpt lat="45.28603" lon="5.87344">
        <ele>349.44000244141</ele>
        <time>2017-09-17T07:37:38Z</time>
      </trkpt>
      <trkpt lat="45.2861" lon="5.87348">
        <ele>349.44000244141</ele>
        <time>2017-09-17T07:37:41Z</time>
      </trkpt>
      <trkpt lat="45.28621" lon="5.8735">
        <ele>345.44000244141</ele>
        <time>2017-09-17T07:37:43Z</time>
      </trkpt>
      <trkpt lat="45.28626" lon="5.8735">
        <ele>344.44000244141</ele>
        <time>2017-09-17T07:37:45Z</time>
      </trkpt>
      <trkpt lat="45.28633" lon="5.8735">
        <ele>343.44000244141</ele>
        <time>2017-09-17T07:37:47Z</time>
      </trkpt>
      <trkpt lat="45.28636" lon="5.87355">
        <ele>344.44000244141</ele>
        <time>2017-09-17T07:37:50Z</time>
      </trkpt>
      <trkpt lat="45.28641" lon="5.87356">
        <ele>343.44000244141</ele>
        <time>2017-09-17T07:37:52Z</time>
      </trkpt>
      <trkpt lat="45.28645" lon="5.8736">
        <ele>342.44000244141</ele>
        <time>2017-09-17T07:37:55Z</time>
      </trkpt>
      <trkpt lat="45.28647" lon="5.87369">
        <ele>343.44000244141</ele>
        <time>2017-09-17T07:37:58Z</time>
      </trkpt>
      <trkpt lat="45.28649" lon="5.87377">
        <ele>343.44000244141</ele>
        <time>2017-09-17T07:38:01Z</time>
      </trkpt>
      <trkpt lat="45.28652" lon="5.87387">
        <ele>340.44000244141</ele>
        <time>2017-09-17T07:38:06Z</time>
      </trkpt>
      <trkpt lat="45.28654" lon="5.87394">
        <ele>340.44000244141</ele>
        <time>2017-09-17T07:38:08Z</time>
      </trkpt>
      <trkpt lat="45.28659" lon="5.87399">
        <ele>342.44000244141</ele>
        <time>2017-09-17T07:38:10Z</time>
      </trkpt>
      <trkpt lat="45.28668" lon="5.87396">
        <ele>336.44000244141</ele>
        <time>2017-09-17T07:38:13Z</time>
      </trkpt>
      <trkpt lat="45.28673" lon="5.87396">
        <ele>334.44000244141</ele>
        <time>2017-09-17T07:38:15Z</time>
      </trkpt>
      <trkpt lat="45.28677" lon="5.87397">
        <ele>333.44000244141</ele>
        <time>2017-09-17T07:38:17Z</time>
      </trkpt>
      <trkpt lat="45.28683" lon="5.874">
        <ele>333.44000244141</ele>
        <time>2017-09-17T07:38:20Z</time>
      </trkpt>
      <trkpt lat="45.28689" lon="5.87402">
        <ele>336.44000244141</ele>
        <time>2017-09-17T07:38:23Z</time>
      </trkpt>
      <trkpt lat="45.28694" lon="5.87401">
        <ele>338.44000244141</ele>
        <time>2017-09-17T07:38:25Z</time>
      </trkpt>
      <trkpt lat="45.28699" lon="5.87401">
        <ele>337.44000244141</ele>
        <time>2017-09-17T07:38:27Z</time>
      </trkpt>
      <trkpt lat="45.28704" lon="5.87404">
        <ele>339.44000244141</ele>
        <time>2017-09-17T07:38:29Z</time>
      </trkpt>
      <trkpt lat="45.28709" lon="5.87406">
        <ele>340.44000244141</ele>
        <time>2017-09-17T07:38:31Z</time>
      </trkpt>
      <trkpt lat="45.28716" lon="5.87407">
        <ele>342.44000244141</ele>
        <time>2017-09-17T07:38:35Z</time>
      </trkpt>
      <trkpt lat="45.28721" lon="5.87409">
        <ele>344.44000244141</ele>
        <time>2017-09-17T07:38:39Z</time>
      </trkpt>
      <trkpt lat="45.28725" lon="5.87406">
        <ele>345.44000244141</ele>
        <time>2017-09-17T07:38:42Z</time>
      </trkpt>
      <trkpt lat="45.2873" lon="5.87404">
        <ele>347.44000244141</ele>
        <time>2017-09-17T07:38:46Z</time>
      </trkpt>
      <trkpt lat="45.28735" lon="5.87405">
        <ele>347.44000244141</ele>
        <time>2017-09-17T07:38:50Z</time>
      </trkpt>
      <trkpt lat="45.28741" lon="5.87406">
        <ele>348.44000244141</ele>
        <time>2017-09-17T07:38:55Z</time>
      </trkpt>
      <trkpt lat="45.28745" lon="5.87407">
        <ele>347.44000244141</ele>
        <time>2017-09-17T07:38:58Z</time>
      </trkpt>
      <trkpt lat="45.2875" lon="5.87408">
        <ele>346.44000244141</ele>
        <time>2017-09-17T07:39:01Z</time>
      </trkpt>
      <trkpt lat="45.28755" lon="5.87408">
        <ele>346.44000244141</ele>
        <time>2017-09-17T07:39:04Z</time>
      </trkpt>
      <trkpt lat="45.28761" lon="5.87407">
        <ele>345.44000244141</ele>
        <time>2017-09-17T07:39:07Z</time>
      </trkpt>
      <trkpt lat="45.28766" lon="5.87406">
        <ele>345.44000244141</ele>
        <time>2017-09-17T07:39:10Z</time>
      </trkpt>
      <trkpt lat="45.28772" lon="5.87406">
        <ele>344.44000244141</ele>
        <time>2017-09-17T07:39:14Z</time>
      </trkpt>
      <trkpt lat="45.28778" lon="5.87406">
        <ele>344.44000244141</ele>
        <time>2017-09-17T07:39:19Z</time>
      </trkpt>
      <trkpt lat="45.28783" lon="5.87408">
        <ele>343.44000244141</ele>
        <time>2017-09-17T07:39:21Z</time>
      </trkpt>
      <trkpt lat="45.28788" lon="5.87414">
        <ele>343.44100952148</ele>
        <time>2017-09-17T07:39:24Z</time>
      </trkpt>
      <trkpt lat="45.28795" lon="5.87412">
        <ele>342.44100952148</ele>
        <time>2017-09-17T07:39:26Z</time>
      </trkpt>
      <trkpt lat="45.288" lon="5.87412">
        <ele>342.44100952148</ele>
        <time>2017-09-17T07:39:28Z</time>
      </trkpt>
      <trkpt lat="45.28807" lon="5.87411">
        <ele>342.44100952148</ele>
        <time>2017-09-17T07:39:29Z</time>
      </trkpt>
      <trkpt lat="45.28813" lon="5.87414">
        <ele>342.44100952148</ele>
        <time>2017-09-17T07:39:31Z</time>
      </trkpt>
      <trkpt lat="45.28818" lon="5.87421">
        <ele>343.44100952148</ele>
        <time>2017-09-17T07:39:35Z</time>
      </trkpt>
      <trkpt lat="45.28822" lon="5.87424">
        <ele>341.44100952148</ele>
        <time>2017-09-17T07:39:37Z</time>
      </trkpt>
      <trkpt lat="45.28826" lon="5.87428">
        <ele>340.44100952148</ele>
        <time>2017-09-17T07:39:39Z</time>
      </trkpt>
      <trkpt lat="45.2883" lon="5.87434">
        <ele>342.44100952148</ele>
        <time>2017-09-17T07:39:42Z</time>
      </trkpt>
      <trkpt lat="45.28833" lon="5.8744">
        <ele>341.44100952148</ele>
        <time>2017-09-17T07:39:45Z</time>
      </trkpt>
      <trkpt lat="45.2883" lon="5.87445">
        <ele>340.44100952148</ele>
        <time>2017-09-17T07:39:49Z</time>
      </trkpt>
      <trkpt lat="45.28829" lon="5.87454">
        <ele>337.44100952148</ele>
        <time>2017-09-17T07:39:53Z</time>
      </trkpt>
      <trkpt lat="45.28827" lon="5.8746">
        <ele>335.44100952148</ele>
        <time>2017-09-17T07:39:56Z</time>
      </trkpt>
      <trkpt lat="45.28827" lon="5.87467">
        <ele>334.44100952148</ele>
        <time>2017-09-17T07:39:58Z</time>
      </trkpt>
      <trkpt lat="45.28825" lon="5.87474">
        <ele>334.44100952148</ele>
        <time>2017-09-17T07:40:00Z</time>
      </trkpt>
      <trkpt lat="45.28823" lon="5.8748">
        <ele>334.44100952148</ele>
        <time>2017-09-17T07:40:02Z</time>
      </trkpt>
      <trkpt lat="45.28819" lon="5.87481">
        <ele>333.44100952148</ele>
        <time>2017-09-17T07:40:04Z</time>
      </trkpt>
      <trkpt lat="45.28814" lon="5.87485">
        <ele>330.44100952148</ele>
        <time>2017-09-17T07:40:07Z</time>
      </trkpt>
      <trkpt lat="45.2881" lon="5.8749">
        <ele>329.44100952148</ele>
        <time>2017-09-17T07:40:09Z</time>
      </trkpt>
      <trkpt lat="45.28805" lon="5.87493">
        <ele>329.44100952148</ele>
        <time>2017-09-17T07:40:11Z</time>
      </trkpt>
      <trkpt lat="45.28799" lon="5.87497">
        <ele>330.44100952148</ele>
        <time>2017-09-17T07:40:13Z</time>
      </trkpt>
      <trkpt lat="45.28794" lon="5.87502">
        <ele>331.44100952148</ele>
        <time>2017-09-17T07:40:15Z</time>
      </trkpt>
      <trkpt lat="45.28792" lon="5.87511">
        <ele>328.44100952148</ele>
        <time>2017-09-17T07:40:16Z</time>
      </trkpt>
      <trkpt lat="45.2879" lon="5.87521">
        <ele>327.44100952148</ele>
        <time>2017-09-17T07:40:18Z</time>
      </trkpt>
      <trkpt lat="45.28788" lon="5.87528">
        <ele>327.44100952148</ele>
        <time>2017-09-17T07:40:20Z</time>
      </trkpt>
      <trkpt lat="45.28786" lon="5.87534">
        <ele>325.44100952148</ele>
        <time>2017-09-17T07:40:22Z</time>
      </trkpt>
      <trkpt lat="45.28783" lon="5.8754">
        <ele>322.44100952148</ele>
        <time>2017-09-17T07:40:25Z</time>
      </trkpt>
      <trkpt lat="45.28781" lon="5.87547">
        <ele>320.44100952148</ele>
        <time>2017-09-17T07:40:28Z</time>
      </trkpt>
      <trkpt lat="45.2878" lon="5.87557">
        <ele>322.44100952148</ele>
        <time>2017-09-17T07:40:30Z</time>
      </trkpt>
      <trkpt lat="45.28774" lon="5.87559">
        <ele>324.44100952148</ele>
        <time>2017-09-17T07:40:33Z</time>
      </trkpt>
      <trkpt lat="45.28768" lon="5.8756">
        <ele>323.44100952148</ele>
        <time>2017-09-17T07:40:35Z</time>
      </trkpt>
      <trkpt lat="45.28762" lon="5.87558">
        <ele>322.44100952148</ele>
        <time>2017-09-17T07:40:38Z</time>
      </trkpt>
      <trkpt lat="45.28756" lon="5.87558">
        <ele>321.44100952148</ele>
        <time>2017-09-17T07:40:40Z</time>
      </trkpt>
      <trkpt lat="45.2875" lon="5.87559">
        <ele>323.44100952148</ele>
        <time>2017-09-17T07:40:42Z</time>
      </trkpt>
      <trkpt lat="45.28745" lon="5.87561">
        <ele>321.44100952148</ele>
        <time>2017-09-17T07:40:44Z</time>
      </trkpt>
      <trkpt lat="45.28739" lon="5.87566">
        <ele>319.44100952148</ele>
        <time>2017-09-17T07:40:46Z</time>
      </trkpt>
      <trkpt lat="45.28733" lon="5.87571">
        <ele>320.44100952148</ele>
        <time>2017-09-17T07:40:49Z</time>
      </trkpt>
      <trkpt lat="45.28727" lon="5.87576">
        <ele>318.44100952148</ele>
        <time>2017-09-17T07:40:51Z</time>
      </trkpt>
      <trkpt lat="45.28723" lon="5.87578">
        <ele>315.44100952148</ele>
        <time>2017-09-17T07:40:53Z</time>
      </trkpt>
      <trkpt lat="45.28718" lon="5.87582">
        <ele>314.44100952148</ele>
        <time>2017-09-17T07:40:55Z</time>
      </trkpt>
      <trkpt lat="45.28714" lon="5.87586">
        <ele>311.44100952148</ele>
        <time>2017-09-17T07:40:57Z</time>
      </trkpt>
      <trkpt lat="45.28709" lon="5.87591">
        <ele>310.44100952148</ele>
        <time>2017-09-17T07:40:59Z</time>
      </trkpt>
      <trkpt lat="45.28705" lon="5.87599">
        <ele>309.44100952148</ele>
        <time>2017-09-17T07:41:01Z</time>
      </trkpt>
      <trkpt lat="45.287" lon="5.87603">
        <ele>309.44100952148</ele>
        <time>2017-09-17T07:41:03Z</time>
      </trkpt>
      <trkpt lat="45.28696" lon="5.87609">
        <ele>308.44100952148</ele>
        <time>2017-09-17T07:41:05Z</time>
      </trkpt>
      <trkpt lat="45.28692" lon="5.87614">
        <ele>306.44100952148</ele>
        <time>2017-09-17T07:41:07Z</time>
      </trkpt>
      <trkpt lat="45.28687" lon="5.8762">
        <ele>306.44100952148</ele>
        <time>2017-09-17T07:41:09Z</time>
      </trkpt>
      <trkpt lat="45.28683" lon="5.87624">
        <ele>306.44100952148</ele>
        <time>2017-09-17T07:41:11Z</time>
      </trkpt>
      <trkpt lat="45.2868" lon="5.8763">
        <ele>305.44100952148</ele>
        <time>2017-09-17T07:41:13Z</time>
      </trkpt>
      <trkpt lat="45.28676" lon="5.87635">
        <ele>307.44100952148</ele>
        <time>2017-09-17T07:41:15Z</time>
      </trkpt>
      <trkpt lat="45.28672" lon="5.87641">
        <ele>306.44100952148</ele>
        <time>2017-09-17T07:41:17Z</time>
      </trkpt>
      <trkpt lat="45.28669" lon="5.8765">
        <ele>306.44100952148</ele>
        <time>2017-09-17T07:41:19Z</time>
      </trkpt>
      <trkpt lat="45.28664" lon="5.87656">
        <ele>305.44100952148</ele>
        <time>2017-09-17T07:41:21Z</time>
      </trkpt>
      <trkpt lat="45.2866" lon="5.87661">
        <ele>304.44100952148</ele>
        <time>2017-09-17T07:41:23Z</time>
      </trkpt>
      <trkpt lat="45.28656" lon="5.87667">
        <ele>304.44100952148</ele>
        <time>2017-09-17T07:41:25Z</time>
      </trkpt>
      <trkpt lat="45.28651" lon="5.87672">
        <ele>303.44100952148</ele>
        <time>2017-09-17T07:41:28Z</time>
      </trkpt>
      <trkpt lat="45.28646" lon="5.87678">
        <ele>301.44100952148</ele>
        <time>2017-09-17T07:41:30Z</time>
      </trkpt>
      <trkpt lat="45.28641" lon="5.87682">
        <ele>300.44100952148</ele>
        <time>2017-09-17T07:41:32Z</time>
      </trkpt>
      <trkpt lat="45.28637" lon="5.87684">
        <ele>301.44100952148</ele>
        <time>2017-09-17T07:41:35Z</time>
      </trkpt>
      <trkpt lat="45.28631" lon="5.87686">
        <ele>302.44100952148</ele>
        <time>2017-09-17T07:41:37Z</time>
      </trkpt>
      <trkpt lat="45.28625" lon="5.87688">
        <ele>302.44100952148</ele>
        <time>2017-09-17T07:41:39Z</time>
      </trkpt>
      <trkpt lat="45.2862" lon="5.87692">
        <ele>301.44100952148</ele>
        <time>2017-09-17T07:41:41Z</time>
      </trkpt>
      <trkpt lat="45.28617" lon="5.877">
        <ele>301.44100952148</ele>
        <time>2017-09-17T07:41:43Z</time>
      </trkpt>
      <trkpt lat="45.28614" lon="5.87714">
        <ele>297.44100952148</ele>
        <time>2017-09-17T07:41:47Z</time>
      </trkpt>
      <trkpt lat="45.28613" lon="5.87722">
        <ele>296.44100952148</ele>
        <time>2017-09-17T07:41:49Z</time>
      </trkpt>
      <trkpt lat="45.28611" lon="5.87734">
        <ele>297.44100952148</ele>
        <time>2017-09-17T07:41:52Z</time>
      </trkpt>
      <trkpt lat="45.2861" lon="5.87744">
        <ele>295.44100952148</ele>
        <time>2017-09-17T07:41:54Z</time>
      </trkpt>
      <trkpt lat="45.28608" lon="5.87752">
        <ele>294.44100952148</ele>
        <time>2017-09-17T07:41:56Z</time>
      </trkpt>
      <trkpt lat="45.28607" lon="5.87762">
        <ele>293.44100952148</ele>
        <time>2017-09-17T07:41:58Z</time>
      </trkpt>
      <trkpt lat="45.28607" lon="5.8777">
        <ele>292.44100952148</ele>
        <time>2017-09-17T07:42:00Z</time>
      </trkpt>
      <trkpt lat="45.28605" lon="5.8778">
        <ele>292.44100952148</ele>
        <time>2017-09-17T07:42:03Z</time>
      </trkpt>
      <trkpt lat="45.28605" lon="5.87791">
        <ele>292.44100952148</ele>
        <time>2017-09-17T07:42:06Z</time>
      </trkpt>
      <trkpt lat="45.28605" lon="5.87797">
        <ele>292.44100952148</ele>
        <time>2017-09-17T07:42:08Z</time>
      </trkpt>
      <trkpt lat="45.28605" lon="5.87805">
        <ele>291.44100952148</ele>
        <time>2017-09-17T07:42:10Z</time>
      </trkpt>
      <trkpt lat="45.28606" lon="5.87813">
        <ele>288.44100952148</ele>
        <time>2017-09-17T07:42:12Z</time>
      </trkpt>
      <trkpt lat="45.28604" lon="5.87824">
        <ele>286.44100952148</ele>
        <time>2017-09-17T07:42:15Z</time>
      </trkpt>
      <trkpt lat="45.28604" lon="5.87831">
        <ele>286.44100952148</ele>
        <time>2017-09-17T07:42:17Z</time>
      </trkpt>
      <trkpt lat="45.28604" lon="5.87839">
        <ele>286.44100952148</ele>
        <time>2017-09-17T07:42:19Z</time>
      </trkpt>
      <trkpt lat="45.28603" lon="5.87847">
        <ele>286.44100952148</ele>
        <time>2017-09-17T07:42:21Z</time>
      </trkpt>
      <trkpt lat="45.28603" lon="5.87856">
        <ele>286.44100952148</ele>
        <time>2017-09-17T07:42:23Z</time>
      </trkpt>
      <trkpt lat="45.28602" lon="5.87864">
        <ele>285.44100952148</ele>
        <time>2017-09-17T07:42:25Z</time>
      </trkpt>
      <trkpt lat="45.28601" lon="5.87872">
        <ele>286.44100952148</ele>
        <time>2017-09-17T07:42:27Z</time>
      </trkpt>
      <trkpt lat="45.28599" lon="5.8788">
        <ele>286.44100952148</ele>
        <time>2017-09-17T07:42:29Z</time>
      </trkpt>
      <trkpt lat="45.28595" lon="5.87887">
        <ele>286.44100952148</ele>
        <time>2017-09-17T07:42:32Z</time>
      </trkpt>
      <trkpt lat="45.2859" lon="5.87891">
        <ele>288.44100952148</ele>
        <time>2017-09-17T07:42:34Z</time>
      </trkpt>
      <trkpt lat="45.28585" lon="5.87896">
        <ele>289.44100952148</ele>
        <time>2017-09-17T07:42:36Z</time>
      </trkpt>
      <trkpt lat="45.28581" lon="5.87901">
        <ele>289.44100952148</ele>
        <time>2017-09-17T07:42:38Z</time>
      </trkpt>
      <trkpt lat="45.28576" lon="5.87909">
        <ele>289.44100952148</ele>
        <time>2017-09-17T07:42:40Z</time>
      </trkpt>
      <trkpt lat="45.28572" lon="5.87915">
        <ele>289.44100952148</ele>
        <time>2017-09-17T07:42:42Z</time>
      </trkpt>
      <trkpt lat="45.28567" lon="5.87923">
        <ele>289.44100952148</ele>
        <time>2017-09-17T07:42:45Z</time>
      </trkpt>
      <trkpt lat="45.2856" lon="5.87928">
        <ele>288.44100952148</ele>
        <time>2017-09-17T07:42:47Z</time>
      </trkpt>
      <trkpt lat="45.28556" lon="5.87933">
        <ele>288.44100952148</ele>
        <time>2017-09-17T07:42:49Z</time>
      </trkpt>
      <trkpt lat="45.28551" lon="5.87934">
        <ele>287.44100952148</ele>
        <time>2017-09-17T07:42:51Z</time>
      </trkpt>
      <trkpt lat="45.28548" lon="5.87942">
        <ele>285.44100952148</ele>
        <time>2017-09-17T07:42:53Z</time>
      </trkpt>
      <trkpt lat="45.28544" lon="5.87948">
        <ele>285.44100952148</ele>
        <time>2017-09-17T07:42:55Z</time>
      </trkpt>
      <trkpt lat="45.28538" lon="5.87954">
        <ele>284.44100952148</ele>
        <time>2017-09-17T07:42:58Z</time>
      </trkpt>
      <trkpt lat="45.28533" lon="5.87958">
        <ele>283.44100952148</ele>
        <time>2017-09-17T07:43:00Z</time>
      </trkpt>
      <trkpt lat="45.2853" lon="5.87963">
        <ele>282.44100952148</ele>
        <time>2017-09-17T07:43:02Z</time>
      </trkpt>
      <trkpt lat="45.28527" lon="5.87968">
        <ele>281.44100952148</ele>
        <time>2017-09-17T07:43:04Z</time>
      </trkpt>
      <trkpt lat="45.28522" lon="5.87971">
        <ele>280.44100952148</ele>
        <time>2017-09-17T07:43:06Z</time>
      </trkpt>
      <trkpt lat="45.28517" lon="5.87978">
        <ele>281.44100952148</ele>
        <time>2017-09-17T07:43:08Z</time>
      </trkpt>
      <trkpt lat="45.28513" lon="5.87983">
        <ele>281.44100952148</ele>
        <time>2017-09-17T07:43:10Z</time>
      </trkpt>
      <trkpt lat="45.28509" lon="5.87989">
        <ele>281.44100952148</ele>
        <time>2017-09-17T07:43:12Z</time>
      </trkpt>
      <trkpt lat="45.28504" lon="5.87993">
        <ele>277.44100952148</ele>
        <time>2017-09-17T07:43:14Z</time>
      </trkpt>
      <trkpt lat="45.285" lon="5.87997">
        <ele>275.44100952148</ele>
        <time>2017-09-17T07:43:16Z</time>
      </trkpt>
      <trkpt lat="45.28496" lon="5.88003">
        <ele>275.44100952148</ele>
        <time>2017-09-17T07:43:19Z</time>
      </trkpt>
      <trkpt lat="45.2849" lon="5.88011">
        <ele>274.44100952148</ele>
        <time>2017-09-17T07:43:22Z</time>
      </trkpt>
      <trkpt lat="45.28485" lon="5.88016">
        <ele>273.44100952148</ele>
        <time>2017-09-17T07:43:24Z</time>
      </trkpt>
      <trkpt lat="45.2848" lon="5.88021">
        <ele>271.44100952148</ele>
        <time>2017-09-17T07:43:26Z</time>
      </trkpt>
      <trkpt lat="45.28475" lon="5.88026">
        <ele>270.44100952148</ele>
        <time>2017-09-17T07:43:28Z</time>
      </trkpt>
      <trkpt lat="45.28468" lon="5.88036">
        <ele>272.44100952148</ele>
        <time>2017-09-17T07:43:31Z</time>
      </trkpt>
      <trkpt lat="45.28464" lon="5.88043">
        <ele>272.44100952148</ele>
        <time>2017-09-17T07:43:33Z</time>
      </trkpt>
      <trkpt lat="45.2846" lon="5.88047">
        <ele>272.44100952148</ele>
        <time>2017-09-17T07:43:35Z</time>
      </trkpt>
      <trkpt lat="45.28455" lon="5.88052">
        <ele>271.44100952148</ele>
        <time>2017-09-17T07:43:37Z</time>
      </trkpt>
      <trkpt lat="45.28451" lon="5.88058">
        <ele>270.44100952148</ele>
        <time>2017-09-17T07:43:39Z</time>
      </trkpt>
      <trkpt lat="45.28447" lon="5.88064">
        <ele>270.44100952148</ele>
        <time>2017-09-17T07:43:41Z</time>
      </trkpt>
      <trkpt lat="45.28443" lon="5.88069">
        <ele>270.44100952148</ele>
        <time>2017-09-17T07:43:43Z</time>
      </trkpt>
      <trkpt lat="45.28437" lon="5.88075">
        <ele>269.44100952148</ele>
        <time>2017-09-17T07:43:45Z</time>
      </trkpt>
      <trkpt lat="45.28433" lon="5.88078">
        <ele>268.44100952148</ele>
        <time>2017-09-17T07:43:47Z</time>
      </trkpt>
      <trkpt lat="45.28429" lon="5.88082">
        <ele>269.44100952148</ele>
        <time>2017-09-17T07:43:49Z</time>
      </trkpt>
      <trkpt lat="45.28426" lon="5.88088">
        <ele>268.44100952148</ele>
        <time>2017-09-17T07:43:51Z</time>
      </trkpt>
      <trkpt lat="45.28424" lon="5.88094">
        <ele>268.44100952148</ele>
        <time>2017-09-17T07:43:53Z</time>
      </trkpt>
      <trkpt lat="45.2842" lon="5.881">
        <ele>268.44100952148</ele>
        <time>2017-09-17T07:43:55Z</time>
      </trkpt>
      <trkpt lat="45.28417" lon="5.88105">
        <ele>269.44100952148</ele>
        <time>2017-09-17T07:43:57Z</time>
      </trkpt>
      <trkpt lat="45.28412" lon="5.88109">
        <ele>269.44100952148</ele>
        <time>2017-09-17T07:43:59Z</time>
      </trkpt>
      <trkpt lat="45.28409" lon="5.88116">
        <ele>268.44100952148</ele>
        <time>2017-09-17T07:44:01Z</time>
      </trkpt>
      <trkpt lat="45.28405" lon="5.88122">
        <ele>267.44100952148</ele>
        <time>2017-09-17T07:44:03Z</time>
      </trkpt>
      <trkpt lat="45.28401" lon="5.88129">
        <ele>266.44100952148</ele>
        <time>2017-09-17T07:44:05Z</time>
      </trkpt>
      <trkpt lat="45.28398" lon="5.88136">
        <ele>266.44100952148</ele>
        <time>2017-09-17T07:44:07Z</time>
      </trkpt>
      <trkpt lat="45.28394" lon="5.88142">
        <ele>265.44100952148</ele>
        <time>2017-09-17T07:44:09Z</time>
      </trkpt>
      <trkpt lat="45.28394" lon="5.8815">
        <ele>265.44100952148</ele>
        <time>2017-09-17T07:44:11Z</time>
      </trkpt>
      <trkpt lat="45.28397" lon="5.88158">
        <ele>264.44100952148</ele>
        <time>2017-09-17T07:44:14Z</time>
      </trkpt>
      <trkpt lat="45.28398" lon="5.88166">
        <ele>263.44100952148</ele>
        <time>2017-09-17T07:44:16Z</time>
      </trkpt>
      <trkpt lat="45.284" lon="5.88173">
        <ele>263.44100952148</ele>
        <time>2017-09-17T07:44:18Z</time>
      </trkpt>
      <trkpt lat="45.28401" lon="5.8818">
        <ele>262.44100952148</ele>
        <time>2017-09-17T07:44:21Z</time>
      </trkpt>
      <trkpt lat="45.284" lon="5.88186">
        <ele>262.44100952148</ele>
        <time>2017-09-17T07:44:23Z</time>
      </trkpt>
      <trkpt lat="45.28394" lon="5.88191">
        <ele>261.44100952148</ele>
        <time>2017-09-17T07:44:25Z</time>
      </trkpt>
      <trkpt lat="45.28392" lon="5.88199">
        <ele>263.44100952148</ele>
        <time>2017-09-17T07:44:27Z</time>
      </trkpt>
      <trkpt lat="45.28397" lon="5.8821">
        <ele>263.44100952148</ele>
        <time>2017-09-17T07:44:30Z</time>
      </trkpt>
      <trkpt lat="45.28395" lon="5.88217">
        <ele>262.44100952148</ele>
        <time>2017-09-17T07:44:34Z</time>
      </trkpt>
      <trkpt lat="45.2839" lon="5.8822">
        <ele>261.44100952148</ele>
        <time>2017-09-17T07:44:36Z</time>
      </trkpt>
      <trkpt lat="45.28385" lon="5.88226">
        <ele>262.44100952148</ele>
        <time>2017-09-17T07:44:39Z</time>
      </trkpt>
      <trkpt lat="45.28383" lon="5.88232">
        <ele>261.44100952148</ele>
        <time>2017-09-17T07:44:43Z</time>
      </trkpt>
      <trkpt lat="45.28381" lon="5.88238">
        <ele>261.44100952148</ele>
        <time>2017-09-17T07:44:47Z</time>
      </trkpt>
      <trkpt lat="45.28377" lon="5.88242">
        <ele>260.44100952148</ele>
        <time>2017-09-17T07:44:49Z</time>
      </trkpt>
      <trkpt lat="45.28374" lon="5.88246">
        <ele>261.44100952148</ele>
        <time>2017-09-17T07:44:51Z</time>
      </trkpt>
      <trkpt lat="45.28369" lon="5.8825">
        <ele>262.44100952148</ele>
        <time>2017-09-17T07:44:53Z</time>
      </trkpt>
      <trkpt lat="45.28365" lon="5.88256">
        <ele>261.44100952148</ele>
        <time>2017-09-17T07:44:55Z</time>
      </trkpt>
      <trkpt lat="45.28362" lon="5.88262">
        <ele>261.44100952148</ele>
        <time>2017-09-17T07:44:57Z</time>
      </trkpt>
      <trkpt lat="45.28359" lon="5.88271">
        <ele>258.44100952148</ele>
        <time>2017-09-17T07:44:59Z</time>
      </trkpt>
      <trkpt lat="45.28355" lon="5.88278">
        <ele>256.44100952148</ele>
        <time>2017-09-17T07:45:01Z</time>
      </trkpt>
      <trkpt lat="45.2835" lon="5.88282">
        <ele>255.44099426269</ele>
        <time>2017-09-17T07:45:03Z</time>
      </trkpt>
      <trkpt lat="45.28346" lon="5.88289">
        <ele>255.44099426269</ele>
        <time>2017-09-17T07:45:05Z</time>
      </trkpt>
      <trkpt lat="45.28342" lon="5.88294">
        <ele>256.44100952148</ele>
        <time>2017-09-17T07:45:07Z</time>
      </trkpt>
      <trkpt lat="45.28337" lon="5.88299">
        <ele>256.44100952148</ele>
        <time>2017-09-17T07:45:09Z</time>
      </trkpt>
      <trkpt lat="45.28332" lon="5.88305">
        <ele>258.44100952148</ele>
        <time>2017-09-17T07:45:11Z</time>
      </trkpt>
      <trkpt lat="45.28324" lon="5.88315">
        <ele>257.44100952148</ele>
        <time>2017-09-17T07:45:15Z</time>
      </trkpt>
      <trkpt lat="45.2832" lon="5.88324">
        <ele>256.44100952148</ele>
        <time>2017-09-17T07:45:17Z</time>
      </trkpt>
      <trkpt lat="45.28315" lon="5.88327">
        <ele>257.44100952148</ele>
        <time>2017-09-17T07:45:19Z</time>
      </trkpt>
      <trkpt lat="45.28311" lon="5.88336">
        <ele>257.44100952148</ele>
        <time>2017-09-17T07:45:21Z</time>
      </trkpt>
      <trkpt lat="45.28307" lon="5.88342">
        <ele>256.44100952148</ele>
        <time>2017-09-17T07:45:23Z</time>
      </trkpt>
      <trkpt lat="45.28303" lon="5.88348">
        <ele>256.44100952148</ele>
        <time>2017-09-17T07:45:25Z</time>
      </trkpt>
      <trkpt lat="45.283" lon="5.88356">
        <ele>253.44099426269</ele>
        <time>2017-09-17T07:45:27Z</time>
      </trkpt>
      <trkpt lat="45.28295" lon="5.88361">
        <ele>254.44099426269</ele>
        <time>2017-09-17T07:45:29Z</time>
      </trkpt>
      <trkpt lat="45.28291" lon="5.88366">
        <ele>254.44099426269</ele>
        <time>2017-09-17T07:45:31Z</time>
      </trkpt>
      <trkpt lat="45.28287" lon="5.88372">
        <ele>253.44099426269</ele>
        <time>2017-09-17T07:45:33Z</time>
      </trkpt>
      <trkpt lat="45.28285" lon="5.88378">
        <ele>253.44099426269</ele>
        <time>2017-09-17T07:45:35Z</time>
      </trkpt>
      <trkpt lat="45.28285" lon="5.88386">
        <ele>252.44099426269</ele>
        <time>2017-09-17T07:45:37Z</time>
      </trkpt>
      <trkpt lat="45.28286" lon="5.88395">
        <ele>251.44099426269</ele>
        <time>2017-09-17T07:45:39Z</time>
      </trkpt>
      <trkpt lat="45.28288" lon="5.88403">
        <ele>250.44099426269</ele>
        <time>2017-09-17T07:45:41Z</time>
      </trkpt>
      <trkpt lat="45.28288" lon="5.88412">
        <ele>252.44099426269</ele>
        <time>2017-09-17T07:45:43Z</time>
      </trkpt>
      <trkpt lat="45.28284" lon="5.88418">
        <ele>253.44099426269</ele>
        <time>2017-09-17T07:45:45Z</time>
      </trkpt>
      <trkpt lat="45.28283" lon="5.88426">
        <ele>256.44100952148</ele>
        <time>2017-09-17T07:45:48Z</time>
      </trkpt>
      <trkpt lat="45.28277" lon="5.88424">
        <ele>255.44099426269</ele>
        <time>2017-09-17T07:45:50Z</time>
      </trkpt>
      <trkpt lat="45.28275" lon="5.88417">
        <ele>256.44100952148</ele>
        <time>2017-09-17T07:45:53Z</time>
      </trkpt>
      <trkpt lat="45.28268" lon="5.88424">
        <ele>259.44100952148</ele>
        <time>2017-09-17T07:45:56Z</time>
      </trkpt>
      <trkpt lat="45.28263" lon="5.88429">
        <ele>259.44100952148</ele>
        <time>2017-09-17T07:45:58Z</time>
      </trkpt>
      <trkpt lat="45.28259" lon="5.88435">
        <ele>259.44100952148</ele>
        <time>2017-09-17T07:46:00Z</time>
      </trkpt>
      <trkpt lat="45.28254" lon="5.8844">
        <ele>259.44100952148</ele>
        <time>2017-09-17T07:46:03Z</time>
      </trkpt>
      <trkpt lat="45.28249" lon="5.88444">
        <ele>258.44100952148</ele>
        <time>2017-09-17T07:46:05Z</time>
      </trkpt>
      <trkpt lat="45.2824" lon="5.88445">
        <ele>254.44099426269</ele>
        <time>2017-09-17T07:46:06Z</time>
      </trkpt>
      <trkpt lat="45.28237" lon="5.88451">
        <ele>253.44099426269</ele>
        <time>2017-09-17T07:46:08Z</time>
      </trkpt>
      <trkpt lat="45.28233" lon="5.88459">
        <ele>254.44099426269</ele>
        <time>2017-09-17T07:46:11Z</time>
      </trkpt>
      <trkpt lat="45.2823" lon="5.88465">
        <ele>252.44099426269</ele>
        <time>2017-09-17T07:46:13Z</time>
      </trkpt>
      <trkpt lat="45.28228" lon="5.88472">
        <ele>253.44099426269</ele>
        <time>2017-09-17T07:46:15Z</time>
      </trkpt>
      <trkpt lat="45.28224" lon="5.88476">
        <ele>254.44099426269</ele>
        <time>2017-09-17T07:46:17Z</time>
      </trkpt>
      <trkpt lat="45.2822" lon="5.88481">
        <ele>253.44099426269</ele>
        <time>2017-09-17T07:46:19Z</time>
      </trkpt>
      <trkpt lat="45.28216" lon="5.88487">
        <ele>253.44099426269</ele>
        <time>2017-09-17T07:46:21Z</time>
      </trkpt>
      <trkpt lat="45.28214" lon="5.88504">
        <ele>250.44099426269</ele>
        <time>2017-09-17T07:46:24Z</time>
      </trkpt>
      <trkpt lat="45.28211" lon="5.88509">
        <ele>250.44099426269</ele>
        <time>2017-09-17T07:46:26Z</time>
      </trkpt>
      <trkpt lat="45.28207" lon="5.88515">
        <ele>250.44099426269</ele>
        <time>2017-09-17T07:46:28Z</time>
      </trkpt>
      <trkpt lat="45.28205" lon="5.88523">
        <ele>250.44099426269</ele>
        <time>2017-09-17T07:46:30Z</time>
      </trkpt>
      <trkpt lat="45.282" lon="5.88529">
        <ele>249.44099426269</ele>
        <time>2017-09-17T07:46:32Z</time>
      </trkpt>
      <trkpt lat="45.28196" lon="5.88534">
        <ele>248.44099426269</ele>
        <time>2017-09-17T07:46:34Z</time>
      </trkpt>
      <trkpt lat="45.28192" lon="5.88539">
        <ele>248.44099426269</ele>
        <time>2017-09-17T07:46:36Z</time>
      </trkpt>
      <trkpt lat="45.28189" lon="5.88544">
        <ele>248.44099426269</ele>
        <time>2017-09-17T07:46:38Z</time>
      </trkpt>
      <trkpt lat="45.28184" lon="5.8855">
        <ele>248.44099426269</ele>
        <time>2017-09-17T07:46:40Z</time>
      </trkpt>
      <trkpt lat="45.2818" lon="5.88556">
        <ele>247.44099426269</ele>
        <time>2017-09-17T07:46:42Z</time>
      </trkpt>
      <trkpt lat="45.28177" lon="5.88563">
        <ele>247.44099426269</ele>
        <time>2017-09-17T07:46:44Z</time>
      </trkpt>
      <trkpt lat="45.28174" lon="5.88569">
        <ele>245.44099426269</ele>
        <time>2017-09-17T07:46:46Z</time>
      </trkpt>
      <trkpt lat="45.28171" lon="5.88574">
        <ele>245.44099426269</ele>
        <time>2017-09-17T07:46:49Z</time>
      </trkpt>
      <trkpt lat="45.28168" lon="5.8858">
        <ele>245.44099426269</ele>
        <time>2017-09-17T07:46:51Z</time>
      </trkpt>
      <trkpt lat="45.28164" lon="5.88587">
        <ele>247.44099426269</ele>
        <time>2017-09-17T07:46:53Z</time>
      </trkpt>
      <trkpt lat="45.28161" lon="5.88594">
        <ele>248.44099426269</ele>
        <time>2017-09-17T07:46:55Z</time>
      </trkpt>
      <trkpt lat="45.28158" lon="5.88599">
        <ele>248.44099426269</ele>
        <time>2017-09-17T07:46:57Z</time>
      </trkpt>
      <trkpt lat="45.28153" lon="5.88606">
        <ele>247.44099426269</ele>
        <time>2017-09-17T07:46:59Z</time>
      </trkpt>
      <trkpt lat="45.28151" lon="5.88616">
        <ele>246.44099426269</ele>
        <time>2017-09-17T07:47:01Z</time>
      </trkpt>
      <trkpt lat="45.28147" lon="5.88621">
        <ele>247.44099426269</ele>
        <time>2017-09-17T07:47:03Z</time>
      </trkpt>
      <trkpt lat="45.28144" lon="5.88627">
        <ele>246.44099426269</ele>
        <time>2017-09-17T07:47:05Z</time>
      </trkpt>
      <trkpt lat="45.2814" lon="5.88629">
        <ele>247.44099426269</ele>
        <time>2017-09-17T07:47:08Z</time>
      </trkpt>
      <trkpt lat="45.28134" lon="5.88629">
        <ele>248.44099426269</ele>
        <time>2017-09-17T07:47:13Z</time>
      </trkpt>
      <trkpt lat="45.28129" lon="5.88632">
        <ele>248.44099426269</ele>
        <time>2017-09-17T07:47:16Z</time>
      </trkpt>
      <trkpt lat="45.28125" lon="5.88636">
        <ele>249.44099426269</ele>
        <time>2017-09-17T07:47:20Z</time>
      </trkpt>
      <trkpt lat="45.28121" lon="5.88642">
        <ele>247.44099426269</ele>
        <time>2017-09-17T07:47:24Z</time>
      </trkpt>
      <trkpt lat="45.28116" lon="5.88646">
        <ele>247.44099426269</ele>
        <time>2017-09-17T07:47:28Z</time>
      </trkpt>
      <trkpt lat="45.28113" lon="5.88651">
        <ele>245.44099426269</ele>
        <time>2017-09-17T07:47:32Z</time>
      </trkpt>
      <trkpt lat="45.2811" lon="5.88656">
        <ele>245.44099426269</ele>
        <time>2017-09-17T07:47:36Z</time>
      </trkpt>
      <trkpt lat="45.28106" lon="5.88662">
        <ele>247.44099426269</ele>
        <time>2017-09-17T07:47:40Z</time>
      </trkpt>
      <trkpt lat="45.28101" lon="5.8867">
        <ele>246.44099426269</ele>
        <time>2017-09-17T07:47:44Z</time>
      </trkpt>
      <trkpt lat="45.28098" lon="5.88675">
        <ele>245.44099426269</ele>
        <time>2017-09-17T07:47:48Z</time>
      </trkpt>
      <trkpt lat="45.28096" lon="5.88681">
        <ele>245.44099426269</ele>
        <time>2017-09-17T07:47:52Z</time>
      </trkpt>
      <trkpt lat="45.28093" lon="5.88687">
        <ele>245.44099426269</ele>
        <time>2017-09-17T07:47:56Z</time>
      </trkpt>
      <trkpt lat="45.28091" lon="5.88693">
        <ele>244.44099426269</ele>
        <time>2017-09-17T07:48:00Z</time>
      </trkpt>
      <trkpt lat="45.28088" lon="5.88698">
        <ele>245.44099426269</ele>
        <time>2017-09-17T07:48:06Z</time>
      </trkpt>
      <trkpt lat="45.28086" lon="5.88704">
        <ele>243.44099426269</ele>
        <time>2017-09-17T07:48:12Z</time>
      </trkpt>
      <trkpt lat="45.28085" lon="5.88711">
        <ele>239.44099426269</ele>
        <time>2017-09-17T07:48:43Z</time>
      </trkpt>
      <trkpt lat="45.2808" lon="5.88709">
        <ele>240.44099426269</ele>
        <time>2017-09-17T07:48:50Z</time>
      </trkpt>
    </trkseg>
  </trk>
</gpx>